[[{"header":{"parameterUnit":"m.s-1","parameterCategory":1,"la1":30.6,"la2":29.2853,"lo1":-89.7004,"lo2":-87.6739,"dy":0.0162,"dx":0.0183,"nx":112,"ny":82,"refTime":"2023-04-10T06:00:00:Z","depth":0,"parameterNumber":2,"parameterNumberName":"U-component_of_WINDS"},"data":[0.0,0.0,0.0,0.0,0.0,0.0,0.0,0.0,0.0,0.0,0.0,0.0,0.0,0.0,0.0,0.0,0.0,0.0,0.0,0.0,0.0,0.0,0.0,0.0,0.0,0.0,0.0,0.0,0.0,0.0,0.0,0.0,0.0,0.0,0.0,0.0,0.0,0.0,0.0,0.0,0.0,0.0,0.0,0.0,0.0,0.0,0.0,0.0,0.0,0.0,0.0,0.0,0.0,0.0,0.0,0.0,0.0,0.0,0.0,0.0,0.0,0.0,0.0,0.0,0.0,0.0,0.0,0.0,0.0,0.0,0.0,0.0,0.0,0.0,0.0,0.0,0.0,0.0,0.0,0.0,0.0,0.0,0.0,0.0,0.0,0.0,0.0,0.0,0.0,0.0,2.5757,2.6142,2.8281,2.9872,3.0273,3.0117,2.9199,2.7324,0.0,0.0,0.0,0.0,0.0,0.0,0.0,0.0,0.0,0.0,0.0,0.0,0.0,0.0,0.0,0.0,0.0,0.0,0.0,0.0,0.0,0.0,0.0,0.0,0.0,0.0,0.0,0.0,0.0,0.0,0.0,0.0,0.0,0.0,0.0,0.0,0.0,0.0,0.0,0.0,0.0,0.0,0.0,0.0,0.0,0.0,0.0,0.0,0.0,0.0,0.0,0.0,0.0,0.0,0.0,0.0,0.0,0.0,0.0,0.0,0.0,0.0,0.0,0.0,0.0,0.0,0.0,0.0,0.0,0.0,0.0,0.0,0.0,0.0,0.0,0.0,0.0,0.0,0.0,0.0,0.0,0.0,0.0,0.0,0.0,0.0,0.0,0.0,0.0,0.0,0.0,0.0,0.0,0.0,0.0,0.0,0.0,0.0,0.0,0.0,0.0,0.0,0.0,0.0,2.6016,2.8176,2.9434,3.0293,3.0742,2.9766,2.8828,2.8144,0.0,0.0,0.0,0.0,0.0,0.0,0.0,0.0,0.0,0.0,0.0,0.0,0.0,0.0,0.0,0.0,0.0,0.0,0.0,0.0,0.0,0.0,0.0,0.0,0.0,0.0,0.0,0.0,0.0,0.0,0.0,0.0,0.0,0.0,0.0,0.0,0.0,0.0,0.0,0.0,0.0,0.0,0.0,0.0,0.0,0.0,0.0,0.0,0.0,0.0,0.0,0.0,0.0,0.0,0.0,0.0,0.0,0.0,0.0,0.0,0.0,0.0,0.0,0.0,0.0,0.0,0.0,0.0,0.0,0.0,0.0,0.0,0.0,0.0,0.0,0.0,0.0,0.0,0.0,0.0,0.0,0.0,0.0,0.0,0.0,0.0,0.0,0.0,0.0,0.0,0.0,0.0,0.0,0.0,0.0,0.0,0.0,0.0,0.0,0.0,0.0,0.0,0.0,2.5996,2.7012,2.9355,2.9961,3.0391,3.0859,2.9902,2.8984,2.834,2.748,0.0,0.0,0.0,0.0,0.0,0.0,0.0,0.0,0.0,0.0,0.0,0.0,0.0,0.0,0.0,0.0,0.0,0.0,0.0,0.0,0.0,0.0,0.0,0.0,0.0,0.0,0.0,0.0,0.0,0.0,0.0,0.0,0.0,0.0,0.0,0.0,0.0,0.0,0.0,0.0,0.0,0.0,0.0,0.0,0.0,0.0,0.0,0.0,0.0,0.0,0.0,0.0,0.0,0.0,0.0,0.0,0.0,0.0,0.0,0.0,0.0,0.0,0.0,0.0,0.0,0.0,0.0,0.0,0.0,0.0,0.0,0.0,0.0,0.0,0.0,0.0,0.0,0.0,0.0,0.0,0.0,0.0,0.0,0.0,0.0,0.0,0.0,0.0,0.0,0.0,0.0,0.0,0.0,0.0,0.0,0.0,0.0,0.0,0.0,0.0,0.0,0.0,2.7305,2.8281,3.0019,3.0293,3.0469,3.0703,2.9852,2.8973,2.821,2.7246,0.0,0.0,0.0,0.0,0.0,0.0,0.0,0.0,0.0,0.0,0.0,0.0,0.0,0.0,0.0,0.0,0.0,0.0,0.0,0.0,0.0,0.0,0.0,0.0,0.0,0.0,0.0,0.0,0.0,0.0,0.0,0.0,0.0,0.0,0.0,0.0,0.0,0.0,0.0,0.0,0.0,0.0,0.0,0.0,0.0,0.0,0.0,0.0,0.0,0.0,0.0,0.0,0.0,0.0,0.0,0.0,0.0,0.0,0.0,0.0,0.0,0.0,0.0,0.0,0.0,0.0,0.0,0.0,0.0,0.0,0.0,0.0,0.0,0.0,0.0,0.0,0.0,0.0,0.0,0.0,0.0,0.0,0.0,0.0,0.0,0.0,0.0,0.0,0.0,0.0,0.0,0.0,0.0,0.0,0.0,0.0,0.0,0.0,0.0,0.0,0.0,0.0,2.8191,2.9618,3.0137,3.0586,3.0684,3.0273,2.9101,2.821,2.7761,2.6498,0.0,0.0,0.0,0.0,0.0,0.0,0.0,0.0,0.0,0.0,0.0,0.0,0.0,0.0,0.0,0.0,0.0,0.0,0.0,0.0,0.0,0.0,0.0,0.0,0.0,0.0,0.0,0.0,0.0,0.0,0.0,0.0,0.0,0.0,0.0,0.0,0.0,0.0,0.0,0.0,0.0,0.0,0.0,0.0,0.0,0.0,0.0,0.0,0.0,0.0,0.0,0.0,0.0,0.0,0.0,0.0,0.0,0.0,0.0,0.0,0.0,0.0,0.0,0.0,0.0,0.0,0.0,0.0,0.0,0.0,0.0,0.0,0.0,0.0,0.0,0.0,0.0,0.0,0.0,0.0,0.0,0.0,0.0,0.0,0.0,0.0,0.0,0.0,0.0,0.0,0.0,0.0,0.0,0.0,0.0,0.0,0.0,0.0,0.0,0.0,0.0,0.0,2.8164,2.9531,3.0527,3.0781,3.0703,3.0234,2.9258,2.8398,2.7741,0.0,0.0,0.0,0.0,0.0,0.0,0.0,0.0,0.0,0.0,0.0,0.0,0.0,0.0,0.0,0.0,0.0,0.0,0.0,0.0,0.0,0.0,0.0,0.0,0.0,0.0,0.0,0.0,0.0,0.0,0.0,0.0,0.0,0.0,0.0,0.0,0.0,0.0,0.0,0.0,0.0,0.0,0.0,0.0,0.0,0.0,0.0,0.0,0.0,0.0,0.0,0.0,0.0,0.0,0.0,0.0,0.0,0.0,0.0,0.0,0.0,0.0,0.0,0.0,0.0,0.0,0.0,0.0,0.0,0.0,0.0,0.0,0.0,0.0,0.0,0.0,0.0,0.0,0.0,0.0,0.0,0.0,0.0,0.0,0.0,0.0,0.0,0.0,0.0,0.0,0.0,0.0,0.0,0.0,0.0,0.0,0.0,0.0,0.0,0.0,0.0,0.0,2.707,2.8457,2.9726,3.0781,3.0898,3.0644,3.0059,2.9082,2.8223,2.7526,0.0,0.0,0.0,0.0,0.0,0.0,0.0,0.0,0.0,0.0,0.0,0.0,0.0,0.0,0.0,0.0,0.0,0.0,0.0,0.0,0.0,0.0,0.0,0.0,0.0,0.0,0.0,0.0,0.0,0.0,0.0,0.0,0.0,0.0,0.0,0.0,0.0,0.0,0.0,0.0,0.0,0.0,0.0,0.0,0.0,0.0,0.0,0.0,0.0,0.0,0.0,0.0,0.0,0.0,0.0,0.0,0.0,0.0,0.0,0.0,0.0,0.0,0.0,0.0,0.0,0.0,0.0,0.0,0.0,0.0,0.0,0.0,0.0,0.0,0.0,0.0,0.0,0.0,0.0,0.0,0.0,0.0,0.0,0.0,0.0,0.0,0.0,0.0,0.0,0.0,0.0,0.0,0.0,0.0,0.0,0.0,0.0,0.0,0.0,0.0,0.0,0.0,2.7585,2.9141,3.0371,3.084,3.0898,3.0556,2.9676,2.8425,2.7506,0.0,0.0,0.0,0.0,0.0,0.0,0.0,0.0,0.0,0.0,0.0,0.0,0.0,0.0,0.0,0.0,0.0,0.0,0.0,0.0,0.0,0.0,0.0,0.0,0.0,0.0,0.0,0.0,0.0,0.0,0.0,0.0,0.0,0.0,0.0,0.0,0.0,0.0,0.0,0.0,0.0,0.0,0.0,0.0,0.0,0.0,0.0,0.0,0.0,0.0,0.0,0.0,0.0,0.0,0.0,0.0,0.0,0.0,0.0,0.0,0.0,0.0,0.0,0.0,0.0,0.0,0.0,0.0,0.0,0.0,0.0,0.0,0.0,0.0,0.0,0.0,0.0,0.0,0.0,0.0,0.0,0.0,0.0,0.0,0.0,0.0,0.0,0.0,0.0,0.0,0.0,0.0,0.0,0.0,0.0,0.0,0.0,0.0,0.0,0.0,0.0,0.0,0.0,2.7585,2.9141,3.0371,3.084,3.0898,3.0556,2.9676,2.8425,2.7506,2.7025,0.0,0.0,0.0,0.0,0.0,0.0,0.0,0.0,0.0,0.0,0.0,0.0,0.0,0.0,0.0,0.0,0.0,0.0,0.0,0.0,0.0,0.0,0.0,0.0,0.0,0.0,0.0,0.0,0.0,0.0,0.0,0.0,0.0,0.0,0.0,0.0,0.0,0.0,0.0,0.0,0.0,0.0,0.0,0.0,0.0,0.0,0.0,0.0,0.0,0.0,0.0,0.0,0.0,0.0,0.0,0.0,0.0,0.0,0.0,0.0,0.0,0.0,0.0,0.0,0.0,0.0,0.0,0.0,0.0,0.0,0.0,0.0,0.0,0.0,0.0,0.0,0.0,0.0,0.0,0.0,0.0,0.0,0.0,0.0,0.0,0.0,0.0,0.0,0.0,0.0,0.0,0.0,0.0,0.0,0.0,0.0,0.0,0.0,0.0,0.0,0.0,0.0,2.7858,2.9442,3.0586,3.0859,3.0304,2.9823,2.962,2.7975,2.6931,2.6766,0.0,0.0,0.0,0.0,0.0,0.0,0.0,0.0,0.0,0.0,0.0,0.0,0.0,0.0,0.0,0.0,0.0,0.0,0.0,0.0,0.0,0.0,0.0,0.0,0.0,0.0,0.0,0.0,0.0,0.0,0.0,0.0,0.0,0.0,0.0,0.0,0.0,0.0,0.0,0.0,0.0,0.0,0.0,0.0,0.0,0.0,0.0,0.0,0.0,0.0,0.0,0.0,0.0,0.0,0.0,0.0,0.0,0.0,0.0,0.0,0.0,0.0,0.0,0.0,0.0,0.0,0.0,0.0,0.0,0.0,0.0,0.0,0.0,0.0,0.0,0.0,0.0,0.0,0.0,0.0,0.0,0.0,0.0,0.0,0.0,0.0,0.0,0.0,0.0,0.0,0.0,0.0,0.0,0.0,0.0,0.0,0.0,0.0,0.0,0.0,0.0,0.0,2.8242,2.9805,3.0898,3.0898,2.953,2.8901,2.9603,2.7492,2.6217,2.6448,0.0,0.0,0.0,0.0,0.0,0.0,0.0,0.0,0.0,0.0,0.0,0.0,0.0,0.0,0.0,0.0,0.0,0.0,0.0,0.0,0.0,0.0,0.0,0.0,0.0,0.0,0.0,0.0,0.0,0.0,0.0,0.0,0.0,0.0,0.0,0.0,0.0,0.0,0.0,0.0,0.0,0.0,0.0,0.0,0.0,0.0,0.0,0.0,0.0,0.0,0.0,0.0,0.0,0.0,0.0,0.0,0.0,0.0,0.0,0.0,1.7992,1.8135,0.0,0.0,0.0,0.0,0.0,0.0,0.0,0.0,0.0,0.0,0.0,0.0,0.0,0.0,0.0,0.0,0.0,0.0,0.0,0.0,0.0,0.0,0.0,0.0,0.0,0.0,0.0,0.0,0.0,0.0,0.0,0.0,0.0,0.0,0.0,0.0,0.0,0.0,0.0,0.0,2.8242,2.9805,3.0898,3.0898,3.0587,3.0296,3.0089,2.8663,2.7528,2.6908,2.582,0.0,0.0,0.0,0.0,0.0,0.0,0.0,0.0,0.0,0.0,0.0,0.0,0.0,0.0,0.0,0.0,0.0,0.0,0.0,0.0,0.0,0.0,0.0,0.0,0.0,0.0,0.0,0.0,0.0,0.0,0.0,0.0,0.0,0.0,0.0,0.0,0.0,0.0,0.0,0.0,0.0,0.0,0.0,0.0,0.0,0.0,0.0,0.0,0.0,0.0,0.0,0.0,0.0,0.0,0.0,0.0,0.0,0.0,0.0,1.8932,1.8563,0.0,0.0,0.0,0.0,0.0,0.0,0.0,0.0,0.0,0.0,0.0,0.0,0.0,0.0,0.0,0.0,0.0,0.0,0.0,0.0,0.0,0.0,0.0,0.0,0.0,0.0,0.0,0.0,0.0,0.0,0.0,0.0,0.0,0.0,0.0,0.0,0.0,0.0,0.0,0.0,2.8535,2.9941,3.0898,3.0898,3.0186,2.983,3.0177,2.8507,2.74,2.7331,2.6113,0.0,0.0,0.0,0.0,0.0,0.0,0.0,0.0,0.0,0.0,0.0,0.0,0.0,0.0,0.0,0.0,0.0,0.0,0.0,0.0,0.0,0.0,0.0,0.0,0.0,0.0,0.0,0.0,0.0,0.0,0.0,0.0,0.0,0.0,0.0,0.0,0.0,0.0,0.0,0.0,0.0,0.0,0.0,0.0,0.0,0.0,0.0,0.0,0.0,0.0,0.0,0.0,0.0,1.9669,1.9977,2.0187,2.0397,2.0964,2.1633,1.9932,1.9113,1.8959,1.8986,0.0,0.0,0.0,0.0,0.0,0.0,0.0,0.0,0.0,0.0,0.0,0.0,0.0,0.0,0.0,0.0,0.0,0.0,0.0,0.0,0.0,0.0,1.9635,2.0945,2.1451,2.1744,2.2116,0.0,0.0,0.0,0.0,0.0,0.0,0.0,0.0,0.0,0.0,0.0,2.884,3.0078,3.0898,3.0898,2.9648,2.9234,3.0237,2.8389,2.7317,2.7779,2.6699,2.584,0.0,0.0,0.0,0.0,0.0,0.0,0.0,0.0,0.0,0.0,0.0,0.0,0.0,0.0,0.0,0.0,0.0,0.0,0.0,0.0,0.0,0.0,0.0,0.0,0.0,0.0,0.0,0.0,0.0,0.0,0.0,0.0,1.7796,1.7809,0.0,0.0,0.0,0.0,0.0,0.0,0.0,0.0,0.0,0.0,0.0,0.0,0.0,1.8891,1.9214,1.9977,2.0374,2.0485,2.1256,2.1689,2.1697,2.1737,2.1969,2.2289,2.2016,0.0,2.0857,2.0956,0.0,0.0,0.0,0.0,0.0,0.0,0.0,0.0,0.0,0.0,0.0,0.0,0.0,0.0,0.0,0.0,0.0,0.0,0.0,0.0,0.0,0.0,2.0793,2.0794,2.169,2.2555,2.2602,2.3096,2.387,2.5049,2.4825,2.4958,0.0,0.0,0.0,0.0,0.0,0.0,2.8879,3.0078,3.0898,3.0898,3.0704,3.0626,3.0801,3.0112,2.9269,2.8281,2.7741,2.7076,2.6275,2.5493,0.0,0.0,0.0,0.0,0.0,0.0,0.0,0.0,0.0,0.0,0.0,0.0,0.0,0.0,0.0,0.0,0.0,0.0,0.0,0.0,0.0,0.0,0.0,0.0,0.0,0.0,0.0,0.0,0.0,1.7969,1.8449,1.8303,1.8584,1.8611,0.0,0.0,0.0,0.0,0.0,0.0,0.0,0.0,0.0,2.0374,2.0561,2.0949,2.159,2.1977,2.2338,2.2659,2.3046,2.3313,2.3474,2.3474,2.3541,2.3625,2.3625,2.3357,2.2818,2.1689,2.0593,1.9583,0.0,0.0,0.0,0.0,1.9517,1.9677,2.001,2.0147,2.0104,2.0037,0.0,0.0,0.0,0.0,0.0,0.0,0.0,2.033,2.0882,2.1309,2.1657,2.189,2.2389,2.28,2.28,2.2737,2.3006,2.4248,2.5454,2.6215,2.6014,2.662,0.0,0.0,0.0,2.9152,2.9941,3.0742,3.125,3.125,3.125,3.1152,3.0918,3.0469,2.9961,2.9394,2.8542,2.7761,2.7154,2.6763,2.6054,0.0,0.0,0.0,0.0,0.0,0.0,0.0,0.0,0.0,0.0,0.0,0.0,0.0,0.0,0.0,0.0,0.0,0.0,0.0,0.0,0.0,0.0,0.0,0.0,0.0,0.0,0.0,0.0,1.8918,1.9316,1.8985,1.9586,1.9776,0.0,0.0,0.0,0.0,0.0,0.0,2.0512,2.0975,2.1617,2.2465,2.2693,2.314,2.3839,2.3968,2.4222,2.4649,2.473,2.4877,2.5053,2.5053,2.5053,2.5053,2.5053,2.4877,2.4382,2.2472,2.1376,2.0842,2.0298,2.007,2.0124,2.0521,2.0691,2.0824,2.1296,2.1443,2.139,2.1077,2.0944,2.0815,2.0294,0.0,0.0,0.0,0.0,2.1091,2.2084,2.2325,2.2458,2.3014,2.3134,2.3134,2.3134,2.2979,2.3087,2.3823,2.5482,2.655,2.5919,2.6742,0.0,2.852,2.9082,2.9785,3.0762,3.1348,3.168,3.168,3.1582,3.1387,3.1074,3.0644,3.0332,3.0195,2.9297,2.8621,2.8191,2.7586,2.6269,2.422,0.0,0.0,0.0,0.0,0.0,0.0,0.0,0.0,0.0,0.0,0.0,0.0,0.0,0.0,0.0,0.0,0.0,0.0,0.0,0.0,0.0,0.0,0.0,0.0,0.0,0.0,0.0,0.0,0.0,2.0184,2.1162,0.0,0.0,0.0,0.0,2.1823,2.2385,2.2974,2.3549,2.3834,2.4275,2.4877,2.4954,2.5077,2.5398,2.573,2.5877,2.5917,2.6185,2.6293,2.6306,2.6306,2.6306,2.6306,2.6306,2.5972,2.5331,2.3799,2.302,2.2706,2.2084,2.1857,2.1857,2.1884,2.2071,2.2278,2.2305,2.2318,2.2411,2.2958,2.2966,2.2706,2.2352,2.2271,0.0,0.0,2.2512,2.2853,2.3132,2.3225,2.3305,2.3683,2.3763,2.3763,2.3763,2.3928,2.4121,2.4167,2.3741,2.4224,2.7006,0.0,2.7533,2.9269,3.0263,3.082,3.0879,3.1651,3.2159,3.2159,3.1758,3.1474,3.1455,3.1094,3.0664,3.0234,3.0137,2.9902,2.952,2.7242,2.6172,2.6534,2.4501,0.0,0.0,0.0,0.0,0.0,0.0,0.0,0.0,0.0,0.0,0.0,0.0,0.0,0.0,0.0,0.0,0.0,0.0,0.0,0.0,0.0,0.0,0.0,0.0,0.0,0.0,0.0,0.0,2.2185,2.3052,0.0,2.2812,2.3073,2.338,2.3639,2.4235,2.4823,2.5424,2.5732,2.6066,2.6519,2.6533,2.6573,2.664,2.6787,2.6841,2.6841,2.6948,2.6988,2.6988,2.6988,2.6988,2.6988,2.6988,2.6881,2.6587,2.5865,2.485,2.3688,2.3322,2.3174,2.3188,2.334,2.3474,2.3594,2.3745,2.3812,2.3812,2.3888,2.3688,2.3469,2.3362,2.3287,2.3327,2.3514,2.3647,2.3834,2.4329,2.4449,2.4529,2.4823,2.489,2.489,2.489,2.497,2.4918,2.4526,2.4667,2.5315,2.6863,2.7739,2.8776,3.0558,3.1094,3.1484,3.2051,3.2383,3.2609,3.2609,3.2441,3.2109,3.1562,3.1387,3.1113,3.0664,3.0644,2.9997,2.8506,2.7591,2.5865,2.3146,2.31,2.3051,0.0,0.0,0.0,0.0,0.0,0.0,0.0,0.0,0.0,0.0,0.0,0.0,0.0,0.0,0.0,0.0,0.0,0.0,0.0,0.0,0.0,0.0,0.0,0.0,0.0,2.2645,2.3794,2.3901,2.505,2.5625,2.513,2.5451,2.5772,2.592,2.6387,2.6921,2.7415,2.7615,2.7816,2.8045,2.8058,2.8005,2.7869,2.7869,2.7869,2.7869,2.7869,2.7816,2.7764,2.7764,2.7697,2.7603,2.7603,2.755,2.7443,2.7201,2.6373,2.5197,2.4847,2.4686,2.4713,2.4877,2.4943,2.497,2.5157,2.5224,2.5197,2.501,2.4743,2.4539,2.4539,2.4472,2.4422,2.4716,2.4796,2.489,2.5315,2.5409,2.5436,2.5491,2.5518,2.5518,2.5518,2.5518,2.5371,2.4877,2.564,2.6366,2.6367,2.7637,2.8973,2.9947,3.0211,3.0519,3.1117,3.1302,3.1561,3.208,3.1877,3.1712,3.1717,3.1601,3.1348,3.0918,3.0421,2.945,2.7926,2.6806,2.4769,2.1701,2.201,2.2204,2.2168,0.0,0.0,0.0,0.0,0.0,0.0,0.0,0.0,0.0,0.0,0.0,0.0,0.0,0.0,0.0,0.0,0.0,0.0,0.0,0.0,0.0,0.0,0.0,2.3081,2.4476,2.5491,2.5302,2.7041,2.7924,2.7,2.8003,2.8684,2.8684,2.8895,2.9175,2.9526,2.9526,2.9513,2.9513,2.9499,2.9352,2.9028,2.9028,2.9028,2.9028,2.9028,2.8868,2.8631,2.8631,2.847,2.8219,2.8205,2.8031,2.7722,2.7722,2.7549,2.7282,2.664,2.6413,2.6413,2.6413,2.6413,2.6413,2.6413,2.6413,2.6413,2.6413,2.6265,2.6038,2.6038,2.5798,2.5625,2.5957,2.6038,2.6038,2.6038,2.6024,2.5944,2.5625,2.5545,2.5545,2.5545,2.5545,2.5451,2.5157,2.6416,2.7081,2.5582,2.6886,2.7949,2.7442,2.7753,0.0,2.8031,2.8427,2.9226,3.0664,3.0072,3.026,3.2005,3.1677,3.117,3.0782,2.9316,2.8317,2.7878,2.4799,2.2946,2.2632,2.1359,2.1137,2.1895,0.0,0.0,0.0,0.0,0.0,0.0,0.0,0.0,0.0,0.0,0.0,0.0,0.0,0.0,0.0,0.0,0.0,0.0,0.0,0.0,0.0,2.5155,2.6065,2.5262,2.6253,2.7468,2.847,2.9316,2.9864,2.9993,3.0127,3.0274,3.0488,3.0381,3.0434,3.0728,3.0341,3.0159,3.0159,2.9913,2.9753,2.9628,2.9628,2.9628,2.9628,2.9628,2.9526,2.9245,2.9245,2.9072,2.8778,2.8577,2.843,2.8337,2.8152,2.8018,2.7884,2.7296,2.7068,2.7068,2.7068,2.7068,2.7068,2.7068,2.7068,2.7068,2.7068,2.7015,2.6948,2.6948,2.6894,2.68,2.6921,2.6948,2.6948,2.6948,2.6747,2.656,2.644,2.6293,2.6146,2.6146,2.6146,2.5999,2.5491,2.6876,2.7791,2.6596,2.6662,2.7289,2.8369,2.8637,2.8654,2.8459,2.961,3.0672,3.1157,3.0926,3.0759,3.0889,2.9484,2.8154,2.7044,2.6648,2.5824,2.4515,2.3581,2.2417,2.0923,2.1177,2.1566,0.0,0.0,0.0,0.0,0.0,0.0,0.0,0.0,0.0,0.0,0.0,0.0,0.0,0.0,0.0,0.0,0.0,0.0,0.0,0.0,0.0,0.0,2.7416,2.8553,2.8406,2.8831,2.9539,3.0528,3.1069,3.1457,3.1744,3.1623,3.1543,3.1597,3.1436,3.141,3.1583,3.1276,3.1089,3.1089,3.0929,3.0768,3.0648,3.0648,3.0648,3.0648,3.0528,3.0314,3.0034,2.9958,2.9686,2.9348,2.9098,2.8978,2.8951,2.8644,2.8524,2.85,0.0,0.0,0.0,0.0,2.767,2.767,2.767,2.767,2.767,2.767,2.759,2.7483,2.7483,2.7403,2.7336,2.7456,2.7483,2.7483,2.7483,2.7321,2.7161,2.7041,2.6881,2.68,2.68,2.6653,2.644,2.5972,2.6682,0.0,2.6401,2.6458,2.6733,2.6944,2.6979,2.6919,2.6792,2.7536,2.8366,2.906,2.8793,2.8736,2.9148,2.8064,0.0,0.0,0.0,2.4022,2.218,2.2088,0.0,0.0,0.0,2.1414,2.1471,2.2631,0.0,0.0,2.4074,2.5909,0.0,0.0,0.0,0.0,0.0,0.0,0.0,0.0,0.0,0.0,0.0,0.0,0.0,0.0,0.0,0.0,2.9704,3.0962,3.1845,3.1717,3.1637,3.1845,3.2326,3.2661,3.2688,3.2688,3.2581,3.2265,3.2225,3.2198,3.2198,3.2171,0.0,0.0,0.0,3.2024,3.1818,3.1818,3.1818,3.1818,3.1503,3.1223,3.0929,3.0721,3.0381,3.0047,2.9753,2.9606,2.9566,2.9259,2.9081,2.8988,2.8513,2.8286,2.8286,2.8286,2.8259,2.8232,2.8232,0.0,0.0,2.8179,2.8005,2.7749,2.7749,2.7575,2.7456,2.7669,2.7749,2.7749,2.7749,2.7722,2.7629,2.7416,2.7336,2.7309,2.7309,2.7028,2.6734,2.6453,2.6198,2.5904,2.5558,2.6254,2.6265,2.4557,2.4302,2.4275,2.4209,2.4148,2.4643,2.5988,2.5506,0.0,2.7263,2.6939,2.6455,2.5973,2.45,2.2793,2.0922,2.0886,2.09,2.09,2.1096,2.1109,2.0953,2.1475,2.1783,2.1929,2.3898,2.643,0.0,0.0,0.0,0.0,0.0,0.0,0.0,0.0,0.0,0.0,0.0,0.0,0.0,0.0,0.0,3.0034,3.1363,3.2487,3.3334,3.3614,3.3467,3.2799,3.2826,3.2986,3.3213,3.324,3.3213,3.316,3.2946,3.2812,3.2812,3.2634,3.2514,3.2514,3.2514,3.2487,3.2433,3.2433,3.2433,3.242,3.2367,0.0,3.1851,3.1784,3.1476,3.0909,3.0662,3.0408,3.0212,2.9873,2.9606,2.9366,2.9005,2.8871,2.8871,2.8871,2.8724,2.8524,2.8524,2.8393,2.8179,2.8179,2.8138,2.8098,2.8098,2.8058,0.0,2.8085,2.8098,2.8098,2.8098,2.7883,2.7682,2.7629,2.7483,2.7309,2.7309,2.7028,2.6734,2.6453,2.6198,2.5904,2.5558,2.5661,2.5571,2.5018,2.4917,2.4743,2.4262,2.5361,2.6367,2.6753,2.6563,2.6524,2.6737,2.508,2.3794,2.3222,2.2874,2.2394,2.177,2.1964,2.2084,2.2084,2.1911,2.205,2.2479,2.2586,2.3014,2.3661,2.3173,2.4988,0.0,0.0,0.0,0.0,0.0,0.0,0.0,0.0,0.0,0.0,0.0,2.7015,2.8205,0.0,3.0742,3.1931,3.2986,3.3865,3.432,3.4576,3.4482,3.3734,3.3654,3.3708,3.3855,3.3868,3.3868,3.3868,3.3734,3.3654,3.3654,3.3374,3.3263,3.3263,3.3116,3.2973,3.2973,3.2973,3.2973,3.2973,3.2875,3.2728,3.2532,3.2385,3.2206,3.1864,3.157,3.1289,3.1029,3.0541,3.0181,2.9972,2.9913,2.9508,2.9001,2.9001,2.8908,2.8761,2.8657,2.8604,2.8537,2.8286,2.8286,2.8393,2.8232,2.8179,2.8179,2.8179,2.8179,2.8179,2.8179,2.8072,2.7965,2.7965,2.7844,2.775,2.775,2.7403,2.7001,2.6894,2.6587,2.6346,2.6199,2.6293,2.6146,2.5411,2.5291,2.5184,2.4903,2.5479,2.5977,2.605,2.5836,2.5681,2.5597,2.4451,2.3567,2.3126,2.31,2.3033,2.292,2.302,2.31,2.31,2.31,2.3247,2.3527,2.387,2.4275,2.4887,2.5497,2.7211,0.0,0.0,0.0,0.0,0.0,0.0,0.0,2.4449,2.5424,2.676,2.8045,2.9369,3.0702,3.1824,3.2826,3.367,3.4509,3.5083,3.5097,3.5351,3.5364,3.4883,3.4629,3.4469,3.4416,3.4402,3.4389,3.4322,3.4322,3.4322,3.4322,3.4095,3.3975,3.3975,3.3721,3.3587,3.3587,3.3587,3.3561,3.3494,3.3267,3.312,3.3053,3.2875,3.2728,3.2661,3.2318,3.2051,3.1845,3.1209,3.0868,3.0667,3.0742,3.0221,2.9322,2.9268,2.9175,2.9055,2.8858,2.8855,2.8921,2.8513,2.8457,2.8564,2.8353,2.8232,2.8179,2.8179,2.8179,2.8179,2.8179,2.8179,2.8179,2.8179,2.8179,2.8179,2.8179,2.7764,2.7389,2.7389,2.7108,2.6907,2.6907,2.7108,2.6948,2.5838,2.5678,2.5638,2.5531,2.5304,2.5157,2.5157,2.4943,2.4773,2.4773,2.4596,2.4356,2.4128,2.4205,2.4231,2.4231,2.4285,2.4312,2.4312,2.4516,2.4649,2.4716,2.5184,2.5571,2.5891,2.8327,3.0115,2.2298,2.2652,2.3425,2.4449,2.4957,2.5825,0.0,2.839,2.8591,3.0287,3.1183,3.1957,3.287,3.3627,3.4362,3.5191,3.5685,3.6019,3.6273,3.6525,3.6659,3.6592,3.5725,3.5004,3.4788,3.471,3.4603,3.4336,3.4322,3.4322,3.4322,3.4282,3.4269,3.4269,3.4242,3.4215,3.4215,3.4215,3.4082,3.3828,3.3801,3.3641,3.336,3.3334,3.3173,3.2969,3.2674,3.2527,3.2447,3.1858,3.1604,3.1524,3.0982,3.0715,3.0568,3.0346,2.9887,2.9432,2.9392,2.9232,2.8988,2.8921,2.8791,2.8604,2.8564,2.8406,2.8179,2.8179,2.8179,2.8179,2.8179,2.8179,2.8179,2.8179,2.8179,2.8179,2.8179,2.7924,2.7655,2.7655,2.7415,2.7255,2.7255,2.7282,2.7081,2.6386,2.6293,2.6106,2.5585,2.5478,2.5464,2.5464,2.5438,2.5411,2.5411,2.5384,2.5358,2.5317,2.561,2.5757,2.5757,2.5998,2.6092,2.6092,2.6132,2.6266,2.6533,2.66,2.6787,2.7149,2.9337,3.1074,2.4583,2.517,2.5732,2.6265,2.7348,2.8577,2.9526,3.0074,3.0795,3.2211,3.3253,3.4122,3.4843,3.5311,3.5765,3.6245,3.6647,3.6874,3.6981,3.7422,3.7529,3.6952,3.6647,3.6286,3.5819,3.5778,3.5658,3.5364,3.5338,3.5338,3.5338,3.5017,3.483,3.483,3.4496,3.4322,3.4322,3.4322,3.4255,3.4135,3.4135,3.3975,3.3694,3.3694,3.3521,3.3213,3.2969,3.2848,3.2795,3.2158,3.1824,3.1684,3.1396,3.1089,3.0755,3.052,3.0253,2.9985,2.9606,2.9513,2.9455,2.9108,2.9072,2.9058,2.8711,2.8524,2.8419,2.8232,2.8179,2.8179,2.8179,2.8179,2.8179,2.8179,2.8179,2.8179,2.8179,2.7951,2.7696,2.7696,2.7602,2.7522,2.7522,2.7697,2.767,2.7215,2.7014,2.6854,2.656,2.6533,2.6533,2.6533,2.6533,2.6533,2.6533,2.6533,2.6533,2.6533,2.6693,2.676,2.676,2.6881,2.6894,2.6894,2.6894,2.7001,2.7081,2.7081,2.7907,2.9516,3.1657,3.3608,2.6239,2.7054,2.7777,2.8179,2.9717,3.1109,3.1022,3.1797,3.2826,3.3921,3.483,3.5645,3.6313,3.662,3.6874,3.7235,3.7555,3.7742,3.7742,3.8093,3.8254,3.8114,3.7559,3.7286,3.7551,3.7005,3.654,3.6326,3.6313,3.6313,3.6313,3.5832,3.5551,3.5551,3.507,3.4803,3.4803,3.4723,3.4643,3.4563,3.4482,3.4295,3.4002,3.3921,3.3761,3.3521,3.3227,3.3093,3.3053,3.2545,3.2225,3.2059,3.1898,3.153,3.1102,3.0742,3.0547,3.036,2.9967,2.9927,2.9967,2.9539,2.9499,2.9513,2.9005,2.8791,2.8657,2.8406,2.8312,2.8286,2.8205,2.8179,2.8179,2.8179,2.8179,2.8179,2.8179,2.8018,2.7816,2.7816,2.7816,2.7816,2.7816,2.8045,2.8112,2.7856,2.7684,2.7496,2.7322,2.7309,2.7309,2.7309,2.7309,2.7336,2.7416,2.7349,2.7376,2.7536,2.7469,2.7456,2.755,2.755,2.755,2.755,2.755,2.755,2.755,2.755,2.8784,3.1171,3.3331,3.547,2.664,2.7669,2.8911,3.0327,3.1797,3.3053,3.3627,3.4229,3.4858,3.5805,3.6073,3.6313,3.7195,3.7342,3.7585,3.8174,3.8477,3.8691,3.8691,3.8437,3.899,4.0859,3.8361,3.7537,4.0051,3.825,3.6885,3.6901,3.6901,3.6901,3.6901,3.662,3.6473,3.6473,3.6179,3.6073,3.6073,3.5738,3.5444,3.5164,3.4883,3.4589,3.4295,3.4015,3.3881,3.3855,3.3534,3.34,3.3374,3.308,3.2946,3.2879,3.2305,3.2078,3.1998,3.141,3.0849,3.044,3.0662,3.0627,3.0386,3.0373,3.0127,2.9847,2.9553,2.9259,2.8921,2.8671,2.8591,2.8524,2.8259,2.8179,2.8179,2.8179,2.8179,2.8179,2.8179,2.8179,2.8165,2.8165,2.8165,2.8165,2.8165,2.8179,2.8179,2.8179,2.8165,2.7951,2.7376,2.7309,2.7309,2.7309,2.7309,2.7416,2.7669,2.7469,2.755,2.8125,2.7884,2.7816,2.8138,2.8165,2.8165,2.8165,2.8165,2.8165,2.8165,2.8165,2.9258,3.1418,3.366,3.5822,2.827,2.9726,3.1183,3.2265,3.3788,3.5084,3.5284,3.5792,3.6232,3.658,3.65,3.6433,3.6754,3.6794,3.7048,3.7849,3.8397,3.874,3.8913,3.9207,3.9129,3.8418,3.9374,3.9396,3.7709,3.7006,3.6794,3.7195,3.7235,3.7301,3.7459,3.7235,3.6981,3.6794,3.6513,3.6273,3.6072,3.5979,3.5778,3.5471,3.499,3.4762,3.4603,3.4309,3.4068,3.3881,3.3774,3.3601,3.3387,3.3093,3.2973,3.2933,3.2594,3.2447,3.2393,3.1957,3.1557,3.1229,3.0902,3.0728,3.0648,3.0648,3.0448,3.0194,3.0132,2.9726,2.9312,2.9219,2.9045,2.8788,2.8524,2.8457,2.8404,2.8232,2.8179,2.8179,2.8179,2.8179,2.8179,2.8179,2.8179,2.8245,2.8417,2.8457,2.8511,2.8711,2.8446,2.8112,2.7911,2.7884,2.7965,2.8136,2.815,2.827,2.8521,2.8323,2.8323,2.8711,2.8457,2.843,2.8724,2.8551,2.8457,2.8457,2.8286,2.8179,2.8179,2.8179,2.9286,3.1433,3.3676,3.5822,3.0132,3.1637,3.3,3.4095,3.5458,3.6868,3.7918,3.8388,3.8874,3.989,3.8929,3.8089,3.8923,3.826,3.8132,3.9828,3.9715,3.9693,4.0345,3.9528,3.9239,4.0137,4.0925,4.0877,3.9494,3.862,3.7949,3.7574,3.8717,3.9036,3.8174,3.7956,3.7702,3.7422,3.7128,3.6874,3.6687,3.6473,3.6179,3.5778,3.5297,3.507,3.5057,3.4656,3.4376,3.4189,3.3975,3.3774,3.3561,3.3253,3.3133,3.3106,3.2862,3.2755,3.2714,3.2372,3.2193,3.1952,3.1316,3.1036,3.0942,3.0942,3.0822,3.0648,3.0541,3.0247,2.9913,2.97,2.9499,2.9215,2.8815,2.8721,2.8711,2.8511,2.85,2.8473,2.8379,2.8433,2.8473,2.8366,2.8526,2.87,2.8751,2.8845,2.8978,2.9165,2.8871,2.862,2.8513,2.8419,2.8513,2.8871,2.8818,2.8885,2.9135,2.8925,2.8801,2.8988,2.8815,2.8801,2.8988,2.8815,2.8721,2.8721,2.8564,2.846,2.8353,2.846,2.9564,3.1613,3.3955,3.6106,3.2504,3.3819,3.489,3.6274,3.729,3.8695,4.1576,4.2096,4.2638,4.5152,4.2736,4.0845,4.2877,4.1146,4.0475,4.3526,4.2419,4.1601,4.2926,3.9954,3.9748,4.5594,4.3226,4.2267,4.5092,4.3069,4.0576,3.8278,4.0974,4.169,3.9151,3.8829,3.8624,3.8348,3.7996,3.7849,3.7809,3.7235,3.6687,3.6112,3.5819,3.5605,3.5551,3.5057,3.4842,3.4788,3.4175,3.3921,3.3868,3.3561,3.3427,3.3387,3.3106,3.3,3.3009,3.2728,3.2621,3.2541,3.1965,3.1517,3.1276,3.1276,3.1249,3.1183,3.0915,3.0822,3.0675,3.014,2.9967,2.9833,2.9215,2.9068,2.9055,2.9041,2.9041,2.8961,2.8711,2.8885,2.8948,2.8711,2.9125,2.9446,2.9108,2.9352,2.9553,2.9553,2.9539,2.9419,2.9055,2.8818,2.8871,2.9459,2.9272,2.9232,2.9526,2.9285,2.9068,2.9068,2.9055,2.9041,2.9068,2.9041,2.9041,2.9068,2.9028,2.8881,2.8657,2.8868,2.9936,3.1705,3.4307,3.6455,4.0203,4.1745,4.3073,4.4004,4.4719,4.5432,4.6195,4.6024,4.5008,4.272,4.0421,3.8262,3.6149,3.7431,3.9441,4.1312,4.3977,4.6325,4.7517,4.7007,4.6796,4.7534,4.8713,4.8789,4.6897,4.7934,4.684,4.231,4.0419,4.0456,4.276,4.064,3.9132,3.8611,3.8544,3.8233,3.7809,3.7448,3.7088,3.6672,3.6433,3.6059,3.5631,3.5471,3.5177,3.4802,3.4655,3.4347,3.3881,3.3801,3.3627,3.34,3.3334,3.3293,3.3267,3.2973,3.2915,3.2862,3.25,3.2131,3.1877,3.1877,3.1583,3.1249,3.1396,3.1142,3.0808,3.0875,3.0742,3.0488,3.0114,3.002,2.9967,2.974,2.9655,2.9619,2.9325,2.9486,2.9606,2.9312,2.9784,3.0159,3.0034,3.0261,3.0461,3.0461,3.0319,2.9998,2.9432,2.9299,2.9486,3.0119,3.0105,3.014,3.0434,3.0194,3.002,3.002,2.982,2.9793,3.002,2.9806,2.9793,3.002,2.9593,2.9339,2.9259,2.9112,2.9252,2.9762,3.2093,3.4292,4.4378,4.5828,4.6972,4.7334,4.7756,4.8128,4.8318,4.7225,4.5613,4.3375,4.0143,3.7636,3.7344,3.7721,3.9532,4.4127,4.6051,4.7928,5.0669,5.0077,4.9848,5.1044,5.23,5.2369,5.0682,5.1592,5.1219,4.8584,4.362,4.1196,4.2202,4.0643,3.9599,3.9118,3.906,3.8838,3.821,3.7929,3.7595,3.7301,3.6845,3.6485,3.6138,3.5939,3.5578,3.5137,3.5004,3.4748,3.4269,3.4135,3.3975,3.3801,3.3668,3.3614,3.3587,3.328,3.3173,3.3146,3.2986,3.2732,3.2465,3.2332,3.1984,3.1664,3.2005,3.1778,3.1396,3.157,3.149,3.1263,3.0849,3.0742,3.0702,3.0528,3.0394,3.0261,3.01,3.0181,3.0287,3.0261,3.0515,3.0822,3.1076,3.1049,3.1022,3.1156,3.1082,3.0855,3.0533,3.0145,3.0087,3.0675,3.0621,3.0662,3.0955,3.0715,3.06,3.06,3.0394,3.0381,3.0587,3.0394,3.0381,3.0541,3.0221,2.9993,2.9918,2.982,2.9628,2.9476,3.1859,3.4021,4.7517,4.8622,4.9386,4.9326,4.935,4.944,4.9716,4.7564,4.5397,4.4929,4.0663,3.796,4.1089,3.9799,4.0805,4.8699,4.8478,4.8908,5.3413,5.194,5.1696,5.538,5.505,5.474,5.5416,5.453,5.4177,5.4788,4.8657,4.387,4.1666,4.1398,4.0995,4.0306,3.9864,3.9346,3.8838,3.8584,3.8321,3.7929,3.7408,3.7032,3.6885,3.6433,3.6006,3.5672,3.5418,3.5124,3.4855,3.4549,3.4389,3.4295,3.4042,3.3921,3.3855,3.3574,3.3454,3.3414,3.3414,3.324,3.2986,3.2741,3.2447,3.2211,3.2514,3.242,3.2158,3.2158,3.2158,3.2051,3.153,3.1396,3.1396,3.1396,3.1209,3.1009,3.0929,3.0915,3.1009,3.1343,3.1396,3.1557,3.2078,3.1744,3.149,3.1791,3.1831,3.1831,3.1831,3.1136,3.0795,3.1343,3.1169,3.1129,3.1383,3.1129,3.0955,3.0915,3.0915,3.0915,3.0915,3.0942,3.0982,3.1022,3.0955,3.0782,3.0574,3.0702,3.0528,3.0079,3.2667,3.4764,5.5069,5.5774,5.6253,5.6579,5.5894,5.4992,5.4359,5.0581,4.619,4.2587,3.9837,3.7606,3.6146,3.9732,4.424,4.8214,5.1607,5.4855,5.8185,5.8193,5.829,5.9359,5.9339,5.9281,5.9397,5.6992,5.5493,5.5598,5.2048,5.0445,5.1837,4.95,4.6803,4.3915,4.1044,3.9559,3.9452,3.9386,3.9092,3.8513,3.8464,3.7889,3.6885,3.6779,3.65,3.5992,3.5939,3.5618,3.5124,3.507,3.4763,3.4322,3.4269,3.4095,3.3881,3.3828,3.3641,3.3414,3.3414,3.3374,3.3293,3.3,3.2755,3.2527,3.2581,3.2554,3.2514,3.2514,3.2514,3.25,3.2393,3.2367,3.2367,3.2367,3.2326,3.2152,3.1671,3.1564,3.1724,3.226,3.2367,3.2393,3.25,3.2433,3.238,3.2433,3.2447,3.2447,3.2447,3.2051,3.1931,3.2326,3.2326,3.2313,3.2353,3.2051,3.177,3.1577,3.1564,3.1564,3.1564,3.1744,3.1984,3.2286,3.1818,3.1537,3.1483,3.1009,3.0742,3.0681,3.3176,3.5304,5.7656,5.8203,5.8496,5.8262,5.7207,5.527,5.1663,4.8359,4.4677,3.9834,3.8086,3.743,3.7457,3.9672,4.3052,4.7966,5.0385,5.3348,5.8155,5.9004,5.9629,6.0899,6.0898,6.0859,6.1074,5.9571,5.855,5.855,5.7194,5.444,5.0195,4.6763,4.4193,4.2555,4.0738,3.9813,3.9813,3.9666,3.9452,3.9159,3.8865,3.8379,3.7849,3.7529,3.7088,3.6513,3.6513,3.6193,3.5658,3.5658,3.5391,3.499,3.483,3.4603,3.4322,3.4175,3.3921,3.3654,3.3654,3.3547,3.3387,3.3253,3.3013,3.2848,3.2946,3.2942,3.2848,3.3009,3.3,3.2959,3.2862,3.2822,3.2822,3.2822,3.2822,3.2701,3.2273,3.23,3.2433,3.2567,3.2714,3.2822,3.2822,3.2701,3.2648,3.2795,3.2822,3.2822,3.2822,3.2772,3.2719,3.2607,3.2594,3.2594,3.2594,3.246,3.2326,3.2179,3.2179,3.2179,3.2179,3.2313,3.2447,3.2594,3.2313,3.2179,3.2179,3.169,3.1396,3.1296,3.2255,3.4472,5.8301,5.8828,5.9004,5.8203,5.6836,5.4105,4.8287,4.5183,4.226,3.7845,3.6744,3.7365,3.9968,4.0411,4.232,4.8065,4.8974,5.1024,5.6936,5.8262,5.9414,6.1484,6.1601,6.1601,6.1836,6.1543,6.1328,6.1269,6.0535,5.65,4.8225,4.4411,4.2166,4.153,4.0589,4.0087,4.0087,3.9893,3.9746,3.968,3.9239,3.8886,3.8798,3.825,3.7702,3.7179,3.7099,3.6834,3.6353,3.6286,3.6046,3.5698,3.5404,3.507,3.4788,3.4496,3.4229,3.3975,3.3975,3.3814,3.3601,3.3601,3.336,3.312,3.3347,3.3253,3.312,3.3347,3.3414,3.336,3.3133,3.3066,3.3066,3.3066,3.3026,3.2982,3.2808,3.2915,3.2933,3.2808,3.2969,3.3066,3.3066,3.2929,3.2862,3.304,3.3066,3.3066,3.3066,3.3267,3.324,3.2835,3.2781,3.2781,3.2781,3.2728,3.2688,3.2688,3.2688,3.2688,3.2688,3.2741,3.2781,3.2781,3.2714,3.2688,3.2688,3.2345,3.2078,3.1898,3.2716,3.4904,5.8363,5.8828,5.9062,5.8594,5.6621,5.3596,4.8928,4.3844,3.9548,3.7793,3.6883,3.7318,4.0289,4.3154,4.6034,4.897,5.0386,5.2521,5.6685,5.832,5.9765,6.1484,6.2343,6.2695,6.2363,6.2305,6.207,6.166,5.8689,5.6072,5.4311,5.0863,4.7641,4.4743,4.1897,4.0441,4.0441,4.0401,4.0254,3.994,3.992,3.9567,3.906,3.874,3.8464,3.8174,3.7849,3.7555,3.7235,3.6981,3.654,3.6006,3.5698,3.5244,3.4815,3.4788,3.4536,3.4282,3.4282,3.4255,3.4242,3.4242,3.3841,3.3374,3.34,3.3387,3.3374,3.34,3.3414,3.34,3.3374,3.3374,3.3374,3.3374,3.3173,3.304,3.328,3.3146,3.3053,3.328,3.336,3.3374,3.3374,3.3347,3.3334,3.3374,3.3374,3.3374,3.3374,3.3387,3.3387,3.3334,3.3334,3.3334,3.3334,3.3093,3.2933,3.2933,3.2933,3.2933,3.2933,3.3187,3.3334,3.3334,3.3066,3.2933,3.2933,3.2701,3.2541,3.2611,3.7173,3.9075,5.8011,5.8828,5.9062,5.8597,5.6387,5.2757,4.6858,4.3269,4.0373,3.7625,3.7743,3.9287,4.2439,4.4057,4.5092,4.5568,4.7332,4.9441,5.1481,5.3812,5.6504,5.9805,6.0957,6.1758,6.2695,6.2988,6.2871,6.2187,5.8728,5.5614,5.3065,4.9402,4.5831,4.2406,4.1121,4.0481,4.0481,4.0481,4.0401,4.0294,4.0107,3.986,3.9607,3.914,3.8766,3.8504,3.8223,3.7929,3.7635,3.7342,3.6981,3.654,3.6086,3.5645,3.5271,3.5084,3.4843,3.4589,3.4589,3.4469,3.4322,3.4322,3.4162,3.3961,3.3961,3.3961,3.3961,3.3961,3.3961,3.3961,3.3961,3.3828,3.3694,3.3694,3.3467,3.3267,3.3387,3.332,3.328,3.3387,3.3414,3.3414,3.3414,3.3414,3.348,3.3668,3.3534,3.348,3.3681,3.3534,3.3414,3.3414,3.3414,3.3414,3.3414,3.3307,3.324,3.324,3.324,3.324,3.324,3.3347,3.3414,3.3414,3.3293,3.324,3.324,3.2946,3.2848,3.2897,3.6304,3.8512,5.709,5.8359,5.8887,5.8437,5.6172,5.2234,4.5413,4.3082,4.1337,3.7705,3.8595,4.0877,4.3839,4.4609,4.462,4.4145,4.5852,4.7699,4.8953,5.1329,5.4219,5.7793,5.8945,6.0215,6.2051,6.3105,6.3398,6.2637,6.0085,5.6441,5.1758,4.8926,4.5381,4.0784,4.0615,4.0548,4.0481,4.0481,4.0481,4.0481,4.0254,4.0174,4.0147,3.964,3.9247,3.9092,3.8691,3.8397,3.8183,3.7782,3.7422,3.7008,3.6513,3.6099,3.5738,3.5538,3.5324,3.5203,3.5203,3.5017,3.4843,3.4843,3.4843,3.4843,3.4843,3.4589,3.4322,3.4322,3.4322,3.4322,3.4322,3.4108,3.3881,3.3881,3.3641,3.3414,3.3414,3.348,3.3547,3.3547,3.3627,3.3681,3.3681,3.3681,3.3761,3.3975,3.3828,3.3761,3.3988,3.3814,3.3681,3.3681,3.3601,3.3507,3.3414,3.3414,3.3414,3.3414,3.3414,3.3414,3.3414,3.3414,3.3414,3.3414,3.3414,3.3414,3.3414,3.32,3.3106,3.3192,3.5565,3.8276,5.5319,5.7172,5.8418,5.8023,5.5937,5.2202,4.5264,4.3245,4.1746,3.8029,3.9201,4.1616,4.3955,4.5098,4.5801,4.6187,4.7363,4.8945,5.1084,5.2539,5.4004,5.5709,5.6719,5.8086,6.0197,6.2402,6.3515,6.3047,6.2577,5.9167,5.1895,5.144,4.8224,4.1154,4.0909,4.0762,4.0481,4.0481,4.0481,4.0481,4.0481,4.0481,4.0468,4.0147,3.9967,3.994,3.9353,3.91,3.9033,3.8504,3.7946,3.7342,3.6992,3.658,3.6072,3.6059,3.6113,3.6113,3.6113,3.6059,3.6059,3.6059,3.6059,3.6059,3.6059,3.5244,3.4322,3.4322,3.4322,3.4322,3.4322,3.4108,3.3881,3.3881,3.3641,3.3414,3.3414,3.3654,3.3881,3.3881,3.4108,3.4309,3.4309,3.4309,3.4309,3.4322,3.4309,3.4309,3.4322,3.4309,3.4309,3.4309,3.4055,3.3761,3.344,3.3414,3.3414,3.3414,3.3414,3.3414,3.3414,3.3414,3.3414,3.3414,3.3414,3.3414,3.3414,3.3414,3.3414,3.345,3.6065,3.9596,5.1484,5.3047,5.4023,5.3574,5.2422,5.0166,4.5537,4.36,4.2118,3.9829,4.0204,4.1708,4.4323,4.5293,4.5551,4.5053,4.6801,4.8034,4.7585,5.0919,5.4219,5.6543,6.0449,6.334,6.4236,6.4492,6.4375,6.3904,5.9076,5.5026,5.2399,4.7724,4.382,4.0983,4.0909,4.0762,4.0481,4.0481,4.0481,4.0481,4.0481,4.0481,4.0481,4.0174,3.9967,4.0,3.9567,3.9287,3.906,3.8731,3.8223,3.7635,3.7128,3.6659,3.634,3.6139,3.6072,3.6072,3.6072,3.6072,3.6072,3.6072,3.6072,3.6072,3.6072,3.5819,3.5471,3.5271,3.5217,3.5164,3.4963,3.4549,3.4189,3.4189,3.3948,3.3734,3.3734,3.3975,3.4189,3.4189,3.4255,3.4322,3.4322,3.4322,3.4389,3.4589,3.4456,3.4389,3.4603,3.4442,3.4322,3.4322,3.4242,3.4068,3.3761,3.3534,3.3414,3.3414,3.3414,3.3414,3.3414,3.3414,3.3414,3.3414,3.3414,3.3414,3.3414,3.3414,3.4336,3.6129,3.8734,4.1465,4.875,5.0371,5.1328,5.123,5.043,4.8795,4.5261,4.4019,4.3074,4.114,4.15,4.2843,4.49,4.4717,4.4467,4.505,4.5954,4.676,4.7297,5.0596,5.3965,5.6875,6.1308,6.4375,6.4941,6.5212,6.4621,6.2774,5.8202,5.4105,5.0836,4.6472,4.3199,4.1305,4.1122,4.0869,4.0481,4.0481,4.0481,4.0481,4.0481,4.0481,4.0481,4.0294,4.0214,4.0187,3.9786,3.9493,0.0,3.8846,3.8437,3.7929,3.7448,3.7088,3.6794,3.6513,3.6393,3.6393,3.6393,3.6393,3.6393,3.6393,3.6393,3.6393,3.6393,3.6246,3.6032,3.5845,3.5792,3.5725,3.5431,3.5004,3.4589,3.4376,3.4189,3.4015,3.3908,3.4202,3.4482,3.4482,3.4576,3.4656,3.4656,3.4656,3.471,3.4897,3.4776,3.4723,3.4897,3.4763,3.4656,3.4656,3.4549,3.4416,3.4229,3.3828,3.3534,3.3414,3.3414,3.3414,3.3414,3.3414,3.3414,3.3414,3.3414,3.3414,3.3414,3.3414,3.4236,3.5882,3.849,4.0893,0.0,4.8691,4.9766,5.0117,4.9375,4.7752,4.4608,4.448,0.0,4.2062,4.3065,4.4668,4.5527,4.3678,4.2975,4.5934,4.5044,4.5381,4.9552,5.1523,5.3789,5.7187,6.0215,6.2344,6.3105,6.5,6.4409,6.0269,5.9209,5.5494,4.7937,4.7048,4.5198,4.1929,4.1523,4.1096,4.0508,4.0542,4.0481,4.0481,4.0481,4.0481,4.0481,4.0481,4.0481,4.0441,3.9893,3.964,3.9559,3.9012,3.8584,3.8281,3.7956,3.7676,3.7342,3.7032,3.6941,3.6885,3.6885,3.6885,3.6885,3.6885,3.6941,3.6912,3.6885,3.658,3.6126,3.6112,3.6099,3.6032,3.5712,3.5418,3.5057,3.4482,3.4349,3.4282,3.4002,3.4389,3.4842,3.4842,3.5017,3.5191,3.5191,3.5191,3.5191,3.5191,3.5191,3.5191,3.5191,3.5191,3.5191,3.5191,3.495,3.4842,3.4815,3.4242,3.3788,3.3494,3.348,3.348,3.348,3.3454,3.344,3.344,3.3427,3.3414,3.3414,3.3414,3.3414,3.3464,3.608,3.8466,4.2969,0.0,4.4687,4.4453,4.4922,4.5164,0.0,4.4381,4.4655,4.3411,4.3823,4.4668,4.5527,4.3678,4.325,4.716,4.5895,4.5667,4.9184,5.3906,5.8027,6.0858,6.3869,6.5351,6.4529,6.5234,6.4237,6.0658,5.686,5.2771,4.8267,4.5028,4.289,4.1853,4.171,4.139,4.0802,4.0588,4.0481,4.0481,4.0481,4.0481,4.0481,4.0481,4.0481,4.0481,4.0334,4.0,3.9599,3.9452,3.8945,3.8321,3.8183,3.7849,3.7382,3.7301,3.7128,3.6885,3.6885,3.6885,3.6885,3.6885,3.7088,3.7235,3.6952,3.6834,3.6687,3.6473,3.6393,3.6286,3.5765,3.5418,3.511,3.475,3.4656,3.4695,3.4628,3.4843,3.5097,3.5097,3.5151,3.5191,3.5191,3.5191,3.5191,3.5191,3.5191,3.5191,3.5191,3.5191,3.5191,3.5191,3.5137,3.5004,3.4776,3.4429,3.4189,3.4108,3.4108,3.4108,3.4108,3.3895,3.3774,3.3774,3.3534,3.3414,3.3414,3.3414,3.3414,3.3464,3.608,3.8638,4.1152,4.1973,4.2812,4.2969,4.3398,4.3769,4.3711,4.3769,4.3808,4.3711,4.375,4.418,4.5492,4.3678,4.2859,4.5434,4.4271,4.4737,4.9573,5.4854,5.9414,6.2598,6.4609,6.5644,6.5527,6.4357,6.2023,5.8174,5.3908,4.985,4.6049,4.3516,4.2071,4.179,4.1523,4.1243,4.0909,4.0762,4.0615,4.0481,4.0481,4.0481,4.0481,4.0481,4.0481,4.0481,4.0334,4.0,3.9599,3.9452,3.9012,3.8477,3.833,3.8026,3.7569,3.7478,3.7275,3.7155,3.7155,3.7155,3.7128,3.6981,3.6992,3.7155,3.6981,3.6885,3.6845,3.6699,3.6659,3.658,3.5979,3.5618,3.5284,3.487,3.487,3.4923,3.479,3.5097,3.5351,3.5217,3.5191,3.5191,3.5191,3.5191,3.5191,3.5191,3.5191,3.5191,3.5191,3.5191,3.5191,3.5191,3.5191,3.5124,3.4911,3.4817,3.4603,3.4336,3.4322,3.4322,3.4322,3.4042,3.3881,3.3881,3.3721,3.3627,3.3627,3.348,3.3414,3.3414,3.4869,3.7576,4.0664,4.1562,4.2656,4.3183,4.3144,4.3066,4.334,4.291,4.2596,4.3359,4.3281,4.3654,4.5394,4.3366,4.204,4.3815,4.3439,4.5133,5.134,5.5701,5.9531,6.2988,6.3965,6.4582,6.5019,6.2505,5.8998,5.4389,5.0957,4.7382,4.332,4.2552,4.2071,4.179,4.131,4.0989,4.0909,4.0869,4.0722,4.0481,4.0481,4.0481,4.0481,4.0481,4.0481,4.0468,4.0147,3.9853,3.9559,3.9265,3.8913,3.8691,3.8428,3.8116,3.7849,3.7555,3.7448,3.7448,3.7382,3.7382,3.7342,3.6992,3.6912,3.6952,3.6941,3.6925,3.6952,3.6885,3.6845,3.6727,3.6153,3.5819,3.5511,3.5017,3.5044,3.5137,3.4884,3.5191,3.5498,3.5244,3.5231,3.5244,3.5204,3.5231,3.5244,3.5204,3.5191,3.5191,3.5191,3.5191,3.5191,3.5191,3.5191,3.5191,3.5191,3.5191,3.499,3.4482,3.4456,3.4429,3.4389,3.4148,3.4002,3.3961,3.3908,3.3881,3.3881,3.3574,3.3414,3.3414,3.3414,3.6228,4.1308,4.2266,4.2754,4.1797,4.2051,4.2441,4.2168,4.2266,4.2421,4.2557,4.2871,4.3654,4.5394,4.2111,4.12,4.7501,4.9867,5.231,5.6287,5.8703,6.049,6.1836,6.3672,6.3488,6.0102,5.958,5.7014,5.0971,4.9196,4.6824,4.328,4.2552,4.2071,4.179,4.171,4.1416,4.0909,4.0655,4.0508,4.0481,4.0481,4.0481,4.0481,4.0481,4.0481,4.0468,4.0147,3.9853,3.9559,3.9265,3.8913,3.8691,3.8428,3.8281,3.82,3.7849,3.7742,3.7702,3.7462,3.7382,3.7342,3.6992,3.7059,3.7275,3.7008,3.7128,3.7275,3.6952,3.6754,3.6433,3.5845,3.5658,3.5551,3.5511,3.5351,3.5244,3.5391,3.5378,3.5244,3.5204,3.5391,3.5485,3.5244,3.5404,3.5471,3.5231,3.5191,3.5191,3.5191,3.5191,3.5191,3.5191,3.5191,3.5191,3.5191,3.5191,3.5151,3.507,3.5057,3.495,3.471,3.4708,3.4509,3.4255,3.4015,3.3881,3.3881,3.3574,3.3414,3.3414,3.3414,3.6228,4.0605,4.1562,4.2023,4.0505,4.1028,4.1444,3.9922,3.9378,3.9211,3.9484,3.9798,4.0535,4.1933,4.2491,4.4445,4.9592,5.1537,5.3259,5.5723,5.7994,6.0041,6.1836,6.293,6.2347,5.9217,5.7263,5.4248,4.9483,4.6719,4.4547,4.2988,4.2445,4.2004,4.1563,4.1501,4.1269,4.0695,4.0548,4.0481,4.0481,4.0481,4.0481,4.0481,4.0481,4.0481,4.0468,4.0147,3.9853,3.9559,3.9265,3.8913,3.866,3.8584,3.829,3.7996,3.7676,3.7595,3.7569,3.7422,3.7489,3.7569,3.7275,3.7275,3.7342,3.7235,3.7155,3.7088,3.6794,3.662,3.6393,3.5979,3.5752,3.5578,3.5578,3.5525,3.5471,3.5551,3.5525,3.5378,3.5231,3.5431,3.5591,3.5458,3.5538,3.5578,3.5444,3.5297,3.5191,3.5191,3.5191,3.5191,3.5191,3.5191,3.5191,3.5191,3.5191,3.5191,3.5191,3.5191,3.507,3.4829,3.491,3.4857,3.4563,3.4429,3.4362,3.4349,3.4055,3.3828,3.3668,3.3668,3.5621,4.0234,4.0686,4.0657,3.9033,3.9685,4.0178,3.8142,3.7063,3.6877,3.8035,3.8608,3.934,4.0886,4.4911,4.8752,5.111,5.285,5.4448,5.5951,5.806,6.0156,6.2129,6.1734,6.0371,5.8016,5.4383,5.091,4.7583,4.4439,4.2723,4.2723,4.2325,4.1884,4.135,4.1269,4.0989,4.0481,4.0481,4.0481,4.0481,4.0481,4.0481,4.0481,4.0481,4.0441,4.0361,4.0067,3.9773,3.9493,3.914,3.8886,3.866,3.8651,3.833,3.7889,3.7742,3.7702,3.7676,3.7595,3.7676,3.7782,3.7555,3.7448,3.7382,3.7448,3.7275,3.6981,3.6687,3.65,3.634,3.6046,3.5752,3.5551,3.5618,3.5525,3.5551,3.5618,3.5578,3.5565,3.5338,3.5591,3.5805,3.5738,3.5792,3.5792,3.5591,3.5444,3.5271,3.5204,3.5191,3.5191,3.5191,3.5191,3.5191,3.5191,3.5191,3.5191,3.5191,3.5191,3.5097,3.487,3.5084,3.5097,3.4922,3.4855,3.4763,3.4698,3.4456,3.4469,3.4766,3.4766,3.6013,4.123,4.0235,3.8477,3.7284,3.7851,3.8524,3.7864,3.7277,3.7815,4.115,4.2366,4.3713,4.6471,5.0251,5.2789,5.2451,5.6229,5.9677,6.0999,6.1738,6.2207,6.2363,5.9719,5.6685,5.3807,5.0156,4.6685,4.3745,4.3025,4.2723,4.2723,4.2174,4.167,4.1274,4.1082,4.0802,4.0481,4.0481,4.0481,4.0481,4.0481,4.0481,4.0481,4.0481,4.0334,4.004,3.9746,3.9452,3.91,3.8865,3.87,3.8691,3.8397,3.8321,3.8321,3.8544,3.8611,3.8584,3.829,3.8036,3.7809,3.7782,3.7595,3.7478,3.7702,3.7595,3.7275,3.6981,3.6513,3.6032,3.5738,3.5444,3.5297,3.5565,3.5418,3.5297,3.5578,3.5578,3.5565,3.5551,3.6059,3.6353,3.6086,3.6259,3.6259,3.5658,3.5551,3.5498,3.5231,3.5191,3.5191,3.5191,3.5191,3.5191,3.5191,3.5191,3.5191,3.5191,3.5191,3.5191,3.5164,3.5191,3.5191,3.5164,3.4949,3.4815,3.4815,3.4469,3.536,3.7406,3.7406,3.8682,4.0762,4.078,4.0272,3.9028,3.9245,3.9317,3.7618,3.879,4.0738,4.2611,4.3812,4.5448,4.8645,5.1005,5.3272,5.5823,5.8931,6.1152,6.166,6.207,6.2187,6.1679,5.8793,5.5534,5.2295,4.8972,4.5779,4.2767,4.2445,4.2298,4.2174,4.1897,4.1563,4.1096,4.0976,4.0762,4.0481,4.0481,4.0481,4.0481,4.0481,4.0481,4.0481,4.0481,4.0321,3.9967,3.9706,3.9412,3.906,3.8624,3.8437,3.8397,3.8103,3.8103,3.8321,3.8183,3.8143,3.8143,3.8036,3.8036,3.8133,3.8133,3.7889,3.7676,3.7782,3.7489,3.7048,3.6754,3.638,3.6006,3.5712,3.5685,3.5725,3.5645,3.5819,3.5992,3.5925,3.5912,3.5912,3.5912,3.6233,3.6473,3.6366,3.6286,3.6166,3.5939,3.5591,3.5324,3.5204,3.5191,3.5191,3.5191,3.5364,3.5471,3.5471,3.5631,3.5658,3.5471,3.5297,3.5191,3.5191,3.5191,3.5191,3.5191,3.5084,3.503,3.503,3.4923,3.6068,3.8403,3.8158,3.9303,4.0238,3.9929,3.9382,3.9633,4.0319,4.0795,4.0425,4.1355,4.2985,4.5274,4.6604,4.8169,5.0915,5.2159,5.3996,5.7714,6.0215,6.1777,6.1894,6.2187,6.207,6.1191,5.8289,5.4963,5.1532,4.8319,4.5227,4.2175,4.1924,4.1857,4.167,4.1563,4.131,4.0909,4.0842,4.0695,4.0481,4.0481,4.0481,4.0481,4.0481,4.0481,4.0481,4.0361,4.0187,3.9893,3.9599,3.9247,3.8972,3.8584,3.8397,3.8428,3.8076,3.8143,3.8428,3.8183,3.8103,3.8103,3.8103,3.8183,3.8321,3.8428,3.821,3.7969,3.8076,3.7646,3.7128,3.6754,3.6366,3.5979,3.5591,3.5645,3.5738,3.5538,3.5872,3.6179,3.5979,3.6072,3.6206,3.6206,3.6433,3.6647,3.6647,3.6473,3.6286,3.6153,3.5725,3.5404,3.5217,3.5191,3.5191,3.5191,3.5458,3.5578,3.5578,3.5899,3.5992,3.5778,3.5578,3.5431,3.5338,3.5418,3.5431,3.5338,3.5338,3.5284,3.5191,3.5191,3.6871,4.0018,3.9752,4.0891,3.9913,3.7358,3.4892,3.8373,4.0566,4.2867,4.6668,4.5046,4.4241,4.9591,5.1421,5.2519,5.3828,5.4414,5.539,5.7574,6.0039,6.1836,6.2305,6.2422,6.207,6.1191,5.821,5.478,5.1243,4.7901,4.4684,4.1522,4.1274,4.1274,4.1274,4.1056,4.0909,4.0909,4.0615,4.0481,4.0481,4.0481,4.0481,4.0481,4.0481,4.0481,4.0468,4.0174,3.982,3.9559,3.9265,3.8972,3.8718,3.866,3.866,3.8691,3.8428,3.8437,3.8718,3.8718,3.8718,3.8718,3.8718,3.8504,3.833,3.8611,3.8504,3.833,3.8624,3.829,3.7646,3.7059,3.6513,3.5993,3.5351,3.5204,3.5204,3.5191,3.5418,3.5631,3.5631,3.6099,3.65,3.65,3.6699,3.6885,3.6885,3.6885,3.6727,3.6166,3.6072,3.5859,3.5271,3.5191,3.5191,3.5204,3.5458,3.5631,3.5631,3.5912,3.614,3.6072,3.614,3.5952,3.5591,3.5912,3.5939,3.5591,3.5631,3.5485,3.5204,3.5243,3.7792,4.269,4.269,4.3982,4.0238,3.9815,3.9675,4.2214,4.4119,4.6401,5.0289,5.0671,5.1338,5.5352,5.5394,5.5098,5.6094,5.6367,5.6875,5.8125,5.998,6.1426,6.1836,6.2187,6.1953,6.0724,5.786,5.4387,5.0496,4.7435,4.4426,4.1261,4.1168,4.1208,4.1056,4.0949,4.0802,4.0615,4.0508,4.0481,4.0481,4.0254,4.0174,4.0147,3.996,3.996,4.0147,4.0067,3.9714,3.9265,3.914,3.8972,3.8691,3.825,3.821,3.837,3.8076,3.825,3.8718,3.8718,3.8718,3.8718,3.8718,3.8651,3.8611,3.8691,3.8504,3.8321,3.837,3.8026,3.7422,3.6992,3.6647,3.6286,3.5912,3.5658,3.5444,3.5244,3.5738,3.6193,3.5992,3.6393,3.6794,3.6794,3.6874,3.6885,3.6885,3.6754,3.658,3.6393,3.6019,3.5618,3.5244,3.5191,3.5271,3.5471,3.5765,3.6019,3.6233,3.65,3.658,3.6393,3.658,3.6473,3.5965,3.6019,3.6032,3.5939,3.7603,3.7501,3.5498,3.7243,3.9829,4.3103,4.2855,4.5125,4.0627,4.0857,4.1435,4.4593,4.6655,4.8977,5.3066,5.4726,5.6055,5.832,5.7402,5.6445,5.7324,5.7187,5.7305,5.8304,5.9805,6.0918,6.1133,6.1601,6.1445,6.0332,5.8501,5.5904,5.202,4.9008,4.5982,4.278,4.1589,4.0909,4.0735,4.0735,4.0655,4.0542,4.0481,4.0462,4.0294,4.0107,3.996,3.9853,3.968,3.964,3.9666,3.9666,3.942,3.91,3.8993,3.8766,3.8504,3.7996,3.8076,3.8397,3.7969,3.8183,3.8718,3.8718,3.8718,3.8718,3.8718,3.8718,3.8718,3.8718,3.8584,3.8437,3.8437,3.8036,3.7489,3.7195,3.6834,3.6433,3.6153,3.5939,3.5765,3.5591,3.5952,3.6313,3.6259,3.662,3.6885,3.6885,3.6885,3.6885,3.6885,3.6794,3.6592,3.6513,3.6099,3.5698,3.5404,3.5471,3.5618,3.5778,3.6072,3.6313,3.65,3.6754,3.6805,3.6687,3.6834,3.6739,3.6433,3.6433,3.6884,3.7923,3.9237,3.9567,3.8924,4.0248,4.1706,4.3318,4.416,4.6314,4.1128,4.1109,4.1355,4.6,4.8606,5.1104,5.5084,5.7309,5.8711,5.9121,5.791,5.707,5.791,5.7383,5.7226,5.8421,5.9572,6.039,6.0372,6.0781,6.0742,5.9922,5.9805,5.8365,5.4778,5.1594,4.8414,4.5233,4.217,4.0441,4.0441,4.0468,4.0481,4.0481,4.0441,4.0294,3.9967,3.994,3.9813,3.9559,3.9533,3.9372,3.906,3.91,3.906,3.8993,3.8798,3.8504,3.824,3.7889,3.8143,3.8611,3.8036,3.8183,3.8718,3.8718,3.8718,3.8718,3.8718,3.8718,3.8718,3.8718,3.8718,3.8718,3.8718,3.829,3.7742,3.7489,3.7008,3.6473,3.6219,3.6126,3.6126,3.6139,3.6126,3.6179,3.6433,3.6727,3.6885,3.6885,3.6885,3.6885,3.6885,3.6885,3.6834,3.654,3.6259,3.5979,3.5698,3.5885,3.6059,3.6099,3.6353,3.6513,3.654,3.6739,3.6885,3.6885,3.6885,3.6885,3.6885,3.6885,3.8141,4.078,4.061,4.167,4.4015,4.3855,4.3706,4.3723,4.6252,4.7532,4.236,4.3089,4.4311,4.8008,5.1728,5.4928,5.6582,5.8027,5.9062,5.918,5.8887,5.8769,5.9297,5.8965,5.8828,5.9397,5.9746,6.0039,6.039,6.0508,6.039,5.9863,5.9805,5.8251,5.434,5.1217,4.8048,4.4572,4.1678,4.0087,4.0087,4.0361,4.0481,4.0481,4.0254,4.0047,3.9967,3.95,3.9247,3.9207,3.9012,3.8865,3.8766,3.8993,3.8846,3.8495,3.8397,3.8183,3.7889,3.7595,3.7823,3.833,3.7956,3.8183,3.8718,3.8718,3.8718,3.8718,3.8718,3.8718,3.8718,3.8718,3.8718,3.8718,3.8718,3.829,3.7809,3.7742,3.7301,3.6779,3.6754,3.658,3.6473,3.6687,3.658,3.6433,3.65,3.6727,3.6885,3.6885,3.6885,3.6885,3.6885,3.6885,3.6834,3.654,3.6259,3.6046,3.5979,3.5832,3.5899,3.6366,3.6473,3.6607,3.6779,3.6845,3.6885,3.6885,3.6885,3.6885,3.6885,3.6885,3.8252,4.1054,4.2886,4.3959,4.4328,4.6126,4.6853,4.652,4.7117,4.854,4.3183,4.4648,4.6582,5.0616,5.3777,5.6211,5.7285,5.8203,5.8945,5.9121,5.918,5.9238,5.9473,5.9355,5.9238,5.9473,5.9687,5.9805,5.9824,5.9982,5.998,5.957,5.928,5.7791,5.4269,5.0983,4.7726,4.4436,4.1472,3.9813,3.9813,4.0107,4.0187,4.0067,4.004,3.9893,3.9567,3.9247,3.902,3.8886,3.8798,3.8651,3.8504,3.8651,3.8477,3.8036,3.8036,3.7889,3.7595,3.7448,3.7772,3.8281,3.7929,3.8183,3.8718,3.8718,3.8718,3.8718,3.8718,3.8718,3.8718,3.8718,3.8718,3.8718,3.8718,3.8397,3.7996,3.7849,3.7489,3.7128,3.6925,3.6779,3.6754,3.6845,3.6727,3.654,3.6687,3.6779,3.6885,3.6885,3.6885,3.6885,3.6885,3.6885,3.6834,3.654,3.65,3.6433,3.6299,3.6259,3.6312,3.6687,3.6672,3.6754,3.6885,3.6885,3.6885,3.6885,3.6885,3.6885,3.6885,3.8225,4.0303,4.3181,4.4272,4.6092,4.8724,4.973,4.9373,4.7704,4.9034,4.9602,4.3613,4.5859,4.847,5.2754,5.4772,5.6152,5.7363,5.7969,5.8418,5.8887,5.9062,5.918,5.9062,5.9062,5.9062,5.902,5.9238,5.9187,5.8392,5.853,5.8438,5.7587,5.7188,5.5898,5.3307,4.9836,4.6768,4.4208,4.1196,3.9452,3.9519,3.9754,3.9853,3.9599,3.9687,3.9559,3.902,3.8913,3.874,3.8513,3.8513,3.8397,3.8116,3.8093,3.7889,3.7662,3.7662,3.7489,3.7235,3.7342,3.7702,3.82,3.7969,3.8223,3.8718,3.8718,3.8718,3.8718,3.8718,3.8718,3.8718,3.8718,3.8718,3.866,3.8651,3.8437,3.8174,3.7823,3.7569,3.7371,3.7088,3.6992,3.7032,3.7008,3.6834,3.6727,3.6845,3.6885,3.6885,3.6885,3.6885,3.6885,3.6885,3.6885,3.6805,3.662,3.6699,3.6794,3.6607,3.6699,3.6874,3.6885,3.6885,3.6885,3.6885,3.6885,3.7093,3.7591,3.7646,3.7867,3.8376,4.0194,4.255,4.5411,4.5589,4.8205,5.341,5.3008,5.1424,4.8781,5.1045,5.0667,4.3301,4.6699,5.0254,5.2363,5.4141,5.5625,5.6543,5.709,5.7519,5.7969,5.8652,5.9062,5.8655,5.8594,5.8476,5.8141,5.8141,5.7302,5.4889,5.4586,5.3645,5.1045,5.0633,5.0096,4.8831,4.5947,4.3785,4.2974,4.0369,3.8945,3.914,3.9493,3.964,3.9599,3.9159,3.8806,3.874,3.825,3.7956,3.7929,3.7929,3.7782,3.7489,3.7235,3.7088,3.6992,3.6992,3.6845,3.6647,3.7168,3.7569,3.7889,3.8116,3.8397,3.8718,3.8718,3.8718,3.8718,3.8718,3.8718,3.8718,3.8718,3.8718,3.8691,3.8397,3.8116,3.7809,3.7529,3.7422,3.7382,3.7342,3.7529,3.7635,3.7382,3.7301,3.7195,3.6981,3.6885,3.6885,3.6885,3.6885,3.6885,3.6885,3.6885,3.6885,3.6845,3.6687,3.6592,3.6805,3.6687,3.6647,3.6901,3.6885,3.6885,3.6885,3.6885,3.7949,4.0467,4.063,4.174,4.4254,4.2335,4.255,4.5411,4.7861,5.0476,5.341,5.3351,5.2702,5.1558,5.1923,5.164,4.4297,4.707,4.9726,5.2402,5.3652,5.457,5.5918,5.6367,5.6621,5.7051,5.7461,5.7847,5.8086,5.6783,5.5561,5.5411,5.395,5.2439,5.1226,5.1073,5.0545,4.9267,4.8913,4.7876,4.5595,4.3927,4.2177,4.0095,3.8844,3.8233,3.8397,3.8691,3.8771,3.8611,3.8504,3.8397,3.821,3.7956,3.7809,3.7809,3.7489,3.7206,3.7128,3.6445,3.638,3.6687,3.6687,3.662,3.654,3.6941,3.7408,3.7809,3.7956,3.829,3.8718,3.8718,3.8718,3.8718,3.8718,3.8718,3.8718,3.8718,3.8718,3.8651,3.837,3.8183,3.7969,3.7529,3.7489,3.7555,3.7235,3.7342,3.7489,3.7195,3.7128,3.7088,3.6912,3.6885,3.6981,3.7155,3.7195,3.7235,3.7352,3.7408,3.7382,3.7195,3.7088,3.6981,3.6885,3.6779,3.6794,3.6885,3.6885,3.6885,3.6885,3.6885,3.7453,3.8719,4.0303,4.174,4.302,4.3396,4.42,4.5464,4.6737,4.8575,5.0982,5.2613,5.296,5.209,5.209,5.1855,4.4297,4.625,4.8008,5.125,5.2432,5.3125,5.4746,5.5195,5.541,5.584,5.5389,5.5156,5.5851,5.4355,5.2738,5.1925,4.9914,4.8257,4.7657,4.7575,4.7242,4.6435,4.6068,4.4815,4.2137,4.1535,4.0334,3.7899,3.7702,3.7742,3.7809,3.8036,3.8036,3.7809,3.7889,3.7823,3.7595,3.7529,3.7448,3.7382,3.6952,3.6699,3.658,3.5872,3.5832,3.6179,3.6326,3.6393,3.6433,3.6874,3.7301,3.7702,3.7782,3.8103,3.8504,3.8584,3.8611,3.8611,3.8691,3.8718,3.8718,3.8718,3.8633,3.8544,3.825,3.8116,3.7986,3.7422,3.7489,3.7595,3.7155,3.7275,3.7422,3.7128,3.7048,3.7008,3.6941,3.6952,3.7128,3.7342,3.7448,3.7569,3.7782,3.7809,3.7742,3.7529,3.7422,3.7301,3.7088,3.6981,3.6885,3.6885,3.6885,3.6885,3.6885,3.6885,3.7217,3.7949,4.0813,4.2736,4.3342,4.5563,4.6361,4.5534,4.6208,4.746,4.9277,5.1293,5.2298,5.2246,5.2129,5.1855,4.1972,4.3594,4.5215,4.7832,4.9707,5.1269,5.2578,5.3203,5.3664,5.4062,5.2129,5.0454,5.0748,5.1331,5.0845,4.7986,4.7402,4.65,4.4221,4.3867,4.2714,3.9583,3.9222,3.8786,3.781,3.7702,3.7576,3.7422,3.7422,3.7529,3.7809,3.7823,3.7823,3.7809,3.7246,3.6952,3.6981,3.6672,3.6433,3.6166,3.6393,3.6233,3.5698,3.5591,3.5498,3.5297,3.5859,3.6099,3.622,3.7021,3.7382,3.7478,3.7702,3.7793,3.7889,3.8183,3.829,3.8388,3.8611,3.8718,3.8718,3.8718,3.8504,3.8281,3.7929,3.7635,3.7342,3.6992,3.7155,3.7382,3.7382,3.7569,3.7702,3.7422,3.7342,3.7275,3.6952,3.7155,3.7398,3.7382,3.7595,3.7753,3.7809,3.7809,3.7809,3.7782,3.7555,3.7382,3.7398,3.7128,3.6885,3.6885,3.6885,3.6885,3.6885,3.6885,3.8073,4.0779,4.4035,4.686,4.9136,4.9826,4.8684,4.5587,4.8123,4.9536,4.9674,4.9416,5.0485,5.2676,5.2266,5.1855,4.0645,4.1953,4.334,4.5937,4.7871,4.9414,5.043,5.1641,5.2111,5.0503,4.9643,4.808,4.4584,4.4742,4.5108,4.4222,4.2435,4.0842,3.9979,3.985,3.9437,3.8271,3.8143,3.7929,3.7478,3.7195,3.7021,3.6834,3.6647,3.666,3.6941,3.6794,3.6794,3.6981,3.658,3.638,3.638,3.6273,3.6179,3.6072,3.5979,3.5832,3.5565,3.5431,3.5297,3.5217,3.5618,3.5899,3.6112,3.662,3.7048,3.7382,3.7489,3.7635,3.7809,3.7929,3.8103,3.8321,3.8397,3.8544,3.8718,3.8718,3.8504,3.824,3.7889,3.7595,3.7315,3.7008,3.7155,3.7382,3.7382,3.7595,3.7742,3.7448,3.7382,3.7301,3.6952,3.7155,3.7448,3.7635,3.7889,3.82,3.8357,3.8397,3.833,3.8143,3.8067,3.7823,3.7478,3.7275,3.7155,3.6912,3.6885,3.6885,3.6885,3.6885,3.7314,3.8376,4.3037,4.6093,4.6965,4.8912,4.9401,4.8228,4.744,4.6829,4.6538,5.0149,5.213,5.2695,5.2285,5.1992,3.9043,4.0059,4.1406,4.4297,4.5762,4.7012,4.9062,5.0176,5.0436,4.9175,4.773,4.5617,4.21,4.0562,3.9936,4.0301,3.875,3.7529,3.7529,3.7646,3.7742,3.7499,3.7595,3.7935,3.8598,3.7494,3.7085,3.789,3.6816,3.6153,3.6353,3.6179,3.6112,3.6206,3.6032,3.5872,3.5778,3.5872,3.5872,3.5778,3.5672,3.5525,3.5471,3.5284,3.5191,3.5204,3.5404,3.5645,3.5952,3.6246,3.6647,3.7088,3.7088,3.7342,3.7676,3.7782,3.7996,3.8321,3.8428,3.8544,3.866,3.8611,3.8357,3.8093,3.7742,3.7529,3.7315,3.7008,3.7235,3.7489,3.7422,3.7595,3.7782,3.7569,3.7448,3.7342,3.7128,3.7301,3.7595,3.7782,3.8143,3.8477,3.8691,3.8718,3.8651,3.8437,3.8388,3.8174,3.7772,3.7595,3.7448,3.7206,3.8099,3.8682,3.8682,3.9608,4.02,4.02,4.4715,4.734,4.734,4.9964,5.0902,4.9926,4.8893,4.7739,4.6485,5.0149,5.2308,5.291,5.2344,5.2012,0.0,0.0,0.0,4.2695,4.3281,4.4121,4.834,4.8672,4.8548,5.0142,4.6306,4.2855,4.3545,3.9224,3.5805,3.6475,3.6727,3.6901,3.6885,3.7408,3.7555,3.6981,3.7195,3.8321,4.0808,3.8316,3.7659,4.0452,3.7787,3.61,3.6059,3.6113,3.5912,3.5618,3.5605,3.5458,3.5177,3.5458,3.5458,3.5191,3.5471,3.5471,3.5191,3.5191,3.5191,3.5191,3.5191,3.5351,3.5591,3.5939,3.6233,3.65,3.65,3.6874,3.7422,3.7702,3.7996,3.8348,3.8611,3.866,3.8691,3.837,3.8076,3.7742,3.7462,3.7382,3.7315,3.7008,3.7312,3.7742,3.7489,3.7635,3.7793,3.7823,3.7595,3.7422,3.7382,3.7635,3.7809,3.7809,3.8259,3.8718,3.8718,3.8718,3.8718,3.8718,3.8477,3.8321,3.8321,3.7996,3.7809,3.7809,4.0514,4.227,4.227,4.5056,4.6805,4.6788,4.9455,5.0972,5.0972,5.3387,5.3386,5.057,5.2811,5.2653,4.9936,4.9453,5.0675,5.341,5.2569,5.1875,3.623,0.0,0.0,0.0,0.0,0.0,4.3594,4.4726,4.493,4.3158,4.1742,4.0659,4.0248,3.7519,3.6039,3.8154,3.7296,3.6393,3.6552,3.658,3.658,3.662,3.6687,3.703,3.7743,3.6843,3.6558,3.7356,3.6193,3.5525,3.5738,3.5752,3.5525,3.5017,3.5004,3.4857,3.4563,3.4857,3.4963,3.4883,3.5177,3.5271,3.5191,3.5191,3.5191,3.5191,3.5191,3.5244,3.5338,3.5631,3.6046,3.65,3.65,3.6874,3.7382,3.7462,3.7879,3.8321,3.837,3.8544,3.8691,3.837,3.8076,3.7742,3.7462,3.7382,3.7315,3.7008,3.7312,3.7849,3.8026,3.825,3.8397,3.8183,3.8133,3.7969,3.7742,3.7929,3.8076,3.7849,3.8259,3.8718,3.8718,3.8718,3.8718,3.8718,3.8651,3.8504,3.829,3.824,3.8093,3.7849,4.0514,4.227,4.227,4.5056,4.6634,4.6315,4.9261,5.0863,5.0575,5.3501,5.4616,5.3541,5.419,5.3976,5.2839,5.2725,5.3044,5.3828,5.3262,5.2617,0.0,0.0,0.0,3.8418,0.0,0.0,4.2129,4.2969,4.3208,4.2783,4.2046,4.1537,4.1604,3.9642,3.8655,4.0414,3.97,3.8149,3.6235,3.7015,3.7339,3.6234,3.6246,3.6802,3.7953,3.6733,3.6409,3.7598,3.612,3.5217,3.5271,3.5271,3.5057,3.4589,3.4576,3.4496,3.4322,3.4496,3.4576,3.4576,3.487,3.5017,3.5017,3.5137,3.5191,3.5191,3.5191,3.5191,3.5204,3.5378,3.5792,3.6326,3.6326,3.6767,3.7382,3.7529,3.7863,3.829,3.8397,3.8477,3.8477,3.8183,3.7889,3.7569,3.7275,3.7275,3.7315,3.7008,3.7312,3.7889,3.8183,3.8477,3.8691,3.8504,3.837,3.8281,3.8036,3.8143,3.8223,3.8036,3.8397,3.8718,3.8718,3.8718,3.8718,3.8718,3.8718,3.8651,3.8477,3.9559,4.0276,4.0094,4.3696,4.616,4.616,4.8734,5.0313,5.0188,5.1823,5.2836,5.3001,5.4493,5.5195,5.4941,5.4765,5.4473,5.3972,5.3972,5.3926,5.375,5.3527,5.3038,0.0,0.0,0.0,0.0,3.8516,0.0,4.2148,4.2226,4.2342,4.5217,4.4275,4.3347,4.4742,4.3155,4.1834,4.2509,4.2807,4.1333,3.6764,3.8652,3.9361,3.6431,3.6328,3.7363,3.9502,3.7178,3.6601,3.9136,3.6691,3.499,3.4775,3.471,3.4576,3.4282,3.4269,3.4255,3.4215,3.4255,3.4269,3.4282,3.4511,3.4723,3.4829,3.503,3.5164,3.5191,3.5191,3.5191,3.5191,3.5191,3.5538,3.6072,3.6072,3.662,3.7422,3.7702,3.7996,3.8348,3.8611,3.8544,3.825,3.7929,3.7635,3.7382,3.6992,3.7155,3.7342,3.7088,3.7408,3.7889,3.8183,3.8477,3.8718,3.8718,3.8504,3.8348,3.8348,3.8348,3.8348,3.8348,3.8544,3.8718,3.8718,3.8718,3.8718,3.8718,3.8718,3.882,3.9181,4.1532,4.3357,4.3656,4.843,5.1586,5.1586,5.3969,5.5586,5.5865,5.5625,5.5781,5.6484,5.582,5.543,5.5371,5.4922,5.4473,5.3972,5.3972,5.3828,5.3488,5.3488,5.3203,0.0,0.0,0.0,3.7344,3.8066,0.0,3.8594,3.9141,3.9605,3.9241,3.9294,3.9948,4.1726,4.0634,4.003,4.1988,4.3451,4.3855,4.2323,4.2455,4.1719,3.9209,3.893,3.8254,3.6369,3.5615,3.5441,3.5759,3.4968,3.4469,3.4402,3.4402,3.4269,3.3975,3.3975,3.3855,3.3587,3.3841,3.3975,3.3975,3.4269,3.4536,3.4815,3.4869,3.4977,3.5191,3.5191,3.5191,3.5191,3.5191,3.5538,3.6072,3.6072,3.662,3.7422,3.7702,3.7996,3.8348,3.8611,3.8691,3.8544,3.7996,3.7782,3.7635,3.7088,3.7155,3.7422,3.7595,3.7686,3.7889,3.8183,3.8477,3.8718,3.8718,3.8691,3.8624,3.8624,3.8624,3.8624,3.8624,3.8691,3.8718,3.8718,3.8718,3.8718,3.8718,3.8718,3.9573,4.199,4.2818,4.411,4.647,4.9882,5.2001,5.2001,5.4651,5.623,5.5904,5.6191,5.625,5.6074,5.623,5.6172,5.5767,5.5058,5.4473,5.3972,5.3972,5.3984,5.3906,5.3906,5.3652,3.6289,3.6816,3.7344,3.7594,3.793,0.0,0.0,3.8105,3.8422,3.9116,3.9177,3.9776,4.1807,4.15,4.1532,4.3298,4.4876,4.5733,4.5406,4.3856,4.1347,3.7432,3.7008,3.6381,3.4919,3.4763,3.4696,3.4549,3.4402,3.4255,3.4108,3.4108,3.3961,3.3654,3.3654,3.3574,3.3414,3.3574,3.3654,3.3654,3.3961,3.4175,3.4336,3.4681,3.4895,3.499,3.5137,3.5191,3.5191,3.5191,3.5458,3.5872,3.6019,3.6433,3.7021,3.7595,3.7929,3.8103,3.8571,3.8611,3.8397,3.7956,3.7702,3.7529,3.7032,3.6992,3.7235,3.7529,3.7702,3.7889,3.8183,3.8477,3.8718,3.8718,3.8718,3.8718,3.8718,3.8718,3.8718,3.8718,3.8718,3.8718,3.8718,3.8718,3.8633,3.8504,3.8611,3.9722,4.2581,4.4368,4.6526,4.9547,5.2309,5.3982,5.3982,5.5186,5.5937,5.5885,5.6133,5.625,5.625,5.6465,5.6387,5.5885,5.5117,5.457,5.4355,5.4141,5.3972,5.3972,5.3972,5.3906,3.7164,3.732,3.7614,3.8281,3.8125,3.7851,0.0,0.0,0.0,3.994,3.9883,4.0039,4.1777,4.2226,4.2676,4.373,4.5074,4.5706,4.4793,4.2749,3.9861,3.5868,3.5166,3.4752,3.42,3.4042,3.4028,3.4135,3.4042,3.3921,3.3801,3.3801,3.3681,3.3414,3.3414,3.3414,3.3414,3.3414,3.3414,3.3414,3.3668,3.3828,3.3908,3.4376,3.4708,3.4829,3.5017,3.5151,3.5191,3.5191,3.5338,3.5578,3.5939,3.6246,3.662,3.7489,3.7809,3.7889,3.8504,3.8504,3.8223,3.7929,3.7595,3.7235,3.6952,3.6885,3.6981,3.7235,3.7489,3.7809,3.8103,3.8397,3.8651,3.866,3.8718,3.8718,3.8718,3.8718,3.8718,3.8718,3.8718,3.8718,3.8718,3.8718,3.8611,3.8348,3.8477,3.9828,4.3131,4.5878,4.8909,5.26,5.4825,5.6002,5.6002,5.5742,5.5703,5.6035,5.6002,5.6211,5.6562,5.6582,5.6387,5.5885,5.5273,5.4844,5.4687,5.4336,5.4121,5.3972,5.3972,5.3972,3.8809,3.9492,3.9708,3.834,3.8809,3.9023,3.6816,0.0,3.7734,3.732,0.0,3.8186,3.8457,0.0,0.0,3.9844,4.1601,4.1446,3.7207,3.7616,3.8604,3.9176,3.8228,3.6464,3.3785,3.3053,3.3009,3.348,3.304,3.3009,3.344,3.3467,3.3454,3.3414,3.3414,3.3414,3.3414,3.3414,3.3414,3.3414,3.3454,3.3614,3.3895,3.3961,3.4269,3.4815,3.4855,3.4963,3.5191,3.5191,3.5217,3.5297,3.5859,3.6246,3.662,3.7489,3.7809,3.7889,3.8504,3.8504,3.8223,3.7929,3.7392,3.6981,3.6885,3.6885,3.6885,3.6981,3.7195,3.7489,3.7782,3.8076,3.8428,3.8651,3.8718,3.8718,3.8718,3.8718,3.8718,3.8718,3.8718,3.8718,3.8718,3.8718,3.8611,3.8348,3.8348,4.0363,4.5971,4.6999,4.9515,5.5487,5.6363,5.6504,5.6504,5.6465,5.6465,5.6504,5.6504,5.6523,5.6582,5.6582,5.6387,5.5885,5.5787,5.543,5.4687,5.4629,5.4414,5.3972,5.3972,5.3972,3.916,3.9473,3.957,3.8848,3.8906,3.8711,3.7129,3.6797,3.6855,3.7012,0.0,0.0,0.0,0.0,0.0,0.0,4.0449,4.0461,3.6799,3.6719,3.6431,3.4823,3.412,3.3428,3.2517,3.2233,3.2326,3.2866,3.2567,3.2545,3.3133,3.332,3.3414,3.3414,3.3414,3.3414,3.3414,3.3414,3.3414,3.3414,3.3414,3.348,3.3614,3.3801,3.4028,3.4269,3.4668,3.4882,3.4963,3.5124,3.5191,3.5257,3.5845,3.6153,3.6366,3.7235,3.7676,3.7889,3.829,3.837,3.824,3.7716,3.7275,3.6885,3.6885,3.6885,3.6925,3.7155,3.7275,3.7489,3.7969,3.82,3.8388,3.8651,3.8718,3.8718,3.8718,3.8718,3.8718,3.8718,3.8718,3.8718,3.8718,3.8584,3.8357,3.8036,3.7996,3.9475,4.3633,4.5918,4.8902,5.3297,5.5479,5.6582,5.6582,5.6582,5.6582,5.6582,5.6582,5.6582,5.6582,5.6582,5.6504,5.6308,5.6055,5.5644,5.5039,5.5039,5.4824,5.4394,5.4141,5.3972,3.9355,3.9473,3.9453,3.8965,3.8613,3.8105,3.7031,3.6484,3.6406,3.7148,3.6738,0.0,0.0,0.0,3.7812,3.832,0.0,3.9357,3.6165,3.5503,3.4234,3.1231,3.0696,3.0755,3.131,3.1283,3.151,3.2179,3.1837,3.1984,3.2862,3.3053,3.324,3.3414,3.3414,3.3414,3.3414,3.3414,3.3414,3.3414,3.3414,3.3414,3.3414,3.3654,3.3801,3.3908,3.4336,3.4668,3.4829,3.499,3.5177,3.5364,3.5872,3.6126,3.6286,3.7088,3.7569,3.7849,3.82,3.8223,3.8076,3.7635,3.7235,3.6941,3.6992,3.6952,3.6981,3.7195,3.7275,3.7382,3.7889,3.8133,3.8223,3.8504,3.8651,3.8718,3.8718,3.8718,3.8718,3.8718,3.8718,3.8718,3.8718,3.8477,3.82,3.7849,3.7742,3.8973,4.2614,4.5272,4.8431,5.2429,5.5,5.6445,5.6582,5.6582,5.6582,5.6582,5.6582,5.6582,5.6582,5.6582,5.6582,5.6582,5.6269,5.5898,5.5469,5.5469,5.5195,5.4668,5.4355,5.4199,3.9746,4.0176,4.004,3.8343,3.7913,3.7464,3.584,3.6108,3.6812,3.7207,3.793,3.8532,3.8571,3.8571,0.0,0.0,3.834,0.0,0.0,3.255,3.2204,3.1117,3.0376,3.006,3.0413,3.014,3.0327,3.1162,3.0742,3.1095,3.2527,3.2621,3.2875,3.3387,3.3414,3.3414,3.3414,3.3414,3.3414,3.3414,3.3414,3.3414,3.3414,3.3427,3.3587,3.3881,3.3908,3.4242,3.4815,3.4829,3.511,3.5645,3.5952,3.6246,3.658,3.7168,3.7569,3.7849,3.82,3.8076,3.7809,3.7809,3.7352,3.6981,3.7275,3.7155,3.6885,3.6885,3.6941,3.7008,3.7342,3.7635,3.7889,3.824,3.8504,3.8718,3.8718,3.8718,3.8718,3.8718,3.8718,3.8718,3.8718,3.8477,3.82,3.7849,3.7569,3.946,4.5233,4.6059,4.8621,5.508,5.5832,5.6133,5.6543,5.6582,5.6582,5.6582,5.6582,5.6582,5.6582,5.6582,5.6582,5.6582,5.6582,5.6348,5.5865,5.5865,5.5488,5.4687,5.4668,5.4668,3.9863,4.0,3.9824,3.8652,3.793,3.7285,3.646,3.6499,3.6832,3.7207,3.7969,3.8532,3.8203,3.8379,0.0,0.0,0.0,0.0,0.0,3.0689,2.8732,2.7793,2.8329,2.8938,2.9432,2.9348,2.97,3.0581,3.0114,3.0341,3.161,3.1864,3.2286,3.2875,3.3026,3.3213,3.3414,3.3414,3.3414,3.3414,3.3414,3.3414,3.3414,3.3414,3.3467,3.3587,3.3801,3.4108,3.4482,3.4735,3.499,3.5391,3.5885,3.6139,3.6313,3.7088,3.7569,3.7849,3.82,3.824,3.8076,3.7889,3.7676,3.7489,3.7422,3.7315,3.7195,3.6981,3.6885,3.6952,3.7301,3.7595,3.7889,3.824,3.8388,3.8477,3.8691,3.8397,3.8193,3.8593,3.8544,3.8477,3.8691,3.8477,3.82,3.7849,3.7352,3.7796,3.974,4.1955,4.488,4.8977,5.1654,5.3952,5.5974,5.6426,5.6582,5.6582,5.6582,5.6582,5.6582,5.6582,5.6582,5.6582,5.6582,5.6367,5.5885,5.623,5.6074,5.5508,5.5508,5.5058,3.9375,3.9531,3.9434,3.8555,3.793,3.7363,3.6832,3.6894,3.7285,3.7851,3.8555,3.9043,3.9082,3.8926,0.0,0.0,0.0,0.0,0.0,2.9595,2.7159,2.6829,2.7337,2.7909,2.8454,2.847,2.8738,2.9557,2.9169,2.9366,3.0541,3.1089,3.1724,3.242,3.2822,3.312,3.3414,3.3414,3.3414,3.3414,3.3414,3.3414,3.3414,3.3414,3.3414,3.3427,3.3627,3.3948,3.4336,3.4523,3.4897,3.5391,3.5765,3.6046,3.6313,3.6981,3.7489,3.7889,3.829,3.837,3.825,3.8183,3.7996,3.7782,3.7595,3.7462,3.7382,3.7261,3.7088,3.6992,3.7422,3.7595,3.7702,3.7946,3.8036,3.8143,3.8357,3.8046,3.7956,3.8464,3.8397,3.837,3.8651,3.8477,3.82,3.7849,3.7408,3.7394,3.8293,4.0315,4.324,4.7393,5.0027,5.2749,5.5867,5.6426,5.6582,5.6582,5.6582,5.6582,5.6582,5.6582,5.6797,5.7265,5.6816,5.668,5.6802,5.668,5.6367,5.5885,5.6094,5.5566]},{"header":{"parameterUnit":"m.s-1","parameterCategory":1,"la1":30.6,"la2":29.2853,"lo1":-89.7004,"lo2":-87.6739,"dy":0.0162,"dx":0.0183,"nx":112,"ny":82,"refTime":"2023-04-10T06:00:00:Z","depth":0,"parameterNumber":3,"parameterNumberName":"V-component_of_WINDS"},"data":[0.0,0.0,0.0,0.0,0.0,0.0,0.0,0.0,0.0,0.0,0.0,0.0,0.0,0.0,0.0,0.0,0.0,0.0,0.0,0.0,0.0,0.0,0.0,0.0,0.0,0.0,0.0,0.0,0.0,0.0,0.0,0.0,0.0,0.0,0.0,0.0,0.0,0.0,0.0,0.0,0.0,0.0,0.0,0.0,0.0,0.0,0.0,0.0,0.0,0.0,0.0,0.0,0.0,0.0,0.0,0.0,0.0,0.0,0.0,0.0,0.0,0.0,0.0,0.0,0.0,0.0,0.0,0.0,0.0,0.0,0.0,0.0,0.0,0.0,0.0,0.0,0.0,0.0,0.0,0.0,0.0,0.0,0.0,0.0,0.0,0.0,0.0,0.0,0.0,0.0,4.4668,4.5393,4.8984,5.1674,5.2435,5.2164,5.0574,4.7327,0.0,0.0,0.0,0.0,0.0,0.0,0.0,0.0,0.0,0.0,0.0,0.0,0.0,0.0,0.0,0.0,0.0,0.0,0.0,0.0,0.0,0.0,0.0,0.0,0.0,0.0,0.0,0.0,0.0,0.0,0.0,0.0,0.0,0.0,0.0,0.0,0.0,0.0,0.0,0.0,0.0,0.0,0.0,0.0,0.0,0.0,0.0,0.0,0.0,0.0,0.0,0.0,0.0,0.0,0.0,0.0,0.0,0.0,0.0,0.0,0.0,0.0,0.0,0.0,0.0,0.0,0.0,0.0,0.0,0.0,0.0,0.0,0.0,0.0,0.0,0.0,0.0,0.0,0.0,0.0,0.0,0.0,0.0,0.0,0.0,0.0,0.0,0.0,0.0,0.0,0.0,0.0,0.0,0.0,0.0,0.0,0.0,0.0,0.0,0.0,0.0,0.0,0.0,0.0,4.506,4.8865,5.098,5.2469,5.3247,5.1555,4.9932,4.8748,0.0,0.0,0.0,0.0,0.0,0.0,0.0,0.0,0.0,0.0,0.0,0.0,0.0,0.0,0.0,0.0,0.0,0.0,0.0,0.0,0.0,0.0,0.0,0.0,0.0,0.0,0.0,0.0,0.0,0.0,0.0,0.0,0.0,0.0,0.0,0.0,0.0,0.0,0.0,0.0,0.0,0.0,0.0,0.0,0.0,0.0,0.0,0.0,0.0,0.0,0.0,0.0,0.0,0.0,0.0,0.0,0.0,0.0,0.0,0.0,0.0,0.0,0.0,0.0,0.0,0.0,0.0,0.0,0.0,0.0,0.0,0.0,0.0,0.0,0.0,0.0,0.0,0.0,0.0,0.0,0.0,0.0,0.0,0.0,0.0,0.0,0.0,0.0,0.0,0.0,0.0,0.0,0.0,0.0,0.0,0.0,0.0,0.0,0.0,0.0,0.0,0.0,0.0,4.5026,4.6786,5.0845,5.1894,5.2638,5.345,5.1792,5.0202,4.9086,4.7597,0.0,0.0,0.0,0.0,0.0,0.0,0.0,0.0,0.0,0.0,0.0,0.0,0.0,0.0,0.0,0.0,0.0,0.0,0.0,0.0,0.0,0.0,0.0,0.0,0.0,0.0,0.0,0.0,0.0,0.0,0.0,0.0,0.0,0.0,0.0,0.0,0.0,0.0,0.0,0.0,0.0,0.0,0.0,0.0,0.0,0.0,0.0,0.0,0.0,0.0,0.0,0.0,0.0,0.0,0.0,0.0,0.0,0.0,0.0,0.0,0.0,0.0,0.0,0.0,0.0,0.0,0.0,0.0,0.0,0.0,0.0,0.0,0.0,0.0,0.0,0.0,0.0,0.0,0.0,0.0,0.0,0.0,0.0,0.0,0.0,0.0,0.0,0.0,0.0,0.0,0.0,0.0,0.0,0.0,0.0,0.0,0.0,0.0,0.0,0.0,0.0,0.0,4.7293,4.8984,5.1995,5.2469,5.2773,5.3179,5.1641,5.0119,4.88,4.7192,0.0,0.0,0.0,0.0,0.0,0.0,0.0,0.0,0.0,0.0,0.0,0.0,0.0,0.0,0.0,0.0,0.0,0.0,0.0,0.0,0.0,0.0,0.0,0.0,0.0,0.0,0.0,0.0,0.0,0.0,0.0,0.0,0.0,0.0,0.0,0.0,0.0,0.0,0.0,0.0,0.0,0.0,0.0,0.0,0.0,0.0,0.0,0.0,0.0,0.0,0.0,0.0,0.0,0.0,0.0,0.0,0.0,0.0,0.0,0.0,0.0,0.0,0.0,0.0,0.0,0.0,0.0,0.0,0.0,0.0,0.0,0.0,0.0,0.0,0.0,0.0,0.0,0.0,0.0,0.0,0.0,0.0,0.0,0.0,0.0,0.0,0.0,0.0,0.0,0.0,0.0,0.0,0.0,0.0,0.0,0.0,0.0,0.0,0.0,0.0,0.0,0.0,4.8766,5.1235,5.2198,5.2976,5.3145,5.2435,5.0405,4.88,4.8022,4.5954,0.0,0.0,0.0,0.0,0.0,0.0,0.0,0.0,0.0,0.0,0.0,0.0,0.0,0.0,0.0,0.0,0.0,0.0,0.0,0.0,0.0,0.0,0.0,0.0,0.0,0.0,0.0,0.0,0.0,0.0,0.0,0.0,0.0,0.0,0.0,0.0,0.0,0.0,0.0,0.0,0.0,0.0,0.0,0.0,0.0,0.0,0.0,0.0,0.0,0.0,0.0,0.0,0.0,0.0,0.0,0.0,0.0,0.0,0.0,0.0,0.0,0.0,0.0,0.0,0.0,0.0,0.0,0.0,0.0,0.0,0.0,0.0,0.0,0.0,0.0,0.0,0.0,0.0,0.0,0.0,0.0,0.0,0.0,0.0,0.0,0.0,0.0,0.0,0.0,0.0,0.0,0.0,0.0,0.0,0.0,0.0,0.0,0.0,0.0,0.0,0.0,0.0,4.8781,5.115,5.2875,5.3315,5.3179,5.2367,5.0676,4.9187,4.7988,0.0,0.0,0.0,0.0,0.0,0.0,0.0,0.0,0.0,0.0,0.0,0.0,0.0,0.0,0.0,0.0,0.0,0.0,0.0,0.0,0.0,0.0,0.0,0.0,0.0,0.0,0.0,0.0,0.0,0.0,0.0,0.0,0.0,0.0,0.0,0.0,0.0,0.0,0.0,0.0,0.0,0.0,0.0,0.0,0.0,0.0,0.0,0.0,0.0,0.0,0.0,0.0,0.0,0.0,0.0,0.0,0.0,0.0,0.0,0.0,0.0,0.0,0.0,0.0,0.0,0.0,0.0,0.0,0.0,0.0,0.0,0.0,0.0,0.0,0.0,0.0,0.0,0.0,0.0,0.0,0.0,0.0,0.0,0.0,0.0,0.0,0.0,0.0,0.0,0.0,0.0,0.0,0.0,0.0,0.0,0.0,0.0,0.0,0.0,0.0,0.0,0.0,4.6887,4.9289,5.1488,5.3315,5.3518,5.3078,5.2063,5.0371,4.8883,4.7616,0.0,0.0,0.0,0.0,0.0,0.0,0.0,0.0,0.0,0.0,0.0,0.0,0.0,0.0,0.0,0.0,0.0,0.0,0.0,0.0,0.0,0.0,0.0,0.0,0.0,0.0,0.0,0.0,0.0,0.0,0.0,0.0,0.0,0.0,0.0,0.0,0.0,0.0,0.0,0.0,0.0,0.0,0.0,0.0,0.0,0.0,0.0,0.0,0.0,0.0,0.0,0.0,0.0,0.0,0.0,0.0,0.0,0.0,0.0,0.0,0.0,0.0,0.0,0.0,0.0,0.0,0.0,0.0,0.0,0.0,0.0,0.0,0.0,0.0,0.0,0.0,0.0,0.0,0.0,0.0,0.0,0.0,0.0,0.0,0.0,0.0,0.0,0.0,0.0,0.0,0.0,0.0,0.0,0.0,0.0,0.0,0.0,0.0,0.0,0.0,0.0,0.0,4.7718,5.0473,5.2604,5.3416,5.3518,5.2858,5.1336,4.9172,4.7582,0.0,0.0,0.0,0.0,0.0,0.0,0.0,0.0,0.0,0.0,0.0,0.0,0.0,0.0,0.0,0.0,0.0,0.0,0.0,0.0,0.0,0.0,0.0,0.0,0.0,0.0,0.0,0.0,0.0,0.0,0.0,0.0,0.0,0.0,0.0,0.0,0.0,0.0,0.0,0.0,0.0,0.0,0.0,0.0,0.0,0.0,0.0,0.0,0.0,0.0,0.0,0.0,0.0,0.0,0.0,0.0,0.0,0.0,0.0,0.0,0.0,0.0,0.0,0.0,0.0,0.0,0.0,0.0,0.0,0.0,0.0,0.0,0.0,0.0,0.0,0.0,0.0,0.0,0.0,0.0,0.0,0.0,0.0,0.0,0.0,0.0,0.0,0.0,0.0,0.0,0.0,0.0,0.0,0.0,0.0,0.0,0.0,0.0,0.0,0.0,0.0,0.0,0.0,4.7718,5.0473,5.2604,5.3416,5.3518,5.2858,5.1336,4.9172,4.7582,4.6868,0.0,0.0,0.0,0.0,0.0,0.0,0.0,0.0,0.0,0.0,0.0,0.0,0.0,0.0,0.0,0.0,0.0,0.0,0.0,0.0,0.0,0.0,0.0,0.0,0.0,0.0,0.0,0.0,0.0,0.0,0.0,0.0,0.0,0.0,0.0,0.0,0.0,0.0,0.0,0.0,0.0,0.0,0.0,0.0,0.0,0.0,0.0,0.0,0.0,0.0,0.0,0.0,0.0,0.0,0.0,0.0,0.0,0.0,0.0,0.0,0.0,0.0,0.0,0.0,0.0,0.0,0.0,0.0,0.0,0.0,0.0,0.0,0.0,0.0,0.0,0.0,0.0,0.0,0.0,0.0,0.0,0.0,0.0,0.0,0.0,0.0,0.0,0.0,0.0,0.0,0.0,0.0,0.0,0.0,0.0,0.0,0.0,0.0,0.0,0.0,0.0,0.0,4.8191,5.093,5.2976,5.345,5.3767,5.3185,5.1369,4.9699,4.8089,4.6476,0.0,0.0,0.0,0.0,0.0,0.0,0.0,0.0,0.0,0.0,0.0,0.0,0.0,0.0,0.0,0.0,0.0,0.0,0.0,0.0,0.0,0.0,0.0,0.0,0.0,0.0,0.0,0.0,0.0,0.0,0.0,0.0,0.0,0.0,0.0,0.0,0.0,0.0,0.0,0.0,0.0,0.0,0.0,0.0,0.0,0.0,0.0,0.0,0.0,0.0,0.0,0.0,0.0,0.0,0.0,0.0,0.0,0.0,0.0,0.0,0.0,0.0,0.0,0.0,0.0,0.0,0.0,0.0,0.0,0.0,0.0,0.0,0.0,0.0,0.0,0.0,0.0,0.0,0.0,0.0,0.0,0.0,0.0,0.0,0.0,0.0,0.0,0.0,0.0,0.0,0.0,0.0,0.0,0.0,0.0,0.0,0.0,0.0,0.0,0.0,0.0,0.0,4.8917,5.1623,5.3518,5.3518,5.4106,5.3648,5.1469,5.0502,4.8793,4.5983,0.0,0.0,0.0,0.0,0.0,0.0,0.0,0.0,0.0,0.0,0.0,0.0,0.0,0.0,0.0,0.0,0.0,0.0,0.0,0.0,0.0,0.0,0.0,0.0,0.0,0.0,0.0,0.0,0.0,0.0,0.0,0.0,0.0,0.0,0.0,0.0,0.0,0.0,0.0,0.0,0.0,0.0,0.0,0.0,0.0,0.0,0.0,0.0,0.0,0.0,0.0,0.0,0.0,0.0,0.0,0.0,0.0,0.0,0.0,0.0,4.5896,4.4956,0.0,0.0,0.0,0.0,0.0,0.0,0.0,0.0,0.0,0.0,0.0,0.0,0.0,0.0,0.0,0.0,0.0,0.0,0.0,0.0,0.0,0.0,0.0,0.0,0.0,0.0,0.0,0.0,0.0,0.0,0.0,0.0,0.0,0.0,0.0,0.0,0.0,0.0,0.0,0.0,4.8917,5.1623,5.3518,5.3518,5.3651,5.3277,5.2181,5.0341,4.847,4.6665,4.4722,0.0,0.0,0.0,0.0,0.0,0.0,0.0,0.0,0.0,0.0,0.0,0.0,0.0,0.0,0.0,0.0,0.0,0.0,0.0,0.0,0.0,0.0,0.0,0.0,0.0,0.0,0.0,0.0,0.0,0.0,0.0,0.0,0.0,0.0,0.0,0.0,0.0,0.0,0.0,0.0,0.0,0.0,0.0,0.0,0.0,0.0,0.0,0.0,0.0,0.0,0.0,0.0,0.0,0.0,0.0,0.0,0.0,0.0,0.0,4.8842,4.7812,0.0,0.0,0.0,0.0,0.0,0.0,0.0,0.0,0.0,0.0,0.0,0.0,0.0,0.0,0.0,0.0,0.0,0.0,0.0,0.0,0.0,0.0,0.0,0.0,0.0,0.0,0.0,0.0,0.0,0.0,0.0,0.0,0.0,0.0,0.0,0.0,0.0,0.0,0.0,0.0,4.9424,5.186,5.3518,5.3518,5.3833,5.354,5.24,5.0968,4.9304,4.7458,4.5229,0.0,0.0,0.0,0.0,0.0,0.0,0.0,0.0,0.0,0.0,0.0,0.0,0.0,0.0,0.0,0.0,0.0,0.0,0.0,0.0,0.0,0.0,0.0,0.0,0.0,0.0,0.0,0.0,0.0,0.0,0.0,0.0,0.0,0.0,0.0,0.0,0.0,0.0,0.0,0.0,0.0,0.0,0.0,0.0,0.0,0.0,0.0,0.0,0.0,0.0,0.0,0.0,0.0,5.3948,5.4792,5.5464,5.6136,5.5885,5.4832,5.331,5.2072,5.1046,5.1036,0.0,0.0,0.0,0.0,0.0,0.0,0.0,0.0,0.0,0.0,0.0,0.0,0.0,0.0,0.0,0.0,0.0,0.0,0.0,0.0,0.0,0.0,5.3045,5.3004,5.2927,5.2173,4.9674,0.0,0.0,0.0,0.0,0.0,0.0,0.0,0.0,0.0,0.0,0.0,5.0015,5.2097,5.3518,5.3518,5.4042,5.3912,5.2636,5.1881,5.0508,4.8237,4.6244,4.4756,0.0,0.0,0.0,0.0,0.0,0.0,0.0,0.0,0.0,0.0,0.0,0.0,0.0,0.0,0.0,0.0,0.0,0.0,0.0,0.0,0.0,0.0,0.0,0.0,0.0,0.0,0.0,0.0,0.0,0.0,0.0,0.0,4.8976,4.9013,0.0,0.0,0.0,0.0,0.0,0.0,0.0,0.0,0.0,0.0,0.0,0.0,0.0,5.1903,5.27,5.4792,5.5978,5.6187,5.84,5.949,5.9612,5.9722,6.0053,6.0518,6.0285,0.0,5.2114,5.2032,0.0,0.0,0.0,0.0,0.0,0.0,0.0,0.0,0.0,0.0,0.0,0.0,0.0,0.0,0.0,0.0,0.0,0.0,0.0,0.0,0.0,0.0,5.7031,5.6365,5.5775,5.5304,5.4905,5.2103,4.942,4.857,4.7498,4.6632,0.0,0.0,0.0,0.0,0.0,0.0,5.0083,5.2097,5.3518,5.3518,5.3584,5.3584,5.3348,5.2618,5.121,4.8984,4.7988,4.6838,4.5452,4.4099,0.0,0.0,0.0,0.0,0.0,0.0,0.0,0.0,0.0,0.0,0.0,0.0,0.0,0.0,0.0,0.0,0.0,0.0,0.0,0.0,0.0,0.0,0.0,0.0,0.0,0.0,0.0,0.0,0.0,4.937,5.0775,5.0288,5.1059,5.1132,0.0,0.0,0.0,0.0,0.0,0.0,0.0,0.0,0.0,5.5978,5.6492,5.7556,5.9318,6.0382,6.1374,6.2254,6.3319,6.4053,6.4494,6.4494,6.4677,6.502,6.502,6.3205,6.0028,5.678,5.4897,5.3896,0.0,0.0,0.0,0.0,5.3712,5.4153,5.5071,5.5354,5.5328,5.5144,0.0,0.0,0.0,0.0,0.0,0.0,0.0,5.5952,5.7373,5.8547,5.9501,6.004,5.9981,5.9784,5.9784,5.8092,5.5456,5.1706,5.1123,5.0561,4.8414,4.7413,0.0,0.0,0.0,5.0556,5.186,5.3247,5.4126,5.4126,5.4126,5.3957,5.3551,5.2773,5.1894,5.0913,4.9375,4.8022,4.6974,4.6297,4.5759,0.0,0.0,0.0,0.0,0.0,0.0,0.0,0.0,0.0,0.0,0.0,0.0,0.0,0.0,0.0,0.0,0.0,0.0,0.0,0.0,0.0,0.0,0.0,0.0,0.0,0.0,0.0,0.0,5.1977,5.3162,5.216,5.3812,5.4242,0.0,0.0,0.0,0.0,0.0,0.0,5.626,5.7629,5.9391,6.1618,6.2242,6.3576,6.5608,6.5852,6.6549,6.7724,6.7944,6.8348,6.8949,6.8949,6.8949,6.8949,6.8949,6.8348,6.699,6.1741,5.8731,5.7262,5.5673,5.5049,5.5196,5.6381,5.6943,5.731,5.851,5.8914,5.8767,5.8008,5.7641,5.7189,5.5757,0.0,0.0,0.0,0.0,5.8045,6.0676,6.1337,6.1704,6.3123,6.3453,6.3453,6.3453,6.3135,6.1138,5.5366,5.488,5.4285,5.0801,4.9575,0.0,4.9523,5.0371,5.1589,5.3281,5.4296,5.4871,5.4871,5.4702,5.4363,5.3822,5.3078,5.2536,5.23,5.0744,4.951,4.8766,4.8572,4.7697,4.6095,0.0,0.0,0.0,0.0,0.0,0.0,0.0,0.0,0.0,0.0,0.0,0.0,0.0,0.0,0.0,0.0,0.0,0.0,0.0,0.0,0.0,0.0,0.0,0.0,0.0,0.0,0.0,0.0,0.0,5.5548,5.8143,0.0,0.0,0.0,0.0,5.9857,6.1398,6.3013,6.4591,6.5485,6.6696,6.8348,6.8444,6.8898,6.9779,7.0573,7.0977,7.1087,7.1821,7.2239,7.2275,7.2275,7.2275,7.2275,7.2275,7.1358,6.9596,6.5498,6.3246,6.2279,6.0676,6.0052,6.0052,6.0126,6.0639,6.1312,6.1386,6.1422,6.1679,6.3185,6.3099,6.2279,6.141,6.119,0.0,0.0,6.1851,6.2683,6.3662,6.3919,6.4139,6.4958,6.5178,6.5178,6.5178,6.5742,6.4838,6.0003,5.7942,5.6214,5.3797,0.0,5.1987,5.121,5.2351,5.3382,5.3484,5.4752,5.5631,5.5631,5.5006,5.4583,5.455,5.3856,5.3112,5.2367,5.2198,5.1792,5.1066,5.0371,5.0275,5.0835,4.7445,0.0,0.0,0.0,0.0,0.0,0.0,0.0,0.0,0.0,0.0,0.0,0.0,0.0,0.0,0.0,0.0,0.0,0.0,0.0,0.0,0.0,0.0,0.0,0.0,0.0,0.0,0.0,0.0,6.1055,6.3442,0.0,6.2781,6.3392,6.4237,6.5057,6.6586,6.8201,6.9853,7.0697,7.1615,7.2738,7.2775,7.2885,7.3193,7.3472,7.3619,7.3619,7.3913,7.4023,7.4023,7.4023,7.4023,7.4023,7.4023,7.3729,7.3046,7.1064,6.8274,6.5081,6.3967,6.3563,6.36,6.4127,6.4494,6.4824,6.5351,6.5534,6.5534,6.5632,6.5081,6.4371,6.4077,6.398,6.409,6.4604,6.4971,6.5485,6.6843,6.7173,6.7393,6.8201,6.8385,6.8385,6.8385,6.8605,6.8,6.5271,6.2621,5.991,5.7038,5.5484,5.4335,5.3533,5.3856,5.4532,5.5513,5.6089,5.6409,5.6409,5.619,5.5615,5.4668,5.4363,5.389,5.3112,5.3078,5.2953,5.2707,5.2442,5.1878,5.101,4.9397,4.8124,0.0,0.0,0.0,0.0,0.0,0.0,0.0,0.0,0.0,0.0,0.0,0.0,0.0,0.0,0.0,0.0,0.0,0.0,0.0,0.0,0.0,0.0,0.0,0.0,0.0,6.2218,6.5375,6.5668,6.8825,7.0403,6.9045,6.9926,7.0807,7.1335,7.262,7.3964,7.5322,7.5873,7.6423,7.6922,7.6959,7.6812,7.657,7.657,7.657,7.657,7.657,7.6423,7.6151,7.6151,7.5968,7.5711,7.5711,7.5564,7.527,7.4735,7.2459,6.9229,6.8151,6.771,6.7784,6.8348,6.8531,6.8605,6.9119,6.9302,6.9229,6.8715,6.7981,6.7307,6.7307,6.7123,6.71,6.7907,6.8128,6.8385,6.9435,6.9692,6.9765,7.0036,7.011,7.011,7.011,7.011,6.9706,6.8348,6.5932,6.307,5.9924,5.827,5.7093,5.6322,5.6447,5.6947,5.7912,5.8256,5.8204,5.7652,5.7139,5.6336,5.5074,5.4735,5.4296,5.3551,5.3701,5.375,5.3502,5.3985,5.3575,5.2149,5.1,4.9506,4.7676,0.0,0.0,0.0,0.0,0.0,0.0,0.0,0.0,0.0,0.0,0.0,0.0,0.0,0.0,0.0,0.0,0.0,0.0,0.0,0.0,0.0,0.0,0.0,6.3306,6.7247,7.0036,6.9398,7.4169,7.6592,7.4309,7.6937,7.8809,7.8809,7.9522,8.0293,8.1122,8.1122,8.1085,8.1085,8.1048,8.0645,7.989,7.989,7.989,7.989,7.989,7.9449,7.8662,7.8662,7.8222,7.7399,7.7362,7.6885,7.6166,7.6166,7.5689,7.483,7.3193,7.2569,7.2569,7.2569,7.2569,7.2569,7.2569,7.2569,7.2569,7.2569,7.2041,7.1417,7.1417,7.0881,7.0403,7.1197,7.1417,7.1417,7.1417,7.138,7.116,7.0403,7.0183,7.0183,7.0183,7.0183,6.9926,6.9119,6.76,6.548,6.2338,6.1104,6.0281,5.9612,6.0114,0.0,6.0544,6.1136,6.0931,5.9299,5.7845,5.6687,5.5855,5.5143,5.4398,5.3585,5.4134,5.4179,5.3483,5.4892,5.5312,5.4554,5.229,5.0099,4.7974,0.0,0.0,0.0,0.0,0.0,0.0,0.0,0.0,0.0,0.0,0.0,0.0,0.0,0.0,0.0,0.0,0.0,0.0,0.0,0.0,0.0,6.8995,7.149,6.9288,7.2129,7.5469,7.8222,8.0408,8.1913,8.2406,8.2774,8.3177,8.3765,8.3471,8.3618,8.4425,8.3361,8.272,8.272,8.2186,8.1746,8.1542,8.1542,8.1542,8.1542,8.1542,8.1122,8.0351,8.0351,7.9874,7.9066,7.8516,7.8112,7.7855,7.7215,7.6848,7.6481,7.4867,7.4243,7.4243,7.4243,7.4243,7.4243,7.4243,7.4243,7.4243,7.4243,7.4096,7.3913,7.3913,7.3766,7.3634,7.3839,7.3913,7.3913,7.3913,7.3487,7.2973,7.2767,7.2239,7.1835,7.1835,7.1835,7.1431,7.0036,6.8888,6.73,6.4708,6.3581,6.2761,6.198,6.2029,6.1978,6.1379,6.0963,6.0523,6.0011,5.9647,5.8853,5.7413,5.7709,5.6935,5.439,5.4411,5.4677,5.5062,5.5469,5.5571,5.5316,5.2996,5.1825,0.0,0.0,0.0,0.0,0.0,0.0,0.0,0.0,0.0,0.0,0.0,0.0,0.0,0.0,0.0,0.0,0.0,0.0,0.0,0.0,0.0,0.0,7.5197,7.8316,7.7913,7.9213,8.1158,8.3875,8.5216,8.628,8.7215,8.6885,8.6664,8.6811,8.6371,8.6297,8.6775,8.593,8.5416,8.5416,8.4976,8.4535,8.4205,8.4205,8.4205,8.4205,8.3875,8.3287,8.2517,8.217,8.1562,8.0771,7.9947,7.9617,7.9543,7.8699,7.8369,7.817,0.0,0.0,0.0,0.0,7.5894,7.5894,7.5894,7.5894,7.5894,7.5894,7.5674,7.538,7.538,7.516,7.4977,7.5307,7.538,7.538,7.538,7.5065,7.4625,7.4294,7.3854,7.3509,7.3509,7.323,7.2642,7.1358,7.0427,0.0,6.7564,6.5692,6.444,6.4352,6.4338,6.4194,6.3696,6.2952,6.2153,6.1443,6.0792,5.991,5.8622,5.8673,0.0,0.0,0.0,5.5662,5.6128,5.6164,0.0,0.0,0.0,5.4624,5.477,5.5061,0.0,0.0,5.3677,5.3641,0.0,0.0,0.0,0.0,0.0,0.0,0.0,0.0,0.0,0.0,0.0,0.0,0.0,0.0,0.0,0.0,8.1473,8.4922,8.7344,8.7142,8.6921,8.7344,8.8666,8.9583,8.9657,8.9657,8.9363,8.8647,8.8536,8.8463,8.8463,8.839,0.0,0.0,0.0,8.7986,8.7271,8.7271,8.7271,8.7271,8.6554,8.5783,8.4976,8.4262,8.3471,8.2553,8.1746,8.1342,8.1232,8.0388,8.0036,7.9779,7.8206,7.7582,7.7582,7.7582,7.7509,7.7436,7.7436,0.0,0.0,7.7289,7.6812,7.624,7.624,7.5763,7.5307,7.6019,7.624,7.624,7.624,7.6166,7.5909,7.5197,7.4977,7.4903,7.4903,7.4258,7.345,7.2679,7.1857,7.105,7.022,6.7621,6.5938,6.6676,6.6769,6.6696,6.6512,6.5786,6.4725,6.3227,6.1862,0.0,5.9909,5.9198,5.8388,5.7491,5.737,5.7313,5.7192,5.7288,5.7324,5.7324,5.796,5.7997,5.7471,5.8902,5.9747,5.9943,5.6904,5.6119,0.0,0.0,0.0,0.0,0.0,0.0,0.0,0.0,0.0,0.0,0.0,0.0,0.0,0.0,0.0,8.2517,8.6023,8.9106,9.1583,9.2354,9.195,9.0115,9.0188,9.0629,9.1253,9.1326,9.1253,9.1106,9.0519,9.0152,9.0152,8.951,8.9179,8.9179,8.9179,8.9106,8.8959,8.8959,8.8959,8.8923,8.8776,0.0,8.7509,8.7325,8.6481,8.5066,8.4242,8.3544,8.2867,8.2076,8.1342,8.0681,7.969,7.9323,7.9323,7.9323,7.8919,7.8369,7.8369,7.7876,7.7289,7.7289,7.7179,7.7069,7.7069,7.6959,0.0,7.7032,7.7069,7.7069,7.7069,7.6607,7.6056,7.5909,7.538,7.4903,7.4903,7.4258,7.345,7.2679,7.1857,7.105,7.022,6.9558,6.8966,6.8504,6.8458,6.7981,6.6659,6.5747,6.5055,6.4686,6.4426,6.3935,6.3083,6.2962,6.229,6.0794,6.0675,6.0396,5.971,6.0346,6.0676,6.0676,6.0199,6.0481,6.1655,6.1949,6.3123,6.5007,6.1773,6.0047,0.0,0.0,0.0,0.0,0.0,0.0,0.0,0.0,0.0,0.0,0.0,7.4096,7.7362,0.0,8.4462,8.7729,9.0629,9.2886,9.4134,9.4997,9.474,9.2684,9.2464,9.2611,9.3015,9.3051,9.3051,9.3051,9.2684,9.2464,9.2464,9.1693,9.1235,9.1235,9.0831,9.0592,9.0592,9.0592,9.0592,9.0592,9.017,8.9767,8.9381,8.8977,8.8335,8.7545,8.6738,8.5967,8.5106,8.3911,8.292,8.2207,8.2186,8.1211,7.9816,7.9816,7.9559,7.9155,7.8736,7.8589,7.8405,7.7582,7.7582,7.7876,7.7436,7.7289,7.7289,7.7289,7.7289,7.7289,7.7289,7.6995,7.6702,7.6702,7.6371,7.6114,7.6114,7.516,7.4184,7.3766,7.3046,7.2386,7.1982,7.2239,7.1835,6.9816,6.9486,6.9192,6.8421,6.7583,6.7016,6.6988,6.6652,6.6251,6.5823,6.5507,6.4751,6.3539,6.3466,6.3282,6.2866,6.3246,6.3466,6.3466,6.3466,6.387,6.464,6.5472,6.6696,6.8261,6.6531,6.4791,0.0,0.0,0.0,0.0,0.0,0.0,0.0,6.7173,6.9853,7.3399,7.6922,8.0555,8.4352,8.7435,9.0188,9.2666,9.4813,9.6226,9.6428,9.7126,9.7163,9.5841,9.5144,9.4703,9.4556,9.452,9.4483,9.4299,9.4299,9.4299,9.4299,9.3675,9.3345,9.3345,9.2648,9.2281,9.2281,9.2281,9.2207,9.2024,9.14,9.0996,9.0812,9.017,8.9767,8.9583,8.8793,8.8059,8.7344,8.5747,8.4665,8.4115,8.4462,8.303,8.0697,8.055,8.0293,7.9963,7.9286,7.9412,7.9596,7.8206,7.8185,7.8479,7.7766,7.7436,7.7289,7.7289,7.7289,7.7289,7.7289,7.7289,7.7289,7.7289,7.7289,7.7289,7.7289,7.6151,7.5124,7.5124,7.4478,7.3927,7.3927,7.4478,7.3913,7.0991,7.055,7.044,7.0146,6.9522,6.9119,6.9119,6.8531,6.8178,6.8178,6.7577,6.6916,6.6292,6.6389,6.6463,6.6463,6.6609,6.6683,6.6683,6.7357,6.7724,6.7907,6.9192,7.0257,7.1013,7.0666,6.9157,6.1263,6.234,6.447,6.7173,6.8568,7.0954,0.0,7.8002,7.8552,8.3214,8.5673,8.7802,9.0463,9.2391,9.441,9.6851,9.8043,9.8961,9.9659,10.0523,10.089,10.0706,9.8154,9.6171,9.5418,9.5364,9.507,9.4336,9.4299,9.4299,9.4299,9.4189,9.4153,9.4153,9.4079,9.4006,9.4006,9.4006,9.3639,9.2941,9.2868,9.2427,9.1657,9.1583,9.1143,9.0427,8.962,8.9216,8.8996,8.7381,8.6684,8.6464,8.5123,8.4389,8.3985,8.3234,8.2113,8.0865,8.0755,8.0314,7.9779,7.9596,7.9103,7.8589,7.8479,7.7913,7.7289,7.7289,7.7289,7.7289,7.7289,7.7289,7.7289,7.7289,7.7289,7.7289,7.7289,7.6592,7.5983,7.5983,7.5322,7.4757,7.4757,7.483,7.428,7.2496,7.2239,7.1725,7.0293,7.0,6.9963,6.9963,6.9889,6.9816,6.9816,6.9743,6.9669,6.9559,7.0243,7.0646,7.0646,7.1307,7.1688,7.1688,7.1798,7.2165,7.2899,7.3083,7.3597,7.4338,7.3418,7.1679,6.754,6.9155,7.0697,7.2041,7.5139,7.8516,8.1122,8.2627,8.4609,8.85,9.1363,9.3749,9.5731,9.7016,9.8264,9.9752,10.0686,10.131,10.1604,10.2815,10.3109,10.1698,10.0686,9.9695,9.8411,9.83,9.797,9.7163,9.7089,9.7089,9.7089,9.6208,9.5694,9.5694,9.4777,9.4299,9.4299,9.4299,9.4116,9.3786,9.3786,9.3345,9.2574,9.2574,9.2097,9.1253,9.0427,9.0097,8.995,8.8353,8.7435,8.6904,8.6261,8.5416,8.4499,8.3711,8.2977,8.2243,8.1342,8.1085,8.1064,8.011,7.9874,7.9837,7.8883,7.8369,7.7949,7.7436,7.7289,7.7289,7.7289,7.7289,7.7289,7.7289,7.7289,7.7289,7.7289,7.6665,7.6093,7.6093,7.5836,7.5616,7.5616,7.5968,7.5894,7.4771,7.4221,7.3656,7.2973,7.2899,7.2899,7.2899,7.2899,7.2899,7.2899,7.2899,7.2899,7.2899,7.3215,7.3399,7.3399,7.3729,7.3891,7.3891,7.3891,7.4059,7.4404,7.4404,7.4516,7.4692,7.3683,7.2383,7.2092,7.4331,7.6188,7.7289,8.1509,8.5326,8.5233,8.7362,9.0188,9.3198,9.5694,9.7933,9.9769,10.0613,10.131,10.2301,10.3182,10.3696,10.3696,10.4483,10.4216,10.1602,10.1808,10.1409,9.9936,10.0306,10.0393,9.9805,9.9769,9.9769,9.9769,9.8447,9.7676,9.7676,9.6355,9.5621,9.5621,9.5401,9.518,9.496,9.474,9.4226,9.3418,9.3198,9.2758,9.2097,9.1289,9.0922,9.0812,8.9417,8.8536,8.7932,8.7491,8.6628,8.5453,8.4462,8.3785,8.3271,8.2333,8.2223,8.2333,8.1158,8.1048,8.1085,7.969,7.9103,7.8736,7.7913,7.7656,7.7582,7.7362,7.7289,7.7289,7.7289,7.7289,7.7289,7.7289,7.6848,7.6423,7.6423,7.6423,7.6423,7.6423,7.6922,7.7105,7.6533,7.5931,7.5417,7.494,7.4903,7.4903,7.4903,7.4903,7.4977,7.5197,7.5014,7.5087,7.5527,7.5344,7.5307,7.5564,7.5564,7.5564,7.5564,7.5564,7.5564,7.5564,7.5564,7.5353,7.4906,7.3884,7.2925,7.3193,7.6019,7.9433,8.3324,8.7362,9.0812,9.2391,9.4042,9.5934,9.8374,9.8941,9.9769,10.2191,10.2595,10.3089,10.4703,10.5715,10.6302,10.6302,10.5605,10.411,10.1288,10.0589,9.9899,9.8665,10.0297,10.1514,10.1384,10.1384,10.1384,10.1384,10.0613,10.0209,10.0209,9.9402,9.8941,9.8941,9.819,9.7383,9.6612,9.5841,9.5034,9.4226,9.3455,9.3088,9.3015,9.2134,9.1767,9.1693,9.0886,9.0519,9.0335,8.8757,8.8133,8.7912,8.6297,8.4756,8.3491,8.4242,8.4005,8.3344,8.3308,8.2774,8.2003,8.1195,8.0388,7.9596,7.8772,7.8552,7.8369,7.7509,7.7289,7.7289,7.7289,7.7289,7.7289,7.7289,7.7289,7.7252,7.7252,7.7252,7.7252,7.7252,7.7289,7.7289,7.7289,7.7252,7.6665,7.5087,7.4903,7.4903,7.4903,7.4903,7.5197,7.6019,7.5344,7.5564,7.7142,7.6481,7.6423,7.7179,7.7252,7.7252,7.7252,7.7252,7.7252,7.7252,7.7252,7.672,7.5734,7.4722,7.3753,7.7671,8.1672,8.5673,8.8647,9.2831,9.6392,9.6942,9.8337,9.9715,10.0503,10.0283,10.0099,10.098,10.109,10.1788,10.399,10.5495,10.6617,10.7095,10.7902,10.66,10.1905,10.1414,10.0818,9.9041,9.9972,10.109,10.2191,10.2301,10.2485,10.3093,10.2301,10.1604,10.109,10.0319,9.9659,9.9108,9.8851,9.83,9.7456,9.6135,9.5345,9.507,9.4263,9.3602,9.3088,9.2794,9.2317,9.173,9.0922,9.0592,9.0482,8.94,8.8996,8.8849,8.7802,8.6701,8.5656,8.4903,8.4425,8.4205,8.4205,8.3654,8.2957,8.2647,8.1672,8.0534,8.0277,7.98,7.9229,7.8369,7.8185,7.8038,7.7436,7.7289,7.7289,7.7289,7.7289,7.7289,7.7289,7.7289,7.7472,7.8075,7.8185,7.8332,7.8883,7.8023,7.7105,7.6555,7.6481,7.6702,7.7304,7.7341,7.7671,7.8494,7.7818,7.7818,7.8883,7.8185,7.8112,7.8919,7.8442,7.8185,7.8185,7.7582,7.7289,7.7289,7.7289,7.6793,7.577,7.4757,7.3753,8.2647,8.6921,9.0665,9.3675,9.7419,10.0273,9.9755,10.0496,10.1104,10.0623,9.9784,9.9063,9.8654,9.8703,9.9339,10.111,10.279,10.4596,10.6313,10.6786,10.5476,10.1408,10.0502,9.9762,9.8679,9.915,10.0495,10.2885,10.3211,10.3717,10.4703,10.4284,10.3586,10.2815,10.2008,10.131,10.0796,10.0209,9.9402,9.83,9.6979,9.6355,9.6318,9.5217,9.4446,9.3932,9.3345,9.2794,9.2207,9.1363,9.1033,9.0959,9.0134,8.984,8.973,8.894,8.8299,8.7638,8.604,8.527,8.5013,8.5013,8.4682,8.4205,8.3911,8.3104,8.2186,8.1599,8.1048,8.0404,7.9302,7.9045,7.8883,7.8332,7.817,7.8096,7.7839,7.7986,7.8096,7.7803,7.8243,7.872,7.8993,7.925,7.9617,8.0131,7.9323,7.85,7.8206,7.7949,7.8206,7.9323,7.9176,7.936,8.0183,7.947,7.9265,7.9779,7.9302,7.9265,7.9779,7.9302,7.9045,7.9045,7.8479,7.806,7.7766,7.806,7.7523,7.6203,7.5488,7.444,8.781,9.1363,9.4257,9.816,10.0908,10.2301,10.0996,10.0695,10.0297,9.8933,9.7703,9.6518,9.5461,9.5625,9.608,9.6625,9.8436,10.0901,10.4115,10.2907,10.1393,10.0191,9.8384,9.7353,9.7672,9.8026,9.9801,10.3583,10.4185,10.4995,10.6301,10.6502,10.6119,10.518,10.4394,10.399,10.388,10.2301,10.0796,9.9218,9.8411,9.799,9.7843,9.6318,9.5565,9.5418,9.3896,9.3198,9.3051,9.2207,9.184,9.173,9.0959,9.0665,9.0537,8.9767,8.9473,8.9253,8.7675,8.6591,8.593,8.593,8.5857,8.5673,8.4939,8.4682,8.4278,8.281,8.2333,8.1966,8.0404,8.0,7.9963,7.9926,7.9926,7.9706,7.8883,7.936,7.9669,7.8883,8.0021,8.0901,8.011,8.0645,8.1195,8.1195,8.1158,8.0828,7.9963,7.9176,7.9323,8.0938,8.0424,8.0314,8.1122,8.0461,8.0,8.0,7.9963,7.9926,8.0,7.9926,7.9926,8.0,7.989,7.9486,7.8736,7.9449,7.8886,7.7137,7.6829,7.579,8.9639,9.3486,9.6743,9.8979,10.0884,10.2192,10.1806,10.1283,10.0499,9.869,9.5806,9.3235,9.2063,9.2646,9.4057,9.6446,9.9504,10.239,10.5024,10.5424,10.4492,10.1792,10.0712,9.9894,9.9156,9.8963,10.0305,10.3903,10.4611,10.5392,10.6502,10.7621,10.7514,10.6082,10.5899,10.5222,10.388,10.2889,10.1898,10.0927,10.0099,9.9071,9.7897,9.7456,9.6649,9.5455,9.5051,9.4207,9.3088,9.2868,9.2391,9.1767,9.1583,9.1473,9.14,9.0592,9.028,9.0134,8.9143,8.828,8.7582,8.7582,8.6775,8.5857,8.6261,8.5563,8.4646,8.4829,8.4462,8.3765,8.2737,8.248,8.2333,8.1709,8.1615,8.1379,8.0571,8.1012,8.1342,8.0534,8.1693,8.272,8.2517,8.3141,8.3691,8.3691,8.3161,8.228,8.0865,8.0498,8.1012,8.261,8.2574,8.281,8.3618,8.2957,8.248,8.248,8.1929,8.1856,8.248,8.1893,8.1856,8.248,8.1305,8.0608,8.0388,7.9984,7.9558,7.9077,7.8202,7.7135,9.3434,9.6896,9.9596,10.0505,10.1688,10.1901,9.9341,9.8871,9.7817,9.3818,9.1503,8.9477,8.7182,8.9271,9.1599,9.2385,9.7093,10.1478,10.3888,10.4694,10.4803,10.3791,10.2507,10.1681,10.1791,10.0982,10.1478,10.419,10.5308,10.6279,10.748,10.8705,10.8799,10.7477,10.7498,10.6706,10.4981,10.421,10.3293,10.2485,10.1404,10.0413,9.9458,9.8741,9.775,9.6539,9.6171,9.5308,9.4153,9.3786,9.3345,9.2868,9.2501,9.2354,9.2281,9.1436,9.1143,9.1069,9.0629,8.9931,8.9197,8.883,8.7876,8.6995,8.7785,8.7161,8.6261,8.6738,8.6518,8.5894,8.4756,8.4462,8.4352,8.3875,8.3508,8.3141,8.27,8.292,8.3214,8.3141,8.3838,8.4682,8.538,8.5306,8.5233,8.56,8.5253,8.4629,8.3748,8.2684,8.2663,8.4278,8.4132,8.4242,8.5049,8.4389,8.3931,8.3931,8.3508,8.3471,8.3895,8.3508,8.3471,8.3911,8.303,8.2406,8.206,8.1929,8.1542,8.0849,8.0108,7.8831,9.7559,10.0105,10.1819,10.1978,10.2313,10.1228,9.5885,9.5009,9.3595,8.7586,8.6462,8.5636,8.2524,8.596,8.8894,8.7743,9.3623,9.9313,10.2196,10.2908,10.3686,10.5399,10.3806,10.3086,10.4496,10.3507,10.3383,10.4827,10.6308,10.7401,10.8191,10.9088,10.9282,10.8705,10.8785,10.8101,10.6706,10.6009,10.5107,10.421,10.2779,10.1918,10.1514,10.0099,9.8924,9.8007,9.7309,9.6502,9.5602,9.4923,9.4483,9.4226,9.3529,9.3198,9.3015,9.2244,9.1913,9.1803,9.1803,9.1326,9.0629,8.9803,8.8996,8.85,8.9179,8.8923,8.8353,8.8353,8.8353,8.8059,8.6628,8.6261,8.6261,8.6261,8.5747,8.5196,8.4976,8.4939,8.5196,8.6114,8.6261,8.6701,8.8133,8.7215,8.6518,8.7198,8.7308,8.7308,8.7308,8.5399,8.4609,8.6114,8.5637,8.5527,8.6224,8.5527,8.5049,8.4939,8.4939,8.4939,8.4939,8.5013,8.5123,8.5233,8.5049,8.4572,8.3858,8.4352,8.3875,8.25,8.2141,8.0553,9.8458,9.972,10.0705,10.1418,10.019,9.8322,9.6079,9.3038,8.9924,8.7316,8.4347,8.2282,8.2636,8.4007,8.6359,9.032,9.3946,9.7951,10.2711,10.3514,10.3818,10.4784,10.4481,10.438,10.4718,10.5514,10.6177,10.6519,10.7908,10.7718,10.5404,10.6607,10.7478,10.8015,10.8512,10.8688,10.8395,10.8211,10.7404,10.5993,10.5678,10.41,10.1514,10.122,10.0283,9.8888,9.8741,9.786,9.6502,9.6355,9.5511,9.4299,9.4153,9.3675,9.3088,9.2941,9.2427,9.1803,9.1803,9.1693,9.1473,9.0665,8.984,8.9216,8.9363,8.929,8.9179,8.9179,8.9179,8.9143,8.8849,8.8776,8.8776,8.8776,8.8666,8.8189,8.6867,8.6574,8.7014,8.8482,8.8776,8.8849,8.9143,8.8959,8.8812,8.8959,8.8996,8.8996,8.8996,8.8059,8.7729,8.8666,8.8666,8.8629,8.8739,8.8059,8.7288,8.6611,8.6574,8.6574,8.6574,8.7215,8.7876,8.8556,8.7271,8.65,8.6354,8.5196,8.4462,8.4152,8.3157,8.1681,9.9863,10.0811,10.1318,10.0912,9.9085,9.6459,9.2844,8.9532,8.6398,8.3397,8.1328,8.004,7.9984,8.2478,8.5298,8.7656,9.172,9.6242,10.1109,10.2198,10.328,10.5614,10.5479,10.5411,10.5783,10.61,10.631,10.631,10.7002,10.7422,10.749,10.8517,10.921,10.9607,10.9504,10.9386,10.9386,10.8982,10.8395,10.7587,10.678,10.5626,10.399,10.3109,10.1898,10.0319,10.0319,9.9438,9.797,9.797,9.7236,9.6135,9.5694,9.507,9.4299,9.3896,9.3198,9.2464,9.2464,9.217,9.173,9.1363,9.0702,9.0097,9.0519,9.0354,9.0097,9.0537,9.0665,9.0555,9.0134,9.0024,9.0024,9.0024,9.0024,8.9693,8.8519,8.8592,8.8959,8.9326,8.973,9.0024,9.0024,8.9693,8.9546,8.995,9.0024,9.0024,9.0024,9.0041,8.9895,8.9436,8.94,8.94,8.94,8.9033,8.8666,8.8262,8.8262,8.8262,8.8262,8.8629,8.8996,8.94,8.8629,8.8262,8.8262,8.7068,8.6261,8.584,8.4857,8.3094,10.098,10.1893,10.2198,10.0811,9.8442,9.5145,9.0103,8.6795,8.3728,8.0017,7.9023,7.8558,7.7706,8.0941,8.3961,8.4739,8.9153,9.4219,9.9241,10.0912,10.2908,10.6494,10.6697,10.6697,10.7103,10.6595,10.6223,10.5987,10.6183,10.7105,10.9115,10.9922,11.0385,11.0709,11.0392,11.0325,11.0325,10.9606,10.9202,10.9019,10.7807,10.7021,10.6596,10.5091,10.3586,10.2322,10.2101,10.12,9.9879,9.9695,9.9035,9.808,9.7273,9.6355,9.5418,9.4777,9.4042,9.3345,9.3345,9.2905,9.2317,9.2317,9.1657,9.0996,9.162,9.1363,9.0996,9.162,9.1803,9.1657,9.1033,9.0849,9.0849,9.0849,9.0739,9.0464,8.9987,9.028,9.0482,8.9987,9.0427,9.0849,9.0849,9.0317,9.0134,9.0776,9.0849,9.0849,9.0849,9.14,9.1326,9.006,8.9913,8.9913,8.9913,8.9767,8.9657,8.9657,8.9657,8.9657,8.9657,8.9803,8.9913,8.9913,8.973,8.9657,8.9657,8.8867,8.8133,8.7491,8.6354,8.4395,10.1214,10.1893,10.2299,10.1487,9.807,9.4131,9.1178,8.6867,8.2798,8.0473,7.8872,7.8019,7.8332,7.9068,8.0951,8.5032,8.7823,9.1776,9.8304,10.1014,10.3517,10.6494,10.8118,10.8591,10.8016,10.7779,10.7509,10.6798,10.7392,10.7285,10.6304,10.6786,10.7793,10.9196,11.0403,11.1111,11.1111,11.1001,11.0597,10.9922,10.9679,10.8894,10.7498,10.6617,10.5678,10.4703,10.399,10.3182,10.2301,10.1604,10.0393,9.8924,9.808,9.6832,9.5492,9.5418,9.4887,9.4189,9.4189,9.4116,9.4079,9.4079,9.2978,9.1693,9.1767,9.173,9.1693,9.1767,9.1803,9.1767,9.1693,9.1693,9.1693,9.1693,9.1143,9.0776,9.1436,9.1069,9.0812,9.1436,9.1657,9.1693,9.1693,9.162,9.1583,9.1693,9.1693,9.1693,9.1693,9.173,9.173,9.1583,9.1583,9.1583,9.1583,9.0922,9.0482,9.0482,9.0482,9.0482,9.0482,9.1179,9.1583,9.1583,9.0849,9.0482,9.0482,8.9693,8.9253,8.9144,8.6915,8.5004,10.0605,10.1893,10.2299,10.1621,9.7664,9.3485,9.147,8.6194,8.1309,7.9776,7.8031,7.7002,7.7456,7.7672,7.9195,8.3491,8.4301,8.6833,9.3837,9.5356,9.7867,10.3585,10.558,10.7103,10.8591,10.9099,10.8896,10.7712,10.8305,10.8709,10.8499,10.8716,10.9295,11.0292,11.0903,11.1221,11.1221,11.1221,11.1001,11.0707,11.0193,10.9701,10.9004,10.7719,10.6691,10.5789,10.5018,10.421,10.3403,10.2595,10.1604,10.0393,9.9145,9.7933,9.6906,9.6392,9.5731,9.5034,9.5034,9.4703,9.4299,9.4299,9.3859,9.3308,9.3308,9.3308,9.3308,9.3308,9.3308,9.3308,9.3308,9.2941,9.2574,9.2574,9.195,9.14,9.173,9.1546,9.1436,9.173,9.1803,9.1803,9.1803,9.1803,9.1987,9.2501,9.2134,9.1987,9.2537,9.2134,9.1803,9.1803,9.1803,9.1803,9.1803,9.151,9.1326,9.1326,9.1326,9.1326,9.1326,9.162,9.1803,9.1803,9.1473,9.1326,9.1326,9.0519,9.0097,9.0079,8.7916,8.6245,9.8882,10.1081,10.1995,10.1216,9.7292,9.3151,9.1585,8.5939,8.0692,7.9608,7.8049,7.6878,7.6897,7.7266,7.8565,8.173,8.2085,8.4094,9.0277,9.142,9.3909,10.01,10.2096,10.4295,10.761,10.9302,10.9809,10.849,10.8675,10.9294,11.0209,11.0214,11.0581,11.1485,11.1588,11.1405,11.1221,11.1221,11.1221,11.1221,11.0597,11.0377,11.0304,10.8909,10.8012,10.7404,10.6302,10.5495,10.4908,10.3806,10.2815,10.1677,10.0319,9.9181,9.819,9.764,9.7052,9.6556,9.6556,9.6208,9.5731,9.5731,9.5731,9.5731,9.5731,9.5034,9.4299,9.4299,9.4299,9.4299,9.4299,9.3712,9.3088,9.3088,9.2427,9.1803,9.1803,9.1987,9.217,9.217,9.2391,9.2537,9.2537,9.2537,9.2758,9.3345,9.2941,9.2758,9.3382,9.2905,9.2537,9.2537,9.2317,9.206,9.1803,9.1803,9.1803,9.1803,9.1803,9.1803,9.1803,9.1803,9.1803,9.1803,9.1803,9.1803,9.1803,9.1216,9.0959,9.0886,8.9144,8.7246,9.5936,9.915,10.1183,10.0373,9.6886,9.3214,9.1659,8.6381,8.1492,8.0405,7.9274,7.8166,7.71,7.8111,7.9329,8.0099,8.2035,8.4776,8.8592,9.1,9.3537,9.6612,9.824,10.0608,10.4395,10.8084,11.0012,10.92,10.8524,10.8689,11.0188,11.0314,11.0907,11.2306,11.2396,11.1992,11.1221,11.1221,11.1221,11.1221,11.1221,11.1221,11.1184,11.0304,10.9995,10.9922,10.8306,10.7609,10.7425,10.5789,10.4079,10.2595,10.1808,10.0503,9.9108,9.9071,9.9052,9.9052,9.9052,9.9071,9.9071,9.9071,9.9071,9.9071,9.9071,9.6832,9.4299,9.4299,9.4299,9.4299,9.4299,9.3712,9.3088,9.3088,9.2427,9.1803,9.1803,9.2464,9.3088,9.3088,9.3712,9.4263,9.4263,9.4263,9.4263,9.4299,9.4263,9.4263,9.4299,9.4263,9.4263,9.4263,9.3565,9.2758,9.1877,9.1803,9.1803,9.1803,9.1803,9.1803,9.1803,9.1803,9.1803,9.1803,9.1803,9.1803,9.1803,9.1803,9.1803,9.1748,9.0542,8.7899,8.9173,9.188,9.3571,9.2793,9.0797,8.8667,8.7359,8.4316,8.1124,7.8698,7.8376,7.8339,7.7745,7.845,8.0103,8.3193,8.3569,8.4577,8.7641,9.0574,9.3909,9.7935,10.4701,10.9708,11.14,11.1703,11.1501,11.0825,11.1398,11.1889,11.1893,11.3288,11.3599,11.241,11.2396,11.1992,11.1221,11.1221,11.1221,11.1221,11.1221,11.1221,11.1221,11.0377,10.9995,10.99,10.8894,10.8123,10.7498,10.6413,10.5018,10.3403,10.2008,10.089,9.9842,9.9292,9.9108,9.9108,9.9108,9.9108,9.9108,9.9108,9.9108,9.9108,9.9108,9.8411,9.7456,9.6906,9.6759,9.6612,9.6061,9.4923,9.3932,9.3932,9.3272,9.2684,9.2684,9.3345,9.3932,9.3932,9.4116,9.4299,9.4299,9.4299,9.4483,9.5034,9.4666,9.4483,9.507,9.463,9.4299,9.4299,9.4079,9.3602,9.2758,9.2134,9.1803,9.1803,9.1803,9.1803,9.1803,9.1803,9.1803,9.1803,9.1803,9.1803,9.1803,9.1803,9.1379,9.0559,8.9348,8.7423,8.4437,8.7245,8.8903,8.8734,8.7347,8.5807,8.49,8.2463,7.9956,7.8506,7.8051,7.7991,7.836,7.9138,8.0531,8.2973,8.3547,8.4575,8.6997,8.977,9.347,9.851,10.6189,11.1501,11.2482,11.3092,11.3206,11.2812,11.3309,11.3593,11.3511,11.4482,11.4588,11.3291,11.2983,11.2286,11.1221,11.1221,11.1221,11.1221,11.1221,11.1221,11.1221,11.0707,11.0487,11.0414,10.9312,10.8505,0.0,10.6911,10.5605,10.421,10.2889,10.1898,10.109,10.0319,9.9989,9.9989,9.9989,9.9989,9.9989,9.9989,9.9989,9.9989,9.9989,9.9585,9.8998,9.8484,9.8337,9.8154,9.7346,9.6171,9.5034,9.4446,9.3932,9.3455,9.3161,9.3969,9.474,9.474,9.4997,9.5217,9.5217,9.5217,9.5364,9.5878,9.5547,9.5401,9.5878,9.5511,9.5217,9.5217,9.4923,9.4556,9.4042,9.2941,9.2134,9.1803,9.1803,9.1803,9.1803,9.1803,9.1803,9.1803,9.1803,9.1803,9.1803,9.1803,9.1416,9.0657,8.9453,8.7821,0.0,8.4336,8.6196,8.6805,8.552,8.3974,8.3566,8.0658,0.0,7.9212,7.8092,7.7367,7.8855,8.0028,8.0718,8.0469,8.2531,8.4791,8.6589,8.9241,9.3165,9.9051,10.4295,10.7982,10.9302,11.2583,11.4717,11.5009,11.4195,11.4095,11.5019,11.4288,11.4193,11.4809,11.4084,11.291,11.1295,11.1199,11.1221,11.1221,11.1221,11.1221,11.1221,11.1221,11.1221,11.1111,10.9606,10.8909,10.8688,10.7183,10.6009,10.4997,10.4284,10.3513,10.2595,10.1918,10.1494,10.1514,10.1514,10.1514,10.1514,10.1514,10.1494,10.1587,10.1514,10.0503,9.9255,9.9218,9.9181,9.8998,9.8117,9.7309,9.6318,9.474,9.4373,9.4189,9.3418,9.4483,9.5565,9.5565,9.6208,9.6685,9.6685,9.6685,9.6685,9.6685,9.6685,9.6685,9.6685,9.6685,9.6685,9.6685,9.6025,9.5565,9.5492,9.4079,9.2831,9.2024,9.1987,9.1987,9.1987,9.1913,9.1877,9.1877,9.184,9.1803,9.1803,9.1803,9.1803,9.1785,9.0578,8.8996,7.4424,0.0,7.7401,7.6995,7.7807,7.8524,0.0,7.7847,7.7735,7.6826,7.6771,7.7367,7.8855,8.0028,8.1235,8.2513,8.3981,8.5214,8.5945,9.3368,10.0506,10.5277,11.0485,11.3192,11.1908,11.2989,11.4411,11.5598,11.4512,11.4305,11.5813,11.5602,11.5288,11.4796,11.4598,11.3717,11.2102,11.1515,11.1221,11.1221,11.1221,11.1221,11.1221,11.1221,11.1221,11.1221,11.0817,10.99,10.8799,10.8395,10.7,10.5107,10.4908,10.399,10.2705,10.2485,10.2008,10.1514,10.1514,10.1514,10.1514,10.1514,10.1898,10.2301,10.1698,10.12,10.0796,10.0209,9.9989,9.9695,9.8264,9.7309,9.6465,9.5474,9.5217,9.5161,9.4978,9.5731,9.6428,9.6428,9.6575,9.6685,9.6685,9.6685,9.6685,9.6685,9.6685,9.6685,9.6685,9.6685,9.6685,9.6685,9.6539,9.6171,9.5547,9.4593,9.3932,9.3712,9.3712,9.3712,9.3712,9.3125,9.2794,9.2794,9.2134,9.1803,9.1803,9.1803,9.1803,9.1785,9.0578,8.9262,7.1278,7.2699,7.4153,7.4424,7.5168,7.5811,7.5709,7.5811,7.5879,7.5709,7.5777,7.6521,7.8695,8.0028,8.1354,8.303,8.5156,8.7684,9.0829,9.6831,10.2908,10.8422,11.1906,11.3699,11.3496,11.4478,11.5582,11.6519,11.6103,11.6204,11.709,11.6389,11.5589,11.4818,11.4084,11.3313,11.2396,11.1992,11.1588,11.1221,11.1221,11.1221,11.1221,11.1221,11.1221,11.1221,11.0817,10.99,10.8799,10.8395,10.7183,10.5715,10.5311,10.43,10.3219,10.2795,10.2412,10.2081,10.2081,10.2081,10.2008,10.1604,10.1808,10.2081,10.1604,10.1514,10.1404,10.1,10.089,10.0503,9.8851,9.786,9.6942,9.5804,9.5804,9.5951,9.5584,9.6428,9.7126,9.6759,9.6685,9.6685,9.6685,9.6685,9.6685,9.6685,9.6685,9.6685,9.6685,9.6685,9.6685,9.6685,9.6685,9.6502,9.608,9.5658,9.507,9.4336,9.4299,9.4299,9.4299,9.3529,9.3088,9.3088,9.2648,9.2391,9.2391,9.1987,9.1803,9.1803,9.1135,8.9883,7.0432,7.2079,7.3883,7.4796,7.4728,7.4593,7.5067,7.4322,7.3872,7.51,7.4965,7.5516,7.8526,8.0287,8.1736,8.3279,8.6415,9.0896,9.7195,9.9716,10.3111,10.9099,11.079,11.2283,11.4193,11.5721,11.6892,11.7473,11.7896,11.82,11.8418,11.6911,11.5589,11.4818,11.3497,11.2616,11.2396,11.2286,11.1882,11.1221,11.1221,11.1221,11.1221,11.1221,11.1221,11.1184,11.0304,10.9496,10.8688,10.7881,10.7095,10.6302,10.5401,10.4724,10.399,10.3182,10.2889,10.2889,10.2705,10.2705,10.2595,10.1808,10.1587,10.1698,10.1494,10.1624,10.1698,10.1514,10.1404,10.0907,9.9328,9.8411,9.7566,9.6208,9.6282,9.6539,9.6007,9.6851,9.753,9.6832,9.6795,9.6832,9.6722,9.6795,9.6832,9.6722,9.6685,9.6685,9.6685,9.6685,9.6685,9.6685,9.6685,9.6685,9.6685,9.6685,9.6135,9.474,9.4666,9.4593,9.4483,9.3822,9.3418,9.3308,9.3161,9.3088,9.3088,9.2244,9.1803,9.1803,9.1803,9.0519,7.1548,7.3206,7.4052,7.2394,7.2834,7.351,7.3037,7.3206,7.3567,7.3804,7.4255,7.5516,7.8526,8.1436,8.3776,8.5146,8.8477,9.2929,9.8982,10.2191,10.4903,10.7103,11.0283,11.2501,11.2888,11.3694,11.5612,11.8996,11.7499,11.6993,11.8308,11.6911,11.5589,11.4818,11.4598,11.3791,11.2396,11.1698,11.1295,11.1221,11.1221,11.1221,11.1221,11.1221,11.1221,11.1184,11.0304,10.9496,10.8688,10.7881,10.7095,10.6302,10.5401,10.4997,10.4777,10.399,10.3696,10.3586,10.2925,10.2705,10.2595,10.1808,10.1991,10.2412,10.1677,10.2008,10.2412,10.1698,10.098,10.0099,9.8484,9.797,9.7843,9.7566,9.7126,9.6832,9.7402,9.7199,9.6832,9.6722,9.7236,9.7493,9.6832,9.7273,9.7456,9.6795,9.6685,9.6685,9.6685,9.6685,9.6685,9.6685,9.6685,9.6685,9.6685,9.6685,9.6575,9.6355,9.6318,9.6025,9.5364,9.5198,9.4813,9.4116,9.3455,9.3088,9.3088,9.2244,9.1803,9.1803,9.1803,9.0519,7.0331,7.1988,7.3525,7.3927,7.5466,7.6929,7.7203,7.6868,7.6646,7.7076,7.7793,7.9128,8.1747,8.453,8.7701,9.1575,9.394,9.6827,10.1178,10.2505,10.4125,10.7103,10.8997,11.0903,11.3002,11.3917,11.5513,11.8184,11.7287,11.7002,11.7708,11.6617,11.5406,11.4194,11.4217,11.3387,11.1808,11.1405,11.1221,11.1221,11.1221,11.1221,11.1221,11.1221,11.1221,11.1184,11.0304,10.9496,10.8688,10.7881,10.7095,10.6397,10.6009,10.5201,10.4394,10.3513,10.3293,10.3219,10.2815,10.2999,10.3219,10.2412,10.2412,10.2595,10.2301,10.2081,10.1898,10.109,10.0613,9.9989,9.8851,9.8227,9.7916,9.7916,9.7603,9.7456,9.7843,9.7603,9.7199,9.6795,9.7346,9.7787,9.7419,9.764,9.775,9.7383,9.6979,9.6685,9.6685,9.6685,9.6685,9.6685,9.6685,9.6685,9.6685,9.6685,9.6685,9.6685,9.6685,9.6355,9.5528,9.5914,9.5768,9.496,9.4593,9.441,9.4373,9.3565,9.2941,9.2501,9.2501,9.1305,6.9688,7.1275,7.3442,7.6298,7.7676,7.8959,8.1216,8.0511,7.965,8.0532,8.1514,8.2594,8.4061,8.72,9.1449,9.7273,9.9136,10.0805,10.3723,10.3409,10.4193,10.761,10.8287,10.99,11.3404,11.4499,11.5701,11.7403,11.7293,11.7181,11.7181,11.6287,11.5075,11.3607,11.3387,11.2616,11.1221,11.1221,11.1221,11.1221,11.1221,11.1221,11.1221,11.1221,11.1111,11.0891,11.0083,10.9276,10.8505,10.7719,10.7021,10.6397,10.6192,10.5311,10.41,10.3696,10.3586,10.3513,10.3293,10.3513,10.3806,10.3182,10.2889,10.2705,10.2889,10.2412,10.1604,10.0796,10.0283,9.9842,9.9035,9.8227,9.7676,9.786,9.7769,9.7676,9.786,9.7916,9.7713,9.7089,9.7787,9.8374,9.819,9.8337,9.8337,9.7953,9.7383,9.6906,9.6722,9.6685,9.6685,9.6685,9.6685,9.6685,9.6685,9.6685,9.6685,9.6685,9.6685,9.6428,9.5804,9.6392,9.6428,9.5785,9.5602,9.5511,9.5493,9.4666,9.3747,9.2678,9.2678,9.1571,7.1413,7.2961,7.4608,7.7948,7.6543,7.5812,8.1432,8.1444,8.0636,8.1751,8.3149,8.3861,8.2768,8.781,9.378,9.8906,10.1702,10.4018,10.6322,10.7069,10.761,10.8016,10.9277,11.1101,11.3605,11.4496,11.5912,11.8179,11.7611,11.7181,11.7181,11.5676,11.4488,11.3593,11.2873,11.2102,11.1221,11.1221,11.1221,11.1221,11.1221,11.1221,11.1221,11.1221,11.0817,11.001,10.9202,10.8395,10.7609,10.678,10.6507,10.6302,10.5495,10.5107,10.5107,10.5899,10.6082,10.6009,10.5201,10.4504,10.388,10.3806,10.3293,10.2795,10.3586,10.3293,10.2412,10.1604,10.0319,9.8998,9.819,9.7383,9.6979,9.7713,9.7309,9.6979,9.775,9.7916,9.7879,9.7843,9.9071,9.9879,9.9145,9.9622,9.9622,9.8136,9.7843,9.753,9.6795,9.6685,9.6685,9.6685,9.6685,9.6685,9.6685,9.6685,9.6685,9.6685,9.6685,9.6685,9.6612,9.6685,9.6685,9.6612,9.5859,9.5492,9.5492,9.4703,9.3331,9.1433,9.1433,9.0306,7.0601,7.1986,7.3788,7.7221,7.7023,7.7688,8.412,8.5735,8.6254,8.7609,8.9457,9.0782,9.0532,9.3696,9.7354,10.0319,10.35,10.5919,10.6798,10.7509,10.7712,10.6697,10.8003,10.9583,11.151,11.2796,11.4382,11.6708,11.6617,11.6213,11.5676,11.5112,11.4194,11.291,11.2579,11.1992,11.1221,11.1221,11.1221,11.1221,11.1221,11.1221,11.1221,11.1221,11.0781,10.9995,10.9092,10.8285,10.7498,10.6119,10.5605,10.5495,10.4687,10.4687,10.5107,10.4908,10.4798,10.4798,10.4504,10.4504,10.4593,10.4593,10.41,10.3513,10.3806,10.2999,10.1788,10.098,9.9952,9.8924,9.8117,9.8043,9.8154,9.7933,9.8411,9.8888,9.8704,9.8668,9.8668,9.8668,9.9548,10.0209,9.9916,9.9695,9.9365,9.8741,9.7787,9.7052,9.6722,9.6685,9.6685,9.6685,9.7163,9.7456,9.7456,9.7897,9.797,9.7456,9.6979,9.6685,9.6685,9.6685,9.6685,9.6685,9.6392,9.6245,9.6245,9.5951,9.4733,9.2713,9.2264,9.0932,7.0136,7.1389,7.3293,7.6032,7.7349,7.9741,8.6444,8.8812,9.0247,9.2568,9.3218,9.3651,9.4633,9.6315,9.8294,10.0596,10.4295,10.7001,10.7204,10.7712,10.7509,10.5986,10.7076,10.8602,10.9884,11.1291,11.3004,11.5094,11.5185,11.5002,11.4488,11.4194,11.3497,11.2396,11.2212,11.1808,11.1221,11.1221,11.1221,11.1221,11.1221,11.1221,11.1221,11.0891,11.0414,10.9606,10.8799,10.8012,10.7073,10.6009,10.5495,10.5401,10.4614,10.4798,10.5401,10.4908,10.4687,10.4687,10.4687,10.4908,10.5107,10.5401,10.4981,10.432,10.4614,10.3607,10.2008,10.098,9.9916,9.8851,9.7787,9.7933,9.819,9.764,9.8557,9.9402,9.8851,9.9108,9.9475,9.9475,10.0099,10.0686,10.0686,10.0209,9.9695,9.9162,9.8154,9.7273,9.6759,9.6685,9.6685,9.6685,9.7419,9.7916,9.7916,9.8631,9.8888,9.83,9.775,9.7346,9.7089,9.7309,9.7346,9.7089,9.7089,9.6942,9.6685,9.6685,9.5429,9.3006,9.2525,9.1172,7.0456,7.1668,7.3463,7.4705,7.7308,8.1261,8.8001,8.9979,9.1594,9.5774,9.3246,9.0966,9.3233,9.4248,9.5939,9.9595,10.399,10.7103,10.7915,10.7982,10.7509,10.5986,10.7209,10.8388,10.9113,11.0493,11.2001,11.3503,11.3593,11.3593,11.3593,11.28,11.2396,11.2396,11.1588,11.1221,11.1221,11.1221,11.1221,11.1221,11.1221,11.1221,11.1184,11.0377,10.9591,10.8688,10.7881,10.7073,10.6376,10.6397,10.6397,10.6302,10.5401,10.5605,10.6376,10.6376,10.6376,10.6376,10.6376,10.5789,10.5311,10.6082,10.5789,10.5311,10.6119,10.5201,10.3607,10.1991,10.0319,9.8721,9.7126,9.6722,9.6722,9.6685,9.7309,9.7897,9.7897,9.9181,10.0283,10.0283,10.1,10.1514,10.1514,10.1514,10.0907,9.9365,9.9108,9.8521,9.6906,9.6685,9.6685,9.6722,9.7419,9.7897,9.7897,9.8668,9.9125,9.9108,9.9125,9.8778,9.7953,9.8668,9.8741,9.7953,9.7897,9.7493,9.6722,9.6666,9.5026,9.181,9.181,9.0678,7.0136,7.1005,7.26,7.5571,7.8579,8.2538,8.9226,9.1295,9.3336,9.8837,9.7288,9.5432,9.7157,9.7631,9.851,10.0675,10.3889,10.6392,10.7103,10.7712,10.7306,10.5309,10.6287,10.7318,10.7522,10.9418,11.1179,11.26,11.3299,11.3409,11.28,11.2506,11.2102,11.1588,11.1295,11.1221,11.1221,11.0597,11.0377,11.0304,10.979,10.979,11.0304,11.0083,10.9297,10.7881,10.7719,10.7073,10.6302,10.5091,10.4981,10.5422,10.4614,10.5091,10.6376,10.6376,10.6376,10.6376,10.6376,10.6192,10.6082,10.6302,10.5789,10.5107,10.5422,10.43,10.2815,10.1808,10.0686,9.9695,9.8668,9.797,9.7383,9.6832,9.819,9.9438,9.8888,9.9989,10.109,10.109,10.131,10.1514,10.1514,10.098,10.0503,9.9989,9.8961,9.786,9.6832,9.6685,9.6906,9.7456,9.8264,9.8961,9.9548,10.0283,10.0503,9.9989,10.0503,10.0209,9.8814,9.8961,9.8998,9.8741,9.7324,9.6903,9.753,9.6081,9.4403,9.2566,9.2035,9.0507,7.0904,7.2122,7.4082,7.7726,8.0911,8.4938,9.1913,9.4789,9.7089,10.1014,9.9424,9.7766,9.9288,9.9051,9.9254,10.1113,10.3585,10.5513,10.602,10.6697,10.6426,10.4498,10.4998,10.5696,10.5923,10.7693,10.9486,11.0902,11.1979,11.2396,11.1919,11.1919,11.1698,11.1199,11.1221,11.0979,11.0707,11.0193,10.979,10.9496,10.9019,10.8909,10.8982,10.8982,10.849,10.7609,10.7315,10.6691,10.5789,10.4394,10.4614,10.5495,10.432,10.4908,10.6376,10.6376,10.6376,10.6376,10.6376,10.6376,10.6376,10.6376,10.6009,10.5605,10.5605,10.4504,10.2999,10.2191,10.12,10.0099,9.9328,9.8741,9.8264,9.7787,9.8778,9.9769,9.9622,10.0613,10.1514,10.1514,10.1514,10.1514,10.1514,10.109,10.0706,10.0319,9.9181,9.808,9.7273,9.7456,9.786,9.83,9.9108,9.9769,10.0283,10.098,10.1294,10.0796,10.12,10.111,10.0099,10.0099,9.9642,9.8792,9.7267,9.6415,9.634,9.4819,9.3674,9.2896,9.1936,9.0651,7.2417,7.4353,7.7066,8.0791,8.4295,8.8626,9.5529,9.9387,10.169,10.2401,10.0303,9.8848,10.0303,9.939,9.9119,10.1316,10.3313,10.4599,10.47,10.5276,10.5208,10.3787,10.3585,10.382,10.4391,10.5784,10.7319,10.8698,11.0216,11.1111,11.1111,11.1184,11.1221,11.1221,11.1111,11.0707,10.9995,10.9922,10.9386,10.8688,10.8615,10.8175,10.7498,10.7609,10.7498,10.7315,10.6596,10.5789,10.4887,10.41,10.4798,10.6082,10.4504,10.4908,10.6376,10.6376,10.6376,10.6376,10.6376,10.6376,10.6376,10.6376,10.6376,10.6376,10.6376,10.5201,10.3696,10.2999,10.1677,10.0209,9.9512,9.9255,9.9255,9.9292,9.9255,9.9402,10.0099,10.0907,10.1514,10.1514,10.1514,10.1514,10.1514,10.1514,10.12,10.0393,9.9622,9.8851,9.808,9.8594,9.9071,9.9181,9.9879,10.0319,10.0393,10.111,10.1514,10.1514,10.1514,10.1514,10.1514,10.1514,10.0506,9.8451,9.759,9.6122,9.4123,9.3249,9.2801,9.2706,9.1515,9.0945,7.3648,7.5391,7.8021,8.3467,8.9709,9.5259,9.8003,10.0506,10.2299,10.2502,10.1995,10.1792,10.2705,10.213,10.1893,10.3008,10.3483,10.399,10.4599,10.4802,10.4599,10.3686,10.3585,10.3616,10.3695,10.5011,10.6199,10.7111,10.9107,11.0325,11.0325,11.0891,11.1221,11.1221,11.0597,11.0215,10.9995,10.871,10.8012,10.7902,10.7183,10.678,10.6691,10.7315,10.6911,10.5584,10.5495,10.4908,10.41,10.3293,10.3917,10.5311,10.4284,10.4908,10.6376,10.6376,10.6376,10.6376,10.6376,10.6376,10.6376,10.6376,10.6376,10.6376,10.6376,10.5201,10.388,10.3696,10.2485,10.122,10.098,10.0503,10.0209,10.0796,10.0503,10.0099,10.0283,10.0907,10.1514,10.1514,10.1514,10.1514,10.1514,10.1514,10.12,10.0393,9.9622,9.9035,9.8851,9.8447,9.8631,9.9916,10.0209,10.0576,10.122,10.1404,10.1514,10.1514,10.1514,10.1514,10.1514,10.1514,10.0798,9.9267,9.7466,9.6043,9.4926,9.315,9.1954,9.1423,9.1117,9.0455,7.4796,7.7333,8.0682,8.778,9.3262,9.736,9.9221,10.0811,10.2096,10.2401,10.2502,10.2603,10.3009,10.2806,10.2603,10.3009,10.3382,10.3585,10.3618,10.4023,10.3889,10.3179,10.2805,10.2799,10.3423,10.4387,10.5487,10.6618,10.8391,10.9386,10.9386,11.0193,11.0414,11.0083,11.001,10.9606,10.8894,10.8012,10.7388,10.7021,10.6596,10.6192,10.5789,10.6192,10.5715,10.4504,10.4504,10.41,10.3293,10.2889,10.3602,10.4997,10.421,10.4908,10.6376,10.6376,10.6376,10.6376,10.6376,10.6376,10.6376,10.6376,10.6376,10.6376,10.6376,10.5495,10.4394,10.399,10.2999,10.2008,10.1624,10.122,10.098,10.1404,10.0907,10.0393,10.0796,10.122,10.1514,10.1514,10.1514,10.1514,10.1514,10.1514,10.12,10.0393,10.0283,10.0099,9.9732,9.9622,9.9935,10.0796,10.0927,10.098,10.1514,10.1514,10.1514,10.1514,10.1514,10.1514,10.1514,10.0892,9.9911,9.8574,9.7145,9.5558,9.3847,9.2432,9.1648,9.1516,9.0899,9.0412,7.554,7.9431,8.4058,9.1372,9.4988,9.7258,9.9356,10.0405,10.1183,10.1995,10.2299,10.2502,10.2299,10.2299,10.2299,10.2098,10.2603,10.2903,10.2683,10.3189,10.342,10.3092,10.251,10.2418,10.3087,10.39,10.4889,10.5909,10.7493,10.8395,10.8578,10.9408,10.9496,10.8799,10.9224,10.8688,10.7388,10.7095,10.6617,10.5993,10.5993,10.5495,10.4724,10.4483,10.41,10.3476,10.3476,10.2999,10.2301,10.2595,10.3586,10.4777,10.432,10.5018,10.6376,10.6376,10.6376,10.6376,10.6376,10.6376,10.6376,10.6376,10.6376,10.6397,10.6192,10.5605,10.4703,10.3917,10.3219,10.2501,10.1898,10.1808,10.1918,10.1677,10.12,10.0907,10.1404,10.1514,10.1514,10.1514,10.1514,10.1514,10.1514,10.1514,10.1294,10.0613,10.1,10.109,10.0576,10.1,10.131,10.1514,10.1514,10.1514,10.1514,10.1514,10.1397,10.1213,10.1193,10.111,10.0793,9.9955,9.889,9.7523,9.6663,9.4992,9.2392,9.1812,9.159,9.1744,9.0683,9.0357,7.4999,8.0885,8.7042,9.0696,9.3774,9.6345,9.7935,9.8882,9.9627,10.0405,10.1589,10.2299,10.1722,10.1487,10.1284,10.0576,10.0576,10.1281,10.3095,10.3477,10.388,10.5095,10.5121,10.4295,10.2519,10.3502,10.4096,10.3588,10.5509,10.7,10.7719,10.8505,10.8909,10.8799,10.7587,10.6801,10.6617,10.5091,10.4284,10.421,10.421,10.3806,10.2999,10.2301,10.1898,10.1808,10.1808,10.1404,10.0686,10.2118,10.3219,10.41,10.4724,10.5495,10.6376,10.6376,10.6376,10.6376,10.6376,10.6376,10.6376,10.6376,10.6376,10.6302,10.5495,10.4724,10.388,10.3109,10.2815,10.2705,10.2595,10.3109,10.3403,10.2705,10.2485,10.2191,10.1604,10.1514,10.1514,10.1514,10.1514,10.1514,10.1514,10.1514,10.1514,10.1404,10.0796,10.0706,10.1294,10.0796,10.0686,10.1384,10.1514,10.1514,10.1514,10.1514,10.0996,9.9845,9.9779,9.9235,9.8097,9.8983,9.889,9.7523,9.6257,9.4558,9.2392,9.229,9.1628,9.0437,9.0273,8.9895,7.6724,8.1528,8.6129,9.0763,9.2928,9.4518,9.6853,9.7631,9.807,9.8815,9.9525,10.0069,10.0608,10.1393,10.1801,10.1394,10.2002,10.2918,10.3876,10.3995,10.4209,10.4905,10.4597,10.4001,10.3316,10.3485,10.3578,10.3606,10.4415,10.5222,10.5495,10.6302,10.6523,10.6082,10.5789,10.5495,10.4981,10.4284,10.388,10.388,10.2999,10.2395,10.2008,10.0302,9.9952,10.0796,10.0796,10.0613,10.0393,10.1494,10.2779,10.388,10.4284,10.5201,10.6376,10.6376,10.6376,10.6376,10.6376,10.6376,10.6376,10.6376,10.6376,10.6192,10.5422,10.4908,10.432,10.3109,10.2999,10.3182,10.2301,10.2595,10.2999,10.2191,10.2008,10.1898,10.1587,10.1514,10.1604,10.2081,10.2191,10.2301,10.2799,10.2779,10.2705,10.2191,10.1898,10.1604,10.1514,10.122,10.109,10.1514,10.1514,10.1514,10.1514,10.1514,10.1181,10.0703,9.9911,9.9235,9.8644,9.8479,9.8121,9.7499,9.6895,9.5592,9.3531,9.2758,9.1614,9.0222,9.0222,8.9816,7.6724,8.0107,8.3152,8.8767,9.0701,9.2015,9.4823,9.5601,9.5973,9.6717,9.7156,9.7737,9.9094,10.0501,10.1579,10.1909,10.2908,10.3782,10.4574,10.4697,10.472,10.4909,10.4388,10.3997,10.3805,10.329,10.3219,10.3598,10.3586,10.3696,10.388,10.4504,10.4504,10.388,10.41,10.3917,10.3293,10.3109,10.2889,10.2705,10.1698,10.1,10.0503,9.8724,9.8447,9.9402,9.9805,9.9989,10.0099,10.131,10.2485,10.3586,10.3806,10.4687,10.5789,10.6009,10.6082,10.6082,10.6302,10.6376,10.6376,10.6376,10.6324,10.5899,10.5091,10.4724,10.4189,10.2815,10.2999,10.3293,10.2081,10.2412,10.2815,10.2008,10.1788,10.1677,10.1494,10.1698,10.2008,10.2595,10.2889,10.3219,10.3806,10.388,10.3696,10.3109,10.2815,10.2485,10.1898,10.1604,10.1514,10.1514,10.1514,10.1514,10.1514,10.1514,10.1393,10.0996,9.9915,9.9023,9.8503,9.7711,9.7335,9.7509,9.7149,9.6238,9.466,9.3494,9.2084,9.0493,9.029,8.9816,7.2789,7.5506,7.8314,8.2847,8.6095,8.8801,9.1068,9.215,9.2831,9.3639,9.4773,9.5896,9.6712,9.8083,9.9521,10.0888,10.1077,10.2183,10.4972,10.5416,10.572,10.6224,10.6316,10.5311,10.3006,10.2713,10.2717,10.2815,10.2815,10.3109,10.388,10.3917,10.3917,10.388,10.2505,10.1698,10.1604,10.0927,10.0099,9.9365,9.9989,9.9548,9.808,9.7953,9.753,9.6979,9.8521,9.9181,9.9345,10.1714,10.2705,10.2795,10.3586,10.4011,10.41,10.4908,10.5201,10.529,10.6082,10.6376,10.6376,10.6376,10.5789,10.4997,10.421,10.3403,10.2595,10.1808,10.2081,10.2705,10.2705,10.3219,10.3586,10.2815,10.2595,10.2412,10.1698,10.2081,10.2575,10.2705,10.3293,10.39,10.388,10.388,10.388,10.3806,10.3182,10.2705,10.2575,10.2008,10.1514,10.1514,10.1514,10.1514,10.1514,10.1514,10.0991,9.9676,9.9051,9.7833,9.5789,9.6356,9.6982,9.7484,9.6258,9.5539,9.5423,9.4676,9.3223,9.1237,9.0527,8.9816,7.0488,7.2665,7.5067,7.9566,8.2915,8.5587,8.7347,8.9444,9.1291,9.2413,9.3365,9.4617,9.6572,9.8605,10.0283,10.1401,10.2289,10.3188,10.432,10.4495,10.461,10.4793,10.4798,10.421,10.2795,10.2191,10.1714,10.12,10.0686,10.0723,10.1494,10.109,10.109,10.1604,10.0503,9.9952,9.9952,9.9659,9.9402,9.9108,9.8851,9.8447,9.7879,9.7346,9.6979,9.6759,9.786,9.8631,9.9218,10.0613,10.1788,10.2705,10.2999,10.3403,10.388,10.421,10.4687,10.5107,10.5495,10.5899,10.6376,10.6376,10.5789,10.4887,10.41,10.3293,10.2522,10.1677,10.2081,10.2705,10.2705,10.3293,10.3696,10.2889,10.2705,10.2485,10.1698,10.2081,10.2889,10.3403,10.41,10.4777,10.5385,10.5495,10.5311,10.4798,10.441,10.3917,10.2795,10.2412,10.2081,10.1587,10.1514,10.1514,10.1514,10.1514,10.1315,10.0793,9.8978,9.7592,9.6828,9.6254,9.6048,9.6205,9.6596,9.6547,9.608,9.4069,9.2493,9.1271,9.056,9.0053,6.7624,6.9383,7.1718,7.6724,7.9261,8.1426,8.4979,8.6907,8.8469,9.0334,9.1811,9.34,9.5678,9.8076,10.0101,10.1175,10.228,10.3109,10.3109,10.3607,10.3696,10.3203,10.3293,10.3002,10.1711,10.1291,10.0692,9.9682,9.9293,9.9328,9.9879,9.9402,9.9218,9.9475,9.8998,9.8557,9.83,9.8557,9.8557,9.83,9.8007,9.7769,9.7456,9.6942,9.6685,9.6722,9.7273,9.7933,9.8778,9.9585,10.0686,10.1898,10.1898,10.2595,10.3513,10.3806,10.4394,10.5107,10.5401,10.5899,10.6397,10.6082,10.5385,10.4483,10.3696,10.3109,10.2522,10.1677,10.2301,10.2999,10.2815,10.3293,10.3806,10.3219,10.2889,10.2595,10.2008,10.2485,10.3293,10.3806,10.4798,10.5715,10.6302,10.6376,10.6192,10.5605,10.529,10.4703,10.3602,10.3293,10.2889,10.2395,10.1899,10.1596,10.1596,10.1197,10.0921,10.0921,9.8832,9.7601,9.7601,9.6108,9.5482,9.5908,9.6088,9.6144,9.6106,9.4069,9.2572,9.1643,9.0662,9.0087,0.0,0.0,0.0,7.395,7.4965,7.642,8.3727,8.4302,8.4193,8.7287,8.9909,9.2164,9.3782,9.6176,9.8374,9.9876,10.0907,10.1384,10.1514,10.2779,10.3182,10.1604,10.2191,10.1816,9.9748,9.9979,9.9728,9.8417,9.876,9.9015,9.9071,9.9052,9.8668,9.786,9.7823,9.7419,9.6649,9.7419,9.7419,9.6685,9.7456,9.7456,9.6685,9.6685,9.6685,9.6685,9.6685,9.7126,9.7953,9.8741,9.9548,10.0283,10.0283,10.131,10.2815,10.3586,10.4394,10.518,10.6082,10.6397,10.6302,10.5422,10.4614,10.3696,10.2925,10.2705,10.2522,10.1677,10.2689,10.3696,10.2999,10.3403,10.4011,10.3917,10.3293,10.2815,10.2705,10.3403,10.388,10.388,10.5296,10.6376,10.6376,10.6376,10.6376,10.6376,10.5715,10.5107,10.5107,10.4394,10.388,10.388,10.2687,10.1892,10.1892,10.0606,9.9804,9.9769,9.8518,9.7786,9.7786,9.5818,9.5327,9.6629,9.4664,9.426,9.5418,9.4745,9.3697,9.2392,9.0938,8.985,6.2753,0.0,0.0,0.0,0.0,0.0,7.5506,7.7468,8.0229,8.5507,8.7637,8.9605,9.3119,9.5554,9.6873,9.6396,9.8278,9.9989,10.0596,10.0503,10.0503,10.0613,10.0796,10.0713,10.0114,9.9699,9.9263,9.8924,9.794,9.7603,9.819,9.8227,9.7603,9.6208,9.6171,9.5768,9.496,9.5768,9.6061,9.5841,9.6649,9.6906,9.6685,9.6685,9.6685,9.6685,9.6685,9.6832,9.7089,9.7897,9.9035,10.0283,10.0283,10.131,10.2705,10.2925,10.3896,10.5107,10.5422,10.5899,10.6302,10.5422,10.4614,10.3696,10.2925,10.2705,10.2522,10.1677,10.2689,10.399,10.43,10.5091,10.5495,10.4908,10.4593,10.432,10.3696,10.421,10.4614,10.399,10.5296,10.6376,10.6376,10.6376,10.6376,10.6376,10.6192,10.5789,10.5201,10.4887,10.4483,10.399,10.2687,10.1892,10.1892,10.0606,9.9582,9.9041,9.8265,9.7578,9.7024,9.6023,9.5438,9.5239,9.4692,9.4319,9.411,9.3906,9.3636,9.3233,9.2252,9.1135,0.0,0.0,0.0,6.6542,0.0,0.0,7.2969,7.4424,7.676,8.2847,8.5145,8.7085,9.0505,9.2827,9.4045,9.3643,9.4965,9.6692,9.8549,9.8509,9.8554,9.9215,9.9585,9.9589,9.9031,9.874,9.836,9.7786,9.7092,9.6759,9.6906,9.6906,9.6318,9.5034,9.4997,9.4777,9.4299,9.4777,9.4997,9.4997,9.5804,9.6208,9.6208,9.6539,9.6685,9.6685,9.6685,9.6685,9.6722,9.7199,9.8337,9.9805,9.9805,10.1017,10.2705,10.3109,10.4027,10.5201,10.5495,10.5715,10.5715,10.4908,10.41,10.3219,10.2412,10.2412,10.2522,10.1677,10.2689,10.41,10.4908,10.5715,10.6302,10.5789,10.5422,10.4997,10.4504,10.4798,10.5018,10.4504,10.5495,10.6376,10.6376,10.6376,10.6376,10.6376,10.6376,10.6192,10.5715,10.5106,10.4583,10.4109,10.2012,10.0706,10.0706,9.9094,9.8082,9.7971,9.7337,9.7058,9.7235,9.6317,9.5601,9.5161,9.4857,9.4349,9.3601,9.3601,9.3402,9.3098,9.2595,9.1749,0.0,0.0,0.0,0.0,6.6711,0.0,7.3003,7.3138,7.3523,7.9214,8.1971,8.4051,8.6408,8.8604,9.0226,9.0644,9.1022,9.2429,9.5931,9.6576,9.6964,9.7602,9.8307,9.8294,9.7159,9.7487,9.7246,9.5959,9.621,9.6135,9.5382,9.5364,9.4997,9.4189,9.4153,9.4116,9.4006,9.4116,9.4153,9.4189,9.4979,9.5401,9.5528,9.6245,9.6612,9.6685,9.6685,9.6685,9.6685,9.6685,9.764,9.9108,9.9108,10.0613,10.2815,10.3586,10.4394,10.518,10.6082,10.5899,10.5091,10.421,10.3403,10.2705,10.1808,10.2081,10.2595,10.1898,10.2779,10.41,10.4908,10.5715,10.6376,10.6376,10.5789,10.518,10.518,10.518,10.518,10.518,10.5899,10.6376,10.6376,10.6376,10.6376,10.6376,10.6376,10.6297,10.6206,10.5099,10.419,10.4108,10.1109,9.9096,9.9096,9.7238,9.6277,9.6883,9.6345,9.6616,9.7834,9.6683,9.6007,9.5905,9.5127,9.4349,9.3601,9.3601,9.3233,9.2527,9.2527,9.215,0.0,0.0,0.0,6.4681,6.5933,0.0,6.6846,6.7793,6.9913,7.3899,7.5988,7.798,8.0799,8.4009,8.5723,8.4215,8.5971,8.9174,9.3954,9.4109,9.4395,9.614,9.6506,9.665,9.6791,9.6863,9.6552,9.5643,9.5103,9.4703,9.452,9.452,9.4153,9.3345,9.3345,9.3015,9.2281,9.2978,9.3345,9.3345,9.4153,9.4887,9.5492,9.5639,9.6098,9.6685,9.6685,9.6685,9.6685,9.6685,9.764,9.9108,9.9108,10.0613,10.2815,10.3586,10.4394,10.518,10.6082,10.6302,10.5899,10.4394,10.3806,10.3403,10.1898,10.2081,10.2815,10.3293,10.3717,10.41,10.4908,10.5715,10.6376,10.6376,10.6302,10.6119,10.6119,10.6119,10.6119,10.6119,10.6302,10.6376,10.6376,10.6376,10.6376,10.6376,10.6376,10.6019,10.4917,10.4497,10.3916,10.2711,10.1011,9.9892,9.9892,9.8467,9.7394,9.6951,9.7326,9.7428,9.7123,9.7394,9.7292,9.6714,9.5364,9.4349,9.3601,9.3601,9.3503,9.3368,9.3368,9.2928,6.2854,6.3768,6.4681,6.5033,6.5696,0.0,0.0,6.6,6.7395,7.1392,7.2249,7.3257,7.6599,7.867,7.9888,8.0057,8.2223,8.478,8.734,9.0044,9.2594,9.4875,9.5167,9.5241,9.5454,9.5511,9.5327,9.4923,9.452,9.4116,9.3712,9.3712,9.3308,9.2464,9.2464,9.2244,9.1803,9.2244,9.2464,9.2464,9.3308,9.3896,9.4336,9.5125,9.5712,9.6135,9.6539,9.6685,9.6685,9.6685,9.7419,9.8557,9.8961,10.0099,10.1714,10.3293,10.421,10.4687,10.5972,10.6082,10.5495,10.4284,10.3586,10.3109,10.1918,10.1808,10.2301,10.3109,10.3586,10.41,10.4908,10.5715,10.6376,10.6376,10.6376,10.6376,10.6376,10.6376,10.6376,10.6376,10.6376,10.6376,10.6376,10.6376,10.6324,10.5789,10.6082,10.5713,10.3919,10.3424,10.2685,10.1306,9.9555,9.8524,9.8524,9.7541,9.6886,9.6917,9.7225,9.7428,9.7428,9.78,9.7664,9.6917,9.5466,9.4518,9.4146,9.3774,9.3601,9.3601,9.3601,9.3368,6.4289,6.4559,6.5067,6.6305,6.6034,6.5561,0.0,0.0,0.0,6.9091,6.9079,6.935,7.236,7.3138,7.3916,7.5743,7.817,7.9969,8.0395,8.5275,8.9792,9.2383,9.3279,9.3726,9.3804,9.3529,9.3492,9.3786,9.3529,9.3198,9.2868,9.2868,9.2537,9.1803,9.1803,9.1803,9.1803,9.1803,9.1803,9.1803,9.2501,9.2941,9.3161,9.4446,9.5198,9.5528,9.6208,9.6575,9.6685,9.6685,9.7089,9.775,9.8741,9.9585,10.0613,10.2999,10.388,10.41,10.5789,10.5789,10.5018,10.421,10.3293,10.2301,10.1698,10.1514,10.1604,10.2301,10.2999,10.388,10.4687,10.5495,10.6192,10.6397,10.6376,10.6376,10.6376,10.6376,10.6376,10.6376,10.6376,10.6376,10.6376,10.6376,10.6082,10.518,10.5715,10.5297,10.3014,10.2292,10.1399,9.9843,9.8147,9.712,9.712,9.6548,9.648,9.7056,9.712,9.736,9.7969,9.8003,9.7664,9.6917,9.5736,9.4992,9.4721,9.4112,9.374,9.3601,9.3601,9.3601,6.7218,6.8402,6.8864,6.6406,6.7218,6.759,6.3768,0.0,6.5358,6.4559,0.0,6.6224,6.6609,0.0,0.0,6.9011,7.2056,7.506,7.7031,8.0211,8.35,8.6589,8.9651,9.1687,9.2042,9.0812,9.0537,9.1987,9.0776,9.0537,9.1877,9.195,9.1913,9.1803,9.1803,9.1803,9.1803,9.1803,9.1803,9.1803,9.1913,9.2354,9.3125,9.3308,9.4153,9.5492,9.5602,9.6061,9.6685,9.6685,9.6759,9.6979,9.8521,9.9585,10.0613,10.2999,10.388,10.41,10.5789,10.5789,10.5018,10.421,10.2909,10.1604,10.1514,10.1514,10.1514,10.1604,10.2191,10.2999,10.3806,10.4614,10.5401,10.6192,10.6376,10.6376,10.6376,10.6376,10.6376,10.6376,10.6376,10.6376,10.6376,10.6376,10.6082,10.518,10.518,10.4298,10.1608,10.1222,10.0407,9.8448,9.7994,9.7867,9.7867,9.78,9.78,9.7867,9.7867,9.7901,9.8003,9.8003,9.7664,9.6917,9.6748,9.6007,9.4721,9.462,9.4248,9.3601,9.3601,9.3601,6.7827,6.8368,6.8538,6.7286,6.7387,6.7049,6.4309,6.3734,6.3835,6.4106,0.0,0.0,0.0,0.0,0.0,0.0,7.006,7.2434,7.3008,7.666,8.0756,8.4724,8.6481,8.7797,8.8887,8.8409,8.8666,9.0298,8.9326,8.9417,9.1033,9.1546,9.1803,9.1803,9.1803,9.1803,9.1803,9.1803,9.1803,9.1803,9.1803,9.1987,9.2354,9.2868,9.3492,9.4153,9.5088,9.5675,9.6061,9.6502,9.6685,9.6869,9.8484,9.9328,9.9916,10.2301,10.3513,10.41,10.5201,10.5422,10.4887,10.3623,10.2412,10.1514,10.1514,10.1514,10.1624,10.2081,10.2412,10.2999,10.432,10.4777,10.529,10.6192,10.6376,10.6376,10.6376,10.6376,10.6376,10.6376,10.6376,10.6376,10.6376,10.6009,10.5385,10.4504,10.4394,10.3509,10.1103,10.0903,10.0403,9.8674,9.8183,9.8003,9.8003,9.8003,9.8003,9.8003,9.8003,9.8003,9.8003,9.8003,9.7867,9.7529,9.7089,9.6379,9.533,9.533,9.4958,9.4214,9.3774,9.3601,6.8166,6.8368,6.8335,6.7489,6.688,6.6,6.414,6.3193,6.3057,6.4343,6.3632,0.0,0.0,0.0,6.5493,6.6373,0.0,7.0097,7.0218,7.3299,7.7118,8.136,8.3064,8.4499,8.5877,8.5803,8.6427,8.8262,8.7472,8.7876,9.0134,9.0812,9.1326,9.1803,9.1803,9.1803,9.1803,9.1803,9.1803,9.1803,9.1803,9.1803,9.1803,9.2464,9.2868,9.3161,9.4336,9.5088,9.5528,9.6135,9.6649,9.7163,9.8557,9.9255,9.9695,10.1898,10.3219,10.399,10.4777,10.5018,10.4614,10.3403,10.2301,10.1494,10.1808,10.1698,10.1604,10.2191,10.2412,10.2705,10.41,10.4593,10.5018,10.5789,10.6192,10.6376,10.6376,10.6376,10.6376,10.6376,10.6376,10.6376,10.6376,10.5715,10.4777,10.399,10.3696,10.2697,10.0392,10.0209,9.9851,9.8475,9.7959,9.7766,9.8003,9.8003,9.8003,9.8003,9.8003,9.8003,9.8003,9.8003,9.8003,9.8003,9.7461,9.6819,9.6074,9.6074,9.5601,9.4687,9.4146,9.3876,6.8842,6.9586,6.9439,6.6495,6.5751,6.4972,6.2076,6.2463,6.368,6.4444,6.5696,6.6656,6.6724,6.6724,0.0,0.0,6.6406,0.0,0.0,6.9902,7.1179,7.4547,7.9261,8.259,8.3418,8.281,8.3324,8.5764,8.4462,8.5289,8.9216,8.9473,9.017,9.173,9.1803,9.1803,9.1803,9.1803,9.1803,9.1803,9.1803,9.1803,9.1803,9.184,9.2281,9.3088,9.3161,9.4079,9.5492,9.5528,9.6465,9.7933,9.8778,9.9585,10.0503,10.2118,10.3219,10.399,10.4777,10.4614,10.388,10.388,10.2799,10.1604,10.2412,10.2081,10.1514,10.1514,10.1494,10.1677,10.2595,10.3403,10.41,10.4887,10.5789,10.6376,10.6376,10.6376,10.6376,10.6376,10.6376,10.6376,10.6376,10.5715,10.4777,10.399,10.3219,10.1799,9.9111,9.8773,9.8323,9.7107,9.6947,9.7225,9.7935,9.8003,9.8003,9.8003,9.8003,9.8003,9.8003,9.8003,9.8003,9.8003,9.8003,9.7597,9.6883,9.6883,9.6108,9.4721,9.4687,9.4687,6.9045,6.9282,6.8977,6.6948,6.5696,6.458,6.3071,6.3139,6.3714,6.4444,6.5764,6.6656,6.617,6.6474,0.0,0.0,0.0,0.0,0.0,6.6761,6.8728,7.2052,7.6276,7.9507,8.0865,8.0771,8.1599,8.4022,8.2737,8.3361,8.6848,8.7545,8.8556,9.017,9.0739,9.1253,9.1803,9.1803,9.1803,9.1803,9.1803,9.1803,9.1803,9.1803,9.195,9.2281,9.2868,9.3712,9.474,9.5272,9.6135,9.7236,9.8594,9.9292,9.9769,10.1898,10.3219,10.399,10.4777,10.4887,10.4614,10.41,10.3513,10.2999,10.2815,10.2522,10.2191,10.1604,10.1514,10.1698,10.2485,10.3293,10.41,10.4887,10.529,10.5715,10.6302,10.5495,10.5112,10.6213,10.5899,10.5715,10.6302,10.5715,10.4777,10.399,10.2799,10.1596,10.0725,10.0204,9.9486,9.8233,9.8178,9.7961,9.7316,9.7732,9.8003,9.8003,9.8003,9.8003,9.8003,9.8003,9.8003,9.8003,9.8003,9.7631,9.6917,9.7394,9.7123,9.6142,9.6142,9.5364,6.8199,6.847,6.8301,6.6779,6.5696,6.4715,6.3714,6.3903,6.458,6.5561,6.6779,6.7624,6.7692,6.7421,0.0,0.0,0.0,0.0,0.0,6.4941,6.7431,7.0121,7.3728,7.668,7.8311,7.8222,7.8956,8.1069,8.0005,8.0681,8.3911,8.5416,8.7014,8.8923,9.0024,9.0996,9.1803,9.1803,9.1803,9.1803,9.1803,9.1803,9.1803,9.1803,9.1803,9.184,9.2391,9.3272,9.4336,9.485,9.5878,9.7236,9.8264,9.9035,9.9769,10.1604,10.2999,10.41,10.5201,10.5422,10.5091,10.4908,10.4394,10.3806,10.3293,10.2925,10.2705,10.2375,10.1898,10.1808,10.2815,10.3293,10.3586,10.4079,10.4504,10.4798,10.5385,10.4708,10.4284,10.5678,10.5495,10.5422,10.6192,10.5715,10.4777,10.399,10.2779,10.1702,10.0908,10.0412,9.9741,9.853,9.8448,9.8171,9.7377,9.7732,9.8003,9.8003,9.8003,9.8003,9.8003,9.8003,9.8375,9.9187,9.8409,9.8172,9.8507,9.8172,9.7631,9.6917,9.7157,9.6244]}]]